[[{"header":{"parameterUnit":"m.s-1","parameterCategory":1,"la1":31.0,"la2":29.5877,"lo1":-88.7671,"lo2":-86.6584,"dy":0.0162,"dx":0.0185,"nx":115,"ny":88,"refTime":"2023-04-13T06:00:00:Z","depth":0,"parameterNumber":2,"parameterNumberName":"U-component_of_WINDS"},"data":[0.0,0.0,0.0,0.0,0.0,0.0,0.0,0.0,0.0,0.0,0.0,0.0,0.0,0.0,0.0,0.0,0.0,0.0,0.0,0.0,0.0,0.0,0.0,0.0,0.0,0.0,0.0,0.0,0.0,0.0,0.0,0.0,0.0,0.0,0.0,0.0,0.0,0.0,0.0,0.0,0.0,0.0,0.0,0.0,0.0,0.0,0.0,0.0,0.0,0.0,0.0,0.0,0.0,0.0,0.0,0.0,0.0,0.0,0.0,0.0,0.0,0.0,0.0,0.0,0.0,0.0,0.0,0.0,0.0,0.0,0.0,0.0,0.0,0.0,0.0,0.0,0.0,0.0,0.0,0.0,0.0,0.0,0.0,0.0,0.0,0.0,0.0,0.0,0.0,0.0,0.0,0.0,0.0,0.0,0.0,0.0,0.0,0.0,0.0,0.0,0.0,0.0,0.0,0.0,0.0,0.0,0.0,0.0,0.0,0.0,0.0,0.0,0.0,0.0,0.0,0.0,0.0,0.0,0.0,0.0,0.0,0.0,0.0,0.0,0.0,0.0,0.0,0.0,0.0,0.0,0.0,0.0,0.0,0.0,0.0,0.0,0.0,0.0,0.0,0.0,0.0,0.0,0.0,0.0,0.0,0.0,0.0,0.0,0.0,0.0,0.0,0.0,0.0,0.0,0.0,0.0,0.0,0.0,0.0,0.0,0.0,0.0,0.0,0.0,0.0,0.0,0.0,0.0,0.0,0.0,0.0,0.0,0.0,0.0,0.0,0.0,0.0,0.0,0.0,0.0,0.0,0.0,0.0,0.0,0.0,0.0,0.0,0.0,0.0,0.0,0.0,0.0,0.0,0.0,0.0,0.0,0.0,0.0,0.0,0.0,0.0,0.0,0.0,0.0,0.0,0.0,0.0,0.0,0.0,0.0,0.0,0.0,0.0,0.0,0.0,0.0,0.0,0.0,0.0,0.0,0.0,0.0,0.0,0.0,0.0,0.0,0.0,0.0,0.0,0.0,0.0,0.0,0.0,0.0,0.0,0.0,0.0,0.0,0.0,0.0,0.0,0.0,0.0,0.0,0.0,0.0,0.0,0.0,0.0,0.0,0.0,0.0,0.0,0.0,0.0,0.0,0.0,0.0,0.0,0.0,0.0,0.0,0.0,0.0,0.0,0.0,0.0,0.0,0.0,0.0,0.0,0.0,0.0,0.0,0.0,0.0,0.0,0.0,0.0,0.0,0.0,0.0,0.0,0.0,0.0,0.0,0.0,0.0,0.0,0.0,0.0,0.0,0.0,0.0,0.0,0.0,0.0,0.0,0.0,0.0,0.0,0.0,0.0,0.0,0.0,0.0,0.0,0.0,0.0,0.0,0.0,0.0,0.0,0.0,0.0,0.0,0.0,0.0,0.0,0.0,0.0,0.0,0.0,0.0,0.0,0.0,0.0,0.0,0.0,0.0,0.0,0.0,0.0,0.0,0.0,0.0,0.0,0.0,0.0,0.0,0.0,0.0,0.0,0.0,0.0,0.0,0.0,0.0,0.0,0.0,0.0,0.0,0.0,0.0,0.0,0.0,0.0,0.0,0.0,0.0,0.0,0.0,0.0,0.0,0.0,0.0,0.0,0.0,0.0,0.0,0.0,0.0,0.0,0.0,0.0,0.0,0.0,0.0,0.0,0.0,0.0,0.0,0.0,0.0,0.0,0.0,0.0,0.0,0.0,0.0,0.0,0.0,0.0,0.0,0.0,0.0,0.0,0.0,0.0,0.0,0.0,0.0,0.0,0.0,0.0,0.0,0.0,0.0,0.0,0.0,0.0,0.0,0.0,0.0,0.0,0.0,0.0,0.0,0.0,0.0,0.0,0.0,0.0,0.0,0.0,0.0,0.0,0.0,0.0,0.0,0.0,0.0,0.0,0.0,0.0,0.0,0.0,0.0,0.0,0.0,0.0,0.0,0.0,0.0,0.0,0.0,0.0,0.0,0.0,0.0,0.0,0.0,0.0,0.0,0.0,0.0,0.0,0.0,0.0,0.0,0.0,0.0,0.0,0.0,0.0,0.0,0.0,0.0,0.0,0.0,0.0,0.0,0.0,0.0,0.0,0.0,0.0,0.0,0.0,0.0,0.0,0.0,0.0,0.0,0.0,0.0,0.0,0.0,0.0,0.0,0.0,0.0,0.0,0.0,0.0,0.0,0.0,0.0,0.0,0.0,0.0,0.0,0.0,0.0,0.0,0.0,0.0,0.0,0.0,0.0,0.0,0.0,0.0,0.0,0.0,0.0,0.0,0.0,0.0,0.0,0.0,0.0,0.0,0.0,0.0,0.0,0.0,0.0,0.0,0.0,0.0,0.0,0.0,0.0,0.0,0.0,0.0,0.0,0.0,0.0,0.0,0.0,0.0,0.0,0.0,0.0,0.0,0.0,0.0,0.0,0.0,0.0,0.0,0.0,0.0,0.0,0.0,0.0,0.0,0.0,0.0,0.0,0.0,0.0,0.0,0.0,0.0,0.0,0.0,0.0,0.0,0.0,0.0,0.0,0.0,0.0,0.0,0.0,0.0,0.0,0.0,0.0,0.0,0.0,0.0,0.0,0.0,0.0,0.0,0.0,0.0,0.0,0.0,0.0,0.0,0.0,0.0,0.0,0.0,0.0,0.0,0.0,0.0,0.0,0.0,0.0,0.0,0.0,0.0,0.0,0.0,0.0,0.0,0.0,0.0,0.0,0.0,0.0,0.0,0.0,0.0,0.0,0.0,0.0,0.0,0.0,0.0,0.0,0.0,0.0,0.0,0.0,0.0,0.0,0.0,0.0,0.0,0.0,0.0,0.0,0.0,0.0,0.0,0.0,0.0,0.0,0.0,0.0,0.0,0.0,0.0,0.0,0.0,0.0,0.0,0.0,0.0,0.0,0.0,0.0,0.0,0.0,0.0,0.0,0.0,0.0,0.0,0.0,0.0,0.0,0.0,0.0,0.0,0.0,0.0,0.0,0.0,0.0,0.0,0.0,0.0,0.0,0.0,0.0,0.0,0.0,0.0,0.0,0.0,0.0,0.0,0.0,0.0,0.0,0.0,0.0,0.0,0.0,0.0,0.0,0.0,0.0,0.0,0.0,0.0,0.0,0.0,0.0,0.0,0.0,0.0,0.0,0.0,0.0,0.0,0.0,0.0,0.0,0.0,0.0,0.0,0.0,0.0,0.0,0.0,0.0,0.0,0.0,0.0,0.0,0.0,0.0,0.0,0.0,0.0,0.0,0.0,0.0,0.0,0.0,0.0,0.0,0.0,0.0,0.0,0.0,0.0,0.0,0.0,0.0,0.0,0.0,0.0,0.0,0.0,0.0,0.0,0.0,0.0,0.0,0.0,0.0,0.0,0.0,0.0,0.0,0.0,0.0,0.0,0.0,0.0,0.0,0.0,0.0,0.0,0.0,0.0,0.0,0.0,0.0,0.0,0.0,0.0,0.0,0.0,0.0,0.0,0.0,0.0,0.0,0.0,0.0,0.0,0.0,0.0,0.0,0.0,0.0,0.0,0.0,0.0,0.0,0.0,0.0,0.0,0.0,0.0,0.0,0.0,0.0,0.0,0.0,0.0,0.0,0.0,0.0,0.0,0.0,0.0,0.0,0.0,0.0,0.0,0.0,0.0,0.0,0.0,0.0,0.0,0.0,0.0,0.0,0.0,0.0,0.0,0.0,0.0,0.0,0.0,0.0,0.0,0.0,0.0,0.0,0.0,0.0,0.0,0.0,0.0,0.0,0.0,0.0,0.0,0.0,0.0,0.0,0.0,0.0,0.0,0.0,0.0,0.0,0.0,0.0,0.0,0.0,0.0,0.0,0.0,0.0,0.0,0.0,0.0,0.0,0.0,0.0,0.0,0.0,0.0,0.0,0.0,0.0,0.0,0.0,0.0,0.0,0.0,0.0,0.0,0.0,0.0,0.0,0.0,0.0,0.0,0.0,0.0,0.0,0.0,0.0,0.0,0.0,0.0,0.0,0.0,0.0,0.0,0.0,0.0,0.0,0.0,0.0,0.0,0.0,0.0,0.0,0.0,0.0,0.0,0.0,0.0,0.0,0.0,0.0,0.0,0.0,0.0,0.0,0.0,0.0,0.0,0.0,0.0,0.0,0.0,0.0,0.0,0.0,0.0,0.0,0.0,0.0,0.0,0.0,0.0,0.0,0.0,0.0,0.0,0.0,0.0,0.0,0.0,0.0,0.0,0.0,0.0,0.0,0.0,0.0,0.0,0.0,0.0,0.0,0.0,0.0,2.0341,0.0,0.0,0.0,0.0,0.0,0.0,0.0,0.0,0.0,0.0,0.0,0.0,0.0,0.0,0.0,0.0,0.0,0.0,0.0,0.0,0.0,0.0,0.0,0.0,0.0,0.0,0.0,0.0,0.0,0.0,0.0,0.0,0.0,0.0,0.0,0.0,0.0,0.0,0.0,0.0,0.0,0.0,0.0,0.0,0.0,0.0,0.0,0.0,0.0,0.0,0.0,0.0,0.0,0.0,0.0,0.0,0.0,0.0,0.0,0.0,0.0,0.0,0.0,0.0,0.0,0.0,0.0,0.0,0.0,0.0,0.0,0.0,0.0,0.0,0.0,0.0,0.0,0.0,0.0,0.0,0.0,0.0,0.0,0.0,0.0,0.0,0.0,0.0,0.0,0.0,0.0,0.0,0.0,0.0,0.0,0.0,0.0,0.0,0.0,0.0,0.0,0.0,0.0,0.0,0.0,0.0,0.0,0.0,0.0,0.0,2.4718,2.3604,2.2352,2.1078,1.991,0.0,0.0,0.0,0.0,0.0,0.0,0.0,0.0,0.0,0.0,0.0,0.0,0.0,0.0,0.0,0.0,0.0,0.0,0.0,0.0,0.0,0.0,0.0,0.0,0.0,0.0,0.0,0.0,0.0,0.0,0.0,0.0,0.0,0.0,0.0,0.0,0.0,0.0,0.0,0.0,0.0,0.0,0.0,0.0,0.0,0.0,0.0,0.0,0.0,0.0,0.0,0.0,0.0,0.0,0.0,0.0,0.0,0.0,0.0,0.0,0.0,0.0,0.0,0.0,0.0,0.0,0.0,0.0,0.0,0.0,0.0,0.0,0.0,0.0,0.0,0.0,0.0,0.0,0.0,0.0,0.0,0.0,0.0,0.0,0.0,0.0,0.0,0.0,0.0,0.0,0.0,0.0,0.0,0.0,0.0,0.0,0.0,0.0,0.0,0.0,0.0,0.0,0.0,0.0,0.0,0.0,0.0,0.0,0.0,0.0,0.0,0.0,2.1978,2.0684,1.8951,0.0,0.0,0.0,0.0,0.0,0.0,0.0,0.0,0.0,0.0,0.0,0.0,0.0,0.0,0.0,0.0,0.0,0.0,0.0,0.0,0.0,0.0,0.0,0.0,0.0,0.0,0.0,0.0,0.0,0.0,0.0,0.0,0.0,0.0,0.0,0.0,0.0,0.0,0.0,0.0,0.0,0.0,0.0,0.0,0.0,0.0,0.0,0.0,0.0,0.0,0.0,0.0,0.0,0.0,0.0,0.0,0.0,0.0,0.0,0.0,0.0,0.0,0.0,0.0,0.0,0.0,0.0,0.0,0.0,0.0,0.0,0.0,0.0,0.0,0.0,0.0,0.0,0.0,0.0,0.0,0.0,0.0,0.0,0.0,0.0,0.0,0.0,0.0,0.0,0.0,0.0,0.0,0.0,0.0,0.0,0.0,0.0,0.0,0.0,0.0,0.0,0.0,0.0,0.0,0.0,0.0,0.0,0.0,0.0,0.0,2.3837,2.2173,2.1461,0.0,1.6863,0.0,0.0,0.0,0.0,0.0,0.0,0.0,0.0,0.0,0.0,0.0,0.0,0.0,0.0,0.0,0.0,0.0,0.0,0.0,0.0,0.0,0.0,0.0,0.0,0.0,0.0,0.0,0.0,0.0,0.0,0.0,0.0,0.0,0.0,0.0,0.0,0.0,0.0,0.0,0.0,0.0,0.0,0.0,0.0,0.0,0.0,0.0,0.0,0.0,0.0,0.0,0.0,0.0,0.0,0.0,0.0,0.0,0.0,0.0,0.0,0.0,0.0,0.0,0.0,0.0,0.0,0.0,0.0,0.0,0.0,0.0,0.0,0.0,0.0,0.0,0.0,0.0,0.0,0.0,0.0,0.0,0.0,0.0,0.0,0.0,0.0,0.0,0.0,0.0,0.0,0.0,0.0,0.0,0.0,0.0,0.0,0.0,0.0,0.0,0.0,0.0,0.0,0.0,0.0,0.0,0.0,0.0,0.0,0.0,0.0,2.3728,2.1811,1.9928,1.7909,0.0,0.0,0.0,0.0,0.0,0.0,0.0,0.0,0.0,0.0,0.0,0.0,0.0,0.0,0.0,0.0,0.0,0.0,0.0,0.0,0.0,0.0,0.0,0.0,0.0,0.0,0.0,0.0,0.0,0.0,0.0,0.0,0.0,0.0,0.0,0.0,0.0,0.0,0.0,0.0,0.0,0.0,0.0,0.0,0.0,0.0,0.0,0.0,0.0,0.0,0.0,0.0,0.0,0.0,0.0,0.0,0.0,0.0,0.0,0.0,0.0,0.0,0.0,0.0,0.0,0.0,0.0,0.0,0.0,0.0,0.0,0.0,0.0,0.0,0.0,0.0,0.0,0.0,0.0,0.0,0.0,0.0,0.0,0.0,0.0,0.0,0.0,0.0,0.0,0.0,0.0,0.0,0.0,0.0,0.0,0.0,0.0,0.0,0.0,0.0,0.0,0.0,0.0,0.0,0.0,0.0,0.0,0.0,0.0,0.0,2.4564,2.3091,2.0943,1.8524,1.652,1.5202,0.0,0.0,0.0,0.0,0.0,0.0,0.0,0.0,0.0,0.0,0.0,0.0,0.0,0.0,0.0,0.0,0.0,0.0,0.0,0.0,0.0,0.0,0.0,0.0,0.0,0.0,0.0,0.0,0.0,0.0,0.0,0.0,0.0,0.0,0.0,0.0,0.0,0.0,0.0,0.0,0.0,0.0,0.0,0.0,0.0,0.0,0.0,0.0,0.0,0.0,0.0,0.0,0.0,0.0,0.0,0.0,0.0,0.0,0.0,0.0,0.0,0.0,0.0,0.0,0.0,0.0,0.0,0.0,0.0,0.0,0.0,0.0,0.0,0.0,0.0,0.0,0.0,0.0,0.0,0.0,0.0,0.0,0.0,0.0,0.0,0.0,0.0,0.0,0.0,0.0,0.0,0.0,0.0,0.0,0.0,0.0,0.0,0.0,0.0,0.0,0.0,0.0,0.0,0.0,0.0,0.0,0.0,0.0,2.5051,2.3792,2.1839,1.9291,1.7507,1.588,0.0,0.0,0.0,0.0,0.0,0.0,0.0,0.0,0.0,0.0,0.0,0.0,0.0,0.0,0.0,0.0,0.0,0.0,0.0,0.0,0.0,0.0,0.0,0.0,0.0,0.0,0.0,0.0,0.0,0.0,0.0,0.0,0.0,0.0,0.0,0.0,0.0,0.0,0.0,0.0,0.0,0.0,0.0,0.0,0.0,0.0,0.0,0.0,0.0,0.0,0.0,0.0,0.0,0.0,0.0,0.0,0.0,0.0,0.0,0.0,0.0,0.0,0.0,0.0,0.0,0.0,0.0,0.0,0.0,0.0,0.0,0.0,0.0,0.0,0.0,0.0,0.0,0.0,0.0,0.0,0.0,0.0,0.0,0.0,0.0,0.0,0.0,0.0,0.0,0.0,0.0,0.0,0.0,0.0,0.0,0.0,0.0,0.0,0.0,0.0,0.0,0.0,0.0,0.0,0.0,0.0,0.0,0.0,0.0,2.4454,2.2355,2.0374,1.8664,1.6861,1.5168,0.0,0.0,0.0,0.0,0.0,0.0,0.0,0.0,0.0,0.0,0.0,0.0,0.0,0.0,0.0,0.0,0.0,0.0,0.0,0.0,0.0,0.0,0.0,0.0,0.0,0.0,0.0,0.0,0.0,0.0,0.0,0.0,0.0,0.0,0.0,0.0,0.0,0.0,0.0,0.0,0.0,0.0,0.0,0.0,0.0,0.0,0.0,0.0,0.0,0.0,0.0,0.0,0.0,0.0,0.0,0.0,0.0,0.0,0.0,0.0,0.0,0.0,0.0,0.0,0.0,0.0,0.0,0.0,0.0,0.0,0.0,0.0,0.0,0.0,0.0,0.0,0.0,0.0,0.0,0.0,0.0,0.0,0.0,0.0,0.0,0.0,0.0,0.0,0.0,0.0,0.0,0.0,0.0,0.0,0.0,0.0,0.0,0.0,0.0,0.0,0.0,0.0,0.0,0.0,0.0,0.0,0.0,0.0,0.0,2.3032,0.0,1.9261,0.0,1.6343,1.4818,0.0,0.0,0.0,0.0,0.0,0.0,0.0,0.0,0.0,0.0,0.0,0.0,0.0,0.0,0.0,0.0,0.0,0.0,0.0,0.0,0.0,0.0,0.0,0.0,0.0,0.0,0.0,0.0,0.0,0.0,0.0,0.0,0.0,0.0,0.0,0.0,0.0,0.0,0.0,0.0,0.0,0.0,0.0,0.0,0.0,0.0,0.0,0.0,0.0,0.0,0.0,0.0,0.0,0.0,0.0,0.0,0.0,0.0,0.0,0.0,0.0,0.0,0.0,0.0,0.0,0.0,0.0,0.0,0.0,0.0,0.0,0.0,0.0,0.0,0.0,0.0,0.0,0.0,0.0,0.0,0.0,0.0,0.0,0.0,0.0,0.0,0.0,0.0,0.0,0.0,0.0,0.0,0.0,0.0,0.0,0.0,0.0,0.0,0.0,0.0,0.0,0.0,0.0,0.0,0.0,0.0,0.0,0.0,2.2885,2.0755,1.9567,1.8418,1.7023,1.5854,1.4577,0.0,0.0,0.0,0.0,0.0,0.0,0.0,0.0,0.0,0.0,0.0,0.0,0.0,0.0,0.0,0.0,0.0,0.0,0.0,0.0,0.0,0.0,0.0,0.0,0.0,0.0,0.0,0.0,0.0,0.0,0.0,0.0,0.0,0.0,0.0,0.0,0.0,0.0,0.0,0.0,0.0,0.0,0.0,0.0,0.0,0.0,0.0,0.0,0.0,0.0,0.0,0.0,0.0,0.0,0.0,0.0,0.0,0.0,0.0,0.0,0.0,0.0,0.0,0.0,0.0,0.0,0.0,0.0,0.0,0.0,0.0,0.0,0.0,0.0,0.0,0.0,0.0,0.0,0.0,0.0,0.0,0.0,0.0,0.0,0.0,0.0,0.0,0.0,0.0,0.0,0.0,0.0,0.0,0.0,0.0,0.0,0.0,0.0,0.0,0.0,0.0,0.0,0.0,0.0,0.0,0.0,0.0,0.0,0.0,1.9615,1.8329,1.7265,1.6295,1.4944,1.378,0.0,0.0,0.0,0.0,0.0,0.0,0.0,0.0,0.0,0.0,0.0,0.0,0.0,0.0,0.0,0.0,0.0,0.0,0.0,0.0,0.0,0.0,0.0,0.0,0.0,0.0,0.0,0.0,0.0,0.0,0.0,0.0,0.0,0.0,0.0,0.0,0.0,0.0,0.0,0.0,0.0,0.0,0.0,0.0,0.0,0.0,0.0,0.0,0.0,0.0,0.0,0.0,0.0,0.0,0.0,0.0,0.0,0.0,0.0,0.0,0.0,0.0,0.0,0.0,0.0,0.0,0.0,0.0,0.0,0.0,0.0,0.0,0.0,0.0,0.0,0.0,0.0,0.0,0.0,0.0,0.0,0.0,0.0,0.0,0.0,0.0,0.0,0.0,0.0,0.0,0.0,0.0,0.0,0.0,0.0,0.0,0.0,0.0,0.0,0.0,0.0,0.0,0.0,0.0,0.0,0.0,0.0,0.0,0.0,1.8343,1.7541,1.6758,1.5981,1.4638,1.344,1.2255,0.0,0.0,0.0,0.0,0.0,0.0,0.0,0.0,0.0,0.0,0.0,0.0,0.0,0.0,0.0,0.0,0.0,0.0,0.0,0.0,0.0,0.0,0.0,0.0,0.0,0.0,0.0,0.0,0.0,0.0,0.0,0.0,0.0,0.0,0.0,0.0,0.0,0.0,0.0,0.0,0.0,0.0,0.0,0.0,0.0,0.0,0.0,0.0,0.0,0.0,0.0,0.0,0.0,0.0,0.0,0.0,0.0,0.0,0.0,0.0,0.0,0.0,0.0,0.0,0.0,0.0,0.0,0.0,0.0,0.0,0.0,0.0,0.0,0.0,0.0,0.0,0.0,0.0,0.0,0.0,0.0,0.0,0.0,0.0,0.0,0.0,0.0,0.0,0.0,0.0,0.0,0.0,0.0,0.0,0.0,0.0,0.0,0.0,0.0,0.0,0.0,0.0,0.0,0.0,0.0,0.0,0.0,0.0,1.6886,1.7025,1.6653,1.5638,1.4703,1.3405,0.0,0.0,0.0,0.0,0.0,0.0,0.0,0.0,0.0,0.0,0.0,0.0,0.0,0.0,0.0,0.0,0.0,0.0,0.0,0.0,0.0,0.0,0.0,0.0,0.0,0.0,0.0,0.0,0.0,0.0,0.0,0.0,0.0,0.0,0.0,0.0,0.0,0.0,0.0,0.0,0.0,0.0,0.0,0.0,0.0,0.0,0.0,0.0,0.0,0.0,0.0,0.0,0.0,0.0,0.0,0.0,0.0,0.0,0.0,0.0,0.0,0.0,0.0,0.0,0.0,0.0,0.0,0.0,0.0,0.0,0.0,0.0,0.0,0.0,0.0,0.0,0.0,0.0,0.0,0.0,0.0,0.0,0.0,0.0,0.0,0.0,0.0,0.0,0.0,0.0,0.0,0.0,0.0,0.0,0.0,0.0,0.0,0.0,0.0,0.0,0.0,0.0,0.0,0.0,0.0,0.0,0.0,0.0,0.0,1.6726,1.7011,1.6642,1.5491,1.4027,1.2712,0.0,0.0,0.0,0.0,0.0,0.0,0.0,0.0,0.0,0.0,0.0,0.0,0.0,0.0,0.0,0.0,0.0,0.0,0.0,0.0,0.0,0.0,0.0,0.0,0.0,0.0,0.0,0.0,0.0,0.0,0.0,0.0,0.0,0.0,0.0,0.0,0.0,0.0,0.0,0.0,0.0,0.0,0.0,0.0,0.0,0.0,0.0,0.0,0.0,0.0,0.0,0.0,0.0,0.0,0.0,0.0,0.0,0.0,0.0,0.0,0.0,0.0,0.0,0.0,0.0,0.0,0.0,0.0,0.0,0.0,0.0,0.0,0.0,0.0,0.0,0.0,0.0,0.0,0.0,0.0,0.0,0.0,0.0,0.0,0.0,0.0,0.0,0.0,0.0,0.0,0.0,0.0,0.0,0.0,0.0,0.0,0.0,0.0,0.0,0.0,0.0,0.0,0.0,0.0,0.0,0.0,0.0,0.0,1.6411,1.6339,1.7169,1.6925,1.5638,1.3931,1.241,0.0,0.0,0.0,0.0,0.0,0.0,0.0,0.0,0.0,0.0,0.0,0.0,0.0,0.0,0.0,0.0,0.0,0.0,0.0,0.0,0.0,0.0,0.0,0.0,0.0,0.0,0.0,0.0,0.0,0.0,0.0,0.0,0.0,0.0,0.0,0.0,0.0,0.0,0.0,0.0,0.0,0.0,0.0,0.0,0.0,0.0,0.0,0.0,0.0,0.0,0.0,0.0,0.0,0.0,0.0,0.0,0.0,0.0,0.0,0.0,0.0,0.0,0.0,0.0,0.0,0.0,0.0,0.0,0.0,0.0,0.0,0.0,0.0,0.0,0.0,0.0,0.0,0.0,0.0,0.0,0.0,0.0,0.0,0.0,0.0,0.0,0.0,0.0,0.0,0.0,0.0,0.0,0.0,0.0,0.0,0.0,0.0,0.0,0.0,0.0,0.0,0.0,0.0,0.0,0.0,0.0,0.0,0.0,1.6157,1.6092,1.7372,1.7372,1.5921,1.4132,1.237,0.0,0.0,0.0,0.0,0.0,0.0,0.0,0.0,0.0,0.0,0.0,0.0,0.0,0.0,0.0,0.0,0.0,0.0,0.0,0.0,0.0,0.0,0.0,0.0,0.0,0.0,0.0,0.0,0.0,0.0,0.0,0.0,0.0,0.0,0.0,0.0,0.0,0.0,0.0,0.0,0.0,0.0,0.0,0.0,0.0,0.0,0.0,0.0,0.0,0.0,0.0,0.0,0.0,0.0,0.0,0.0,0.0,0.0,0.0,0.0,0.0,0.0,0.0,0.0,0.0,0.0,0.0,0.0,0.0,0.0,0.0,0.0,0.0,0.0,0.0,0.0,0.0,0.0,0.0,0.0,0.0,0.0,0.0,0.0,0.0,0.0,0.0,0.0,0.0,0.0,0.0,0.0,0.0,0.0,0.0,0.0,0.0,0.0,0.0,0.0,0.0,0.0,0.0,0.0,0.0,0.0,0.0,0.0,1.6065,1.6456,1.7202,1.7023,1.5943,1.3974,1.2402,0.0,0.0,0.0,0.0,0.0,0.0,0.0,0.0,0.0,0.0,0.0,0.0,0.0,0.0,0.0,0.0,0.0,0.0,0.0,0.0,0.0,0.0,0.0,0.0,0.0,0.0,0.0,0.0,0.0,0.0,0.0,0.0,0.0,0.0,0.0,0.0,0.0,0.0,0.0,0.0,0.0,0.0,0.0,0.0,0.0,0.0,0.0,0.0,-0.3106,0.0,0.0,0.0,0.0,0.0,0.0,0.0,0.0,0.0,0.0,0.0,0.0,0.0,0.0,0.0,0.0,0.0,0.0,0.0,0.0,0.0,0.0,0.0,0.0,0.0,0.0,0.0,0.0,0.0,0.0,0.0,0.0,0.0,0.0,0.0,0.0,0.0,0.0,0.0,0.0,0.0,0.0,0.0,0.0,0.0,0.0,0.0,0.0,0.0,0.0,0.0,0.0,0.0,0.0,0.0,0.0,0.0,0.0,0.0,1.5866,1.6514,1.719,1.6963,1.6047,1.4319,1.2582,0.0,0.0,0.0,0.0,0.0,0.0,0.0,0.0,0.0,0.0,0.0,0.0,0.0,0.0,0.0,0.0,0.0,0.0,0.0,0.0,0.0,0.0,0.0,0.0,0.0,0.0,0.0,0.0,0.0,0.0,0.0,0.0,0.0,0.0,0.0,0.0,0.0,0.0,0.0,0.0,0.0,0.0,0.0,0.0,0.0,0.0,0.0,0.0,0.0,0.0,0.0,0.0,0.0,0.0,0.0,0.0,0.0,0.0,0.0,0.0,0.0,0.0,0.0,0.0,0.0,0.0,0.0,0.0,0.0,0.0,0.0,0.0,0.0,0.0,0.0,0.0,0.0,0.0,0.0,0.0,0.0,0.0,0.0,0.0,0.0,0.0,0.0,0.0,0.0,0.0,0.0,0.0,0.0,0.0,0.0,0.0,0.0,0.0,0.0,0.0,0.0,0.0,0.0,0.0,0.0,0.0,0.0,1.5421,1.6009,1.6521,1.7159,1.7096,1.6189,1.4441,1.2681,1.0784,0.0,0.0,0.0,0.0,0.0,0.0,0.0,0.0,0.0,0.0,0.0,0.0,0.0,0.0,0.0,0.0,0.0,0.0,0.0,0.0,0.0,0.0,0.0,0.0,0.0,0.0,0.0,0.0,0.0,0.0,0.0,0.0,0.0,0.0,0.0,0.0,0.0,0.0,-0.6473,-0.7943,0.0,0.0,0.0,0.0,0.0,0.0,0.0,0.0,-0.8361,0.0,0.0,0.0,0.0,0.0,0.0,0.0,0.0,0.0,0.0,0.0,0.0,0.0,0.0,0.0,0.0,0.0,0.0,0.0,0.0,0.0,0.0,0.0,0.0,0.0,0.0,0.0,0.0,0.0,0.0,0.0,0.0,0.0,0.0,0.0,0.0,0.0,0.0,0.0,0.0,0.0,0.0,0.0,0.0,0.0,0.0,0.0,0.0,0.0,0.0,0.0,0.0,0.0,0.0,0.0,0.0,1.5289,1.6349,1.697,1.7298,1.7049,1.6741,1.6181,1.4263,1.2415,1.0859,0.0,0.0,0.0,0.0,0.0,0.0,0.0,0.0,0.0,0.0,0.0,0.0,0.0,0.0,0.0,0.0,0.0,0.0,0.0,0.0,0.0,0.0,0.0,0.0,0.0,0.0,0.0,0.0,0.0,0.0,0.0,0.0,0.0,0.0,0.0,0.0,0.0,0.0,0.0,-1.1515,-1.2099,0.0,0.0,0.0,0.0,0.0,0.0,0.0,0.0,-1.0728,0.0,0.0,0.0,0.0,0.0,0.0,0.0,0.0,0.0,0.0,0.0,0.0,0.0,0.0,0.0,0.0,0.0,0.0,0.0,0.0,0.0,0.0,0.0,0.0,0.0,0.0,0.0,0.0,0.0,0.0,0.0,0.0,0.0,0.0,0.0,0.0,0.0,0.0,0.0,0.0,0.0,0.0,0.0,0.0,0.0,0.0,0.0,0.0,0.0,0.0,0.0,0.0,0.0,0.0,0.0,1.5951,1.6451,1.6978,1.7166,1.7152,1.6461,1.5469,1.3905,1.2265,0.0,0.0,0.0,0.0,0.0,0.0,0.0,0.0,0.0,0.0,0.0,0.0,0.0,0.0,0.0,0.0,0.0,0.0,0.0,0.0,0.0,0.0,0.0,0.0,0.0,0.0,0.0,0.0,0.0,0.0,0.0,0.0,0.0,0.0,0.0,0.0,0.0,0.0,0.0,0.0,-1.413,-1.4915,-1.4289,0.0,0.0,0.0,0.0,0.0,0.0,-1.3929,-1.3641,0.0,0.0,0.0,0.0,0.0,0.0,0.0,0.0,0.0,0.0,0.0,0.0,0.0,0.0,0.0,0.0,0.0,0.0,0.0,0.0,0.0,0.0,0.0,0.0,0.0,0.0,0.0,0.0,0.0,0.0,0.0,0.0,0.0,0.0,0.0,0.0,0.0,0.0,0.0,0.0,0.0,0.0,0.0,0.0,0.0,0.0,0.0,0.0,0.0,0.0,0.0,0.0,0.0,0.0,0.0,1.6467,1.6769,1.7033,1.6931,1.7055,1.6323,1.4746,1.3368,1.1923,0.0,0.0,0.0,0.0,0.0,0.0,0.0,0.0,0.0,0.0,0.0,0.0,0.0,0.0,0.0,0.0,0.0,0.0,0.0,0.0,0.0,0.0,0.0,0.0,0.0,0.0,0.0,0.0,0.0,0.0,0.0,0.0,0.0,0.0,0.0,0.0,0.0,0.0,0.0,0.0,0.0,-1.7385,-1.7146,-1.7422,0.0,0.0,0.0,0.0,-1.7432,-1.686,0.0,0.0,0.0,0.0,0.0,0.0,0.0,0.0,0.0,0.0,0.0,0.0,0.0,0.0,0.0,0.0,0.0,0.0,0.0,0.0,0.0,0.0,0.0,0.0,0.0,0.0,0.0,0.0,0.0,0.0,0.0,0.0,0.0,0.0,0.0,0.0,0.0,0.0,0.0,0.0,0.0,0.0,0.0,0.0,0.0,0.0,0.0,0.0,0.0,0.0,0.0,0.0,0.0,0.0,0.0,0.0,1.7011,1.7657,1.7572,1.6946,1.6583,1.5847,1.474,1.2657,1.1052,0.0,0.0,0.0,0.0,0.0,0.0,0.0,0.0,0.0,0.0,0.0,0.0,0.0,0.0,0.0,0.0,0.0,0.0,0.0,0.0,0.0,0.0,0.0,0.0,0.0,0.0,0.0,0.0,0.0,0.0,0.0,0.0,0.0,0.0,0.0,0.0,0.0,0.0,0.0,0.0,0.0,-1.9702,-2.007,-2.1105,-2.147,0.0,0.0,-2.0947,-2.0693,-1.9851,0.0,0.0,0.0,0.0,0.0,0.0,0.0,0.0,0.0,0.0,0.0,0.0,0.0,0.0,0.0,0.0,0.0,0.0,0.0,0.0,0.0,0.0,0.0,0.0,0.0,0.0,0.0,0.0,0.0,0.0,0.0,0.0,0.0,0.0,0.0,0.0,0.0,0.0,0.0,0.0,0.0,0.0,0.0,0.0,0.0,0.0,0.0,0.0,0.0,0.0,0.0,0.0,0.0,0.0,0.0,1.6949,1.7433,1.7575,1.7389,1.6705,1.6147,1.5371,1.4003,1.2249,1.0838,0.0,0.0,0.0,0.0,0.0,0.0,0.0,0.0,0.0,0.0,0.0,0.0,0.0,0.0,0.0,0.0,0.0,0.0,0.0,0.0,0.0,0.0,0.0,0.0,0.0,0.0,0.0,0.0,0.0,0.0,0.0,0.0,0.0,0.0,0.0,0.0,0.0,0.0,0.0,0.0,0.0,0.0,-2.3067,-2.3746,0.0,0.0,0.0,-2.3557,-2.3191,0.0,0.0,0.0,0.0,0.0,0.0,0.0,0.0,0.0,0.0,0.0,0.0,0.0,0.0,0.0,0.0,0.0,0.0,0.0,0.0,0.0,0.0,0.0,0.0,0.0,0.0,0.0,0.0,0.0,0.0,0.0,0.0,0.0,0.0,0.0,0.0,0.0,0.0,0.0,0.0,0.0,0.0,0.0,0.0,0.0,0.0,0.0,0.0,0.0,0.0,0.0,0.0,0.0,0.0,0.0,0.0,0.0,1.778,1.7558,1.7104,1.6435,1.5881,1.4903,1.3327,1.1792,0.0,0.0,0.0,0.0,0.0,0.0,0.0,0.0,0.0,0.0,0.0,0.0,0.0,0.0,0.0,0.0,0.0,0.0,0.0,0.0,0.0,0.0,0.0,0.0,0.0,0.0,0.0,-0.941,0.0,0.0,0.0,0.0,0.0,0.0,0.0,0.0,0.0,0.0,0.0,0.0,0.0,0.0,-2.4106,-2.5432,-2.5859,-2.6165,0.0,0.0,-2.5958,-2.5506,-2.4672,-2.3967,0.0,0.0,0.0,0.0,0.0,0.0,0.0,0.0,0.0,0.0,0.0,0.0,0.0,0.0,0.0,0.0,0.0,0.0,0.0,0.0,0.0,0.0,0.0,0.0,0.0,0.0,0.0,0.0,0.0,0.0,0.0,0.0,0.0,0.0,0.0,0.0,0.0,0.0,0.0,0.0,0.0,0.0,0.0,0.0,0.0,0.0,0.0,0.0,0.0,0.0,0.0,0.0,0.0,0.0,0.0,1.7797,1.7435,1.6972,1.6442,1.5512,1.458,1.3462,1.1754,1.0575,0.0,0.0,0.0,0.0,0.0,0.0,0.0,0.0,0.0,0.0,0.0,0.0,0.0,0.0,0.0,0.0,0.0,0.0,0.0,0.0,0.0,0.0,0.0,0.0,0.0,0.0,0.0,0.0,0.0,0.0,0.0,0.0,0.0,0.0,0.0,0.0,0.0,0.0,0.0,0.0,0.0,-2.5687,-2.6866,-2.7946,-2.838,0.0,0.0,-2.8289,-2.7254,-2.629,-2.5675,-2.5275,0.0,0.0,0.0,0.0,0.0,0.0,0.0,0.0,0.0,0.0,0.0,0.0,0.0,0.0,0.0,0.0,0.0,0.0,0.0,0.0,0.0,0.0,0.0,0.0,0.0,0.0,0.0,0.0,0.0,0.0,0.0,0.0,0.0,0.0,0.0,0.0,0.0,0.0,0.0,0.0,0.0,0.0,0.0,0.0,0.0,0.0,0.0,0.0,0.0,0.0,0.0,0.0,0.0,1.7002,1.7772,1.7172,1.6494,1.5927,1.518,1.4191,1.2784,1.1558,1.024,0.0,0.0,0.0,0.0,0.0,0.0,0.0,0.0,0.0,0.0,0.0,0.0,0.0,0.0,0.0,0.0,0.0,0.0,0.0,0.0,0.0,0.0,0.0,0.0,0.0,0.0,0.0,0.0,-1.738,-1.7852,-1.8331,0.0,0.0,0.0,0.0,0.0,0.0,0.0,0.0,0.0,0.0,-2.6852,-2.822,-2.8868,0.0,0.0,-2.9689,-2.9392,-2.8802,-2.7939,-2.7337,-2.6548,-2.5849,0.0,0.0,0.0,0.0,0.0,0.0,0.0,0.0,0.0,0.0,0.0,0.0,0.0,0.0,0.0,0.0,0.0,0.0,0.0,0.0,0.0,0.0,0.0,0.0,0.0,0.0,0.0,0.0,0.0,0.0,0.0,0.0,0.0,0.0,0.0,0.0,0.0,0.0,0.0,0.0,0.0,0.0,0.0,0.0,0.0,0.0,0.0,0.0,0.0,0.0,0.0,0.0,1.6968,1.7419,1.6763,1.6053,1.5689,1.4964,1.375,1.246,1.1264,0.9949,0.0,0.0,0.0,0.0,0.0,0.0,0.0,0.0,0.0,0.0,0.0,0.0,0.0,0.0,0.0,0.0,0.0,0.0,0.0,0.0,0.0,0.0,0.0,0.0,0.0,0.0,0.0,0.0,-1.9908,-2.0266,-2.0358,0.0,0.0,0.0,0.0,0.0,0.0,0.0,0.0,0.0,0.0,-2.8283,-2.9515,-2.9988,-3.0272,-3.0918,-3.0836,-3.0629,-3.0082,-2.9499,-2.8843,-2.8248,0.0,0.0,0.0,0.0,0.0,0.0,0.0,0.0,0.0,0.0,0.0,0.0,0.0,0.0,0.0,0.0,0.0,0.0,0.0,0.0,0.0,0.0,0.0,0.0,0.0,0.0,0.0,0.0,0.0,0.0,3.8491,0.0,0.0,0.0,0.0,0.0,0.0,0.0,0.0,0.0,0.0,0.0,0.0,0.0,0.0,0.0,0.0,0.0,0.0,0.0,0.0,0.0,0.0,1.692,1.6658,1.5994,1.5839,1.5656,1.4409,1.3223,1.2705,1.1021,0.9658,0.8255,0.0,0.0,0.0,0.0,0.0,0.0,0.0,0.0,0.0,0.0,0.0,0.0,0.0,0.0,0.0,0.0,0.0,0.0,0.0,0.0,0.0,0.0,0.0,0.0,0.0,0.0,-2.215,-2.2236,-2.2095,0.0,0.0,0.0,0.0,0.0,0.0,0.0,0.0,0.0,0.0,-2.8329,-2.9762,-3.1161,-3.1457,-3.151,-3.1791,-3.1987,-3.1958,-3.1151,-3.0751,-3.0293,0.0,0.0,0.0,0.0,0.0,0.0,0.0,0.0,0.0,0.0,0.0,0.0,0.0,0.0,0.0,0.0,0.0,0.0,0.0,0.0,0.0,0.0,0.0,0.0,0.0,0.0,0.0,4.8257,4.5998,0.0,0.0,0.0,0.0,0.0,0.0,0.0,0.0,0.0,0.0,0.0,2.1728,2.1392,0.0,0.0,0.0,0.0,0.0,0.0,0.0,0.0,0.0,0.0,0.0,0.0,1.5838,1.5834,1.4845,1.4265,1.3971,1.3267,1.2099,1.0875,1.0284,0.8619,0.5826,0.0,0.0,0.0,0.0,0.0,0.0,0.0,0.0,0.0,0.0,0.0,0.0,0.0,0.0,0.0,0.0,0.0,0.0,0.0,0.0,0.0,0.0,0.0,0.0,0.0,-2.442,0.0,0.0,0.0,0.0,0.0,0.0,0.0,0.0,0.0,0.0,0.0,-2.7513,-2.8606,-2.9575,-3.0671,-3.1507,-3.1713,-3.2133,0.0,0.0,0.0,0.0,0.0,0.0,0.0,0.0,0.0,0.0,0.0,0.0,0.0,0.0,-2.7184,-2.6875,-2.6799,-2.6921,-2.7038,0.0,0.0,0.0,0.0,0.0,0.0,0.0,0.0,0.0,0.0,0.0,0.0,0.0,0.0,0.0,0.0,4.5651,0.0,0.0,0.0,0.0,0.0,0.0,0.0,0.0,2.4339,2.4182,2.3926,2.3487,2.2738,0.0,1.9902,1.8154,0.0,0.0,0.0,0.0,0.0,0.0,0.0,0.0,1.4957,1.4655,1.3592,1.2742,1.2364,1.1885,1.0913,0.9446,0.8389,0.6341,0.3628,0.1694,-0.0727,0.0,0.0,0.0,0.0,0.0,0.0,0.0,0.0,0.0,0.0,0.0,0.0,0.0,0.0,0.0,0.0,0.0,0.0,0.0,0.0,0.0,0.0,0.0,-2.7002,0.0,0.0,0.0,0.0,0.0,0.0,0.0,0.0,0.0,-2.7153,-2.8131,-2.9391,-3.0251,-3.1052,-3.1961,-3.2587,0.0,0.0,0.0,0.0,0.0,0.0,0.0,-3.4831,-3.4622,-3.4859,-3.5097,-3.4342,-3.3189,-3.231,-3.1897,0.0,0.0,-2.8668,-2.8163,-2.8123,-2.8417,-2.8493,-2.8528,-2.8865,-2.9198,-2.9506,0.0,0.0,0.0,0.0,0.0,0.0,0.0,0.0,5.7598,5.5149,0.0,4.8922,0.0,0.0,0.0,0.0,0.0,2.8491,0.0,0.0,2.9077,2.8776,2.6912,2.6449,2.532,2.3881,2.13,1.9535,1.8731,1.6917,0.0,0.0,0.0,0.0,0.0,0.0,1.3884,1.2637,1.1953,1.1208,1.067,1.0232,0.9439,0.8286,0.5551,0.3202,0.1571,-0.0385,-0.2977,-0.5657,-0.7765,0.0,0.0,0.0,0.0,0.0,0.0,0.0,0.0,0.0,0.0,0.0,0.0,0.0,0.0,0.0,0.0,0.0,0.0,0.0,0.0,-2.8373,0.0,0.0,0.0,0.0,0.0,0.0,0.0,0.0,0.0,0.0,-2.9471,-3.0276,-3.1312,-3.2158,0.0,0.0,0.0,0.0,-3.5033,-3.5889,-3.6352,-3.6692,-3.6905,-3.6943,-3.7127,-3.7468,0.0,0.0,-3.6448,-3.5319,-3.4483,-3.4212,-3.3343,-3.2223,-3.0191,-2.9783,-2.9633,-2.99,-3.0285,-3.0657,-3.067,-3.1,-3.1207,7.4182,0.0,0.0,0.0,0.0,6.675,6.5755,6.421,6.2451,6.0303,5.7715,5.359,0.0,0.0,0.0,0.0,0.0,0.0,3.2085,3.2901,3.2954,3.295,3.3314,3.2351,3.0956,2.928,2.65,2.431,2.2501,1.9497,1.7624,1.6849,0.0,0.0,0.0,0.0,1.103,0.9557,0.8286,0.7518,0.7312,0.6932,0.6045,0.4894,0.2914,0.1019,-0.0601,-0.2926,-0.5483,-0.8197,-1.0687,0.0,0.0,0.0,0.0,0.0,0.0,0.0,0.0,0.0,0.0,0.0,0.0,0.0,0.0,0.0,0.0,0.0,0.0,0.0,-3.2527,-3.2219,-3.2046,0.0,0.0,0.0,0.0,0.0,0.0,0.0,0.0,0.0,-3.5146,-3.4518,-3.4095,0.0,0.0,-3.5744,-3.6131,-3.6418,-3.682,-3.7354,-3.7792,0.0,-3.8284,-3.8374,-3.8661,-3.8909,-3.8526,-3.8115,-3.7648,-3.7009,-3.6193,-3.5507,-3.4743,-3.4032,-3.3133,-3.1786,-3.1129,-3.1156,-3.1356,-3.1529,-3.1902,-3.2088,-3.2101,7.9874,7.6531,7.4553,7.3295,7.2559,7.2087,7.0965,6.9358,6.743,6.4996,6.2147,5.877,5.5141,5.1157,4.6505,0.0,0.0,0.0,3.8472,4.0192,3.9549,3.9422,3.9824,3.8398,3.6602,3.4449,3.1445,2.8445,2.544,2.1154,1.7811,1.5512,0.0,0.0,0.9882,0.8161,0.646,0.4725,0.3709,0.3509,0.349,0.3517,0.306,0.1927,0.0422,-0.1451,-0.3243,-0.5537,-0.8273,-1.1006,-1.381,-1.6199,0.0,0.0,0.0,0.0,0.0,0.0,0.0,0.0,0.0,0.0,0.0,-2.5382,-2.627,0.0,0.0,0.0,-3.1601,-3.376,-3.5416,-3.5003,0.0,0.0,0.0,0.0,0.0,0.0,0.0,-3.6459,-3.7024,-3.7802,-3.899,-3.8298,-3.7365,-3.6747,-3.7208,-3.7647,-3.7775,0.0,-3.835,-3.886,-3.9174,-3.9506,-3.9822,-3.9975,-4.0088,-4.0056,-3.9456,-3.8814,-3.8565,-3.8179,-3.7373,-3.655,-3.5942,-3.5549,-3.4748,-3.3735,-3.2893,-3.2465,-3.2358,-3.2552,-3.2746,-3.2732,-3.2939,8.5242,8.5014,8.1957,7.9676,7.8116,7.7641,7.6439,7.4633,7.2533,6.9541,6.6152,6.4311,6.0357,5.4678,4.935,0.0,4.6037,4.5629,4.6496,4.8265,4.7879,4.7462,4.6785,4.4542,4.2084,3.9334,3.5605,3.1978,2.8037,2.2352,1.6917,1.2232,0.9936,0.7283,0.4249,0.2341,0.0433,-0.1563,-0.1353,-0.1121,-0.0658,0.0,0.0,-0.0648,-0.2138,-0.399,-0.5935,-0.8417,-1.1153,-1.387,-1.6575,-1.9247,-2.1455,0.0,0.0,0.0,0.0,0.0,0.0,0.0,0.0,0.0,0.0,0.0,0.0,0.0,0.0,0.0,-3.4946,0.0,-3.6744,-3.6805,0.0,0.0,0.0,-3.6011,-3.5848,-3.6186,-3.7193,-3.9095,0.0,0.0,-4.1405,-4.1506,-4.0709,-3.8678,-3.8777,-3.8927,-3.9486,-3.9458,-3.9607,-4.0141,-4.032,-4.0495,-4.1157,-4.1398,-4.1131,-4.0753,-3.9592,-3.909,-3.9137,-3.9004,-3.8185,-3.732,-3.7138,-3.6705,-3.568,-3.5375,-3.5133,-3.4031,-3.3789,-3.3547,-3.3762,-3.3762,-3.3748,8.8518,8.8577,8.7733,8.5511,8.2444,8.1694,8.0589,7.9179,7.7192,7.5106,7.3039,7.1016,6.7275,6.2392,5.8936,5.7057,5.612,5.4852,5.5032,5.6062,5.4689,5.3661,5.305,5.0222,4.7147,4.3925,3.9698,3.498,3.0052,2.319,1.479,0.5229,0.0225,-0.2455,-0.3088,-0.5769,-0.8054,-1.0394,-0.981,-0.8198,-0.4948,-0.4262,-0.444,-0.5225,-0.639,-0.7944,-1.0099,-1.2053,-1.4304,-1.6474,-1.9367,-2.1891,-2.4141,-2.5803,0.0,0.0,0.0,0.0,0.0,0.0,0.0,0.0,0.0,-3.073,-3.2146,0.0,-3.3705,0.0,-3.649,-3.7655,-3.8372,-3.8732,0.0,0.0,-3.8993,-3.9184,-3.9339,-3.9513,-4.0088,-4.1638,-4.1942,-4.2494,-4.2987,-4.2767,-4.2227,-4.2008,-4.128,-4.0828,-4.1016,-4.0751,-4.0809,-4.0958,-4.1453,-4.1882,-4.2047,-4.1988,-4.1786,-4.093,-4.0197,-3.9806,-3.9472,-3.9275,-3.9063,-3.8425,-3.8212,-3.7999,-3.7359,-3.7131,-3.7062,-3.673,-3.6119,-3.5595,-3.601,-3.5996,-3.5996,9.1293,9.1357,9.1017,8.9578,8.7494,8.5993,8.4616,8.3441,8.1968,8.0279,7.8545,7.6128,7.3208,6.9913,6.7637,6.6072,6.5131,6.3287,6.2646,6.2978,6.1156,5.9543,5.8278,5.5026,5.1601,4.7941,4.33,3.7971,3.2195,2.3954,1.4675,0.4434,-0.3279,-0.8876,-1.2479,-1.4776,-1.6862,-1.8518,-1.6028,-1.2714,-0.8659,-0.7654,-0.7765,-0.8729,-0.9427,-1.0936,-1.3227,-1.5125,-1.6984,-1.9229,-2.232,-2.4922,-2.7017,-2.9294,-3.0691,0.0,0.0,0.0,0.0,0.0,0.0,0.0,0.0,0.0,0.0,0.0,-3.5921,-3.7487,-3.8683,-3.9599,-4.0151,-4.0416,-4.0485,-4.0497,-4.0481,-4.0703,-4.072,-4.1016,-4.1408,-4.2359,-4.2863,-4.3175,-4.3607,-4.3232,-4.3231,-4.3407,-4.2791,-4.2163,-4.2211,-4.2146,-4.1915,-4.2095,-4.2254,-4.2425,-4.27,-4.2437,-4.1891,-4.1546,-4.1099,-4.0631,-4.0343,-4.0373,-4.0154,-3.9703,-3.9485,-3.9223,-3.8645,-3.8398,-3.8356,-3.8391,-3.8138,-3.7615,-3.7335,-3.7265,-3.7265,9.3742,9.3827,9.3188,9.2885,9.2617,9.0512,8.8791,8.7311,8.632,8.49,8.3046,8.0588,7.8635,7.7151,7.554,7.4092,7.2872,7.0948,6.9669,6.9279,6.7191,6.5039,6.2654,5.9398,5.5586,5.164,4.6324,4.0573,3.4076,2.4934,1.5497,0.6223,-0.3598,-1.3003,-2.1533,-2.3497,-2.478,-2.5436,-2.0314,-1.5657,-1.1957,-1.0371,-1.0416,-1.1795,-1.2307,-1.3774,-1.6101,-1.8006,-1.9911,-2.1854,-2.5263,-2.8161,-3.0119,-3.2832,-3.4454,0.0,-3.5887,0.0,0.0,0.0,0.0,0.0,0.0,0.0,0.0,-3.7439,-3.7998,-3.9548,-4.0782,-4.1482,-4.168,-4.1679,-4.1662,-4.1096,-4.1257,-4.149,-4.1156,-4.1522,-4.213,-4.277,-4.2974,-4.3219,-4.3909,-4.3786,-4.3691,-4.4036,-4.367,-4.3332,-4.355,-4.3149,-4.2738,-4.3125,-4.2821,-4.3108,-4.3406,-4.2741,-4.2327,-4.2629,-4.1841,-4.1355,-4.1547,-4.1382,-4.1188,-4.0725,-4.0682,-4.0387,-3.9712,-3.9656,-3.9793,-3.9977,-4.0066,-3.9617,-3.8481,-3.8339,-3.811,9.6233,9.6399,9.6475,9.6451,9.6257,9.5809,9.352,9.0056,8.9135,8.8055,8.6719,8.5476,8.421,8.3113,8.1442,7.9955,7.8407,7.6646,7.5352,7.4658,7.1644,6.9245,6.7222,6.2892,5.8572,5.4147,4.8443,4.2334,3.5792,2.6446,1.5845,0.3907,-0.4423,-1.4046,-2.4411,0.0,0.0,0.0,-2.2162,-1.7543,-1.5166,-1.3578,-1.3523,-1.4954,-1.6331,0.0,-1.9565,-2.1389,-2.3043,-2.4939,-2.8029,0.0,0.0,0.0,0.0,0.0,0.0,0.0,0.0,0.0,0.0,0.0,-4.1637,-4.1034,-4.0454,-4.1152,-4.1353,-4.0731,-4.1544,-4.1883,-4.1663,-4.1929,-4.2211,-4.2377,-4.274,-4.2972,-4.2988,-4.3132,-4.3714,-4.4012,-4.4424,-4.4804,-4.5052,-4.4777,-4.4728,-4.4806,-4.4505,-4.4385,-4.4746,-4.3826,-4.3475,-4.3795,-4.3819,-4.4201,-4.4614,-4.4004,-4.3565,-4.3766,-4.2896,-4.2274,-4.2126,-4.1694,-4.1455,-4.1246,-4.1231,-4.1217,-4.113,-4.1338,-4.1755,-4.171,-4.1916,-4.1617,-4.0373,-4.0067,-4.0082,9.8196,0.0,9.7741,9.7465,0.0,9.7503,9.6166,9.4029,9.3014,9.173,9.0201,8.9507,8.8708,8.7655,8.6118,8.4796,8.3432,8.1553,7.9744,7.8111,7.53,7.2657,6.9995,6.5584,6.1165,5.658,5.0644,4.4278,3.7255,2.825,1.8021,0.7177,-0.1243,-0.9958,-1.9163,-2.4147,-2.7381,-2.877,-2.4423,-2.0855,-1.8046,-1.6807,-1.6939,-1.8608,-1.9578,0.0,0.0,0.0,0.0,0.0,0.0,0.0,0.0,-3.817,0.0,-4.1191,-4.2329,-4.317,-4.3523,-4.4023,-4.4394,-4.4568,-4.4679,-4.3977,-4.2289,-4.3199,-4.3357,-4.22,-4.2758,-4.2988,-4.27,-4.2945,-4.3067,-4.3364,-4.3607,-4.3721,-4.3753,-4.4045,-4.432,-4.4515,-4.4839,-4.513,-4.5292,-4.5091,-4.4954,-4.5115,-4.5163,-4.5291,-4.5548,-4.4864,-4.4264,-4.4423,-4.4582,-4.4852,-4.5154,-4.479,-4.4423,-4.4324,-4.3938,-4.3263,-4.3263,-4.3038,-4.2828,-4.2828,-4.2828,-4.2783,-4.2603,-4.2798,-4.2961,-4.281,-4.2866,-4.2623,-4.1662,-4.1452,-4.1348,9.9895,9.9916,9.869,9.825,9.84,9.8247,9.8022,9.7658,0.0,0.0,0.0,9.2992,9.2303,9.1189,8.9905,8.8834,8.7689,8.5681,8.3492,8.1019,7.8362,7.5273,7.1857,6.7614,6.3192,5.8545,5.2575,4.5719,3.8453,2.9784,2.0964,1.2029,0.3514,-0.477,-1.3045,-1.9789,-2.4367,-2.6481,-2.5351,-2.3122,-2.0328,-1.9507,-2.0097,-2.1735,-2.2604,-2.3945,-2.5882,-2.7068,-2.8445,-3.0404,-3.3698,-3.6386,-3.7861,-4.1001,-4.3122,-4.3921,-4.5154,-4.6036,-4.623,-4.6579,-4.6777,-4.6722,-4.7026,-4.609,-4.3772,-4.4631,-4.4689,-4.3556,-4.3992,-4.4267,-4.3948,-4.3818,-4.3863,-4.4058,-4.4121,-4.4137,-4.4217,-4.4534,-4.4773,-4.4868,-4.5154,-4.5329,-4.5281,-4.5503,-4.5455,-4.5391,-4.5865,-4.6355,-4.6377,-4.5994,-4.558,-4.5612,-4.5644,-4.5724,-4.5726,-4.5599,-4.5277,-4.5692,-4.5093,-4.4444,-4.4459,-4.4459,-4.4217,-4.3944,-4.4217,-4.4095,-4.3866,-4.403,-4.3938,-4.39,-4.4014,-4.389,-4.3596,-4.3208,-4.2728,10.1653,10.1712,10.1149,10.1027,10.11,10.0326,9.9784,9.9325,9.7604,9.6274,9.5503,9.564,9.4947,9.37,9.3054,9.2019,9.0571,8.8185,8.6047,8.3843,8.0307,7.6797,7.3547,6.8305,6.3729,5.8938,5.2391,4.5873,3.927,3.1682,2.3832,1.5539,0.7912,-0.2035,-1.3421,-1.8467,-2.1662,-2.3474,-2.2577,-2.2142,-2.2157,-2.1247,-2.1533,-2.3649,-2.5298,-2.6847,-2.849,-3.0326,-3.211,-3.4071,-3.6632,-3.8884,-4.077,-4.3019,-4.467,-4.6094,-4.6781,-4.75,-4.8418,-4.8581,-4.8604,-4.8915,-4.9139,-4.8152,-4.5469,-4.5949,-4.5962,-4.5224,-4.504,-4.4956,-4.5017,-4.4682,-4.4641,-4.4773,-4.4836,-4.4947,-4.5249,-4.5583,-4.5901,-4.6171,-4.6568,-4.66,-4.6557,-4.6751,-4.6849,-4.6847,-4.7132,-4.7453,-4.7693,-4.7486,-4.747,-4.7453,-4.7453,-4.7486,-4.7263,-4.7312,-4.7088,-4.7377,-4.6479,-4.5802,-4.5802,-4.5124,-4.4444,-4.4217,-4.4444,-4.4413,-4.4352,-4.5062,-4.545,-4.5565,-4.6045,-4.6502,-4.6388,-4.59,-4.493,10.2673,10.281,10.2447,10.2408,10.2514,10.2085,10.1748,10.1509,10.0388,9.9041,9.7731,9.772,9.7232,9.621,9.5017,9.3793,9.2548,9.0247,8.7861,8.5215,8.171,7.8173,7.4597,6.9372,6.446,5.9836,5.3305,4.6447,3.98,3.2601,2.4939,1.6629,0.6405,-0.3331,-1.1756,-1.5834,-1.9115,-2.2087,-2.2704,-2.322,-2.3901,-2.3795,-2.4606,-2.6549,-2.8276,-2.9899,-3.1603,-3.3387,-3.5244,-3.7073,-3.9321,-4.14,-4.2873,-4.5025,-4.6604,-4.7958,-4.8727,-4.9683,-5.0633,-5.0659,-5.0781,-5.0823,-5.0991,-5.0474,-4.8909,-4.8574,-4.7906,-4.6607,-4.6711,-4.6855,-4.6517,-4.6306,-4.6345,-4.6254,-4.6446,-4.6623,-4.6314,-4.6473,-4.6876,-4.7281,-4.7425,-4.7703,-4.7787,-4.8228,-4.8097,-4.7737,-4.7974,-4.8495,-4.9163,-4.9163,-4.8958,-4.8065,-4.7842,-4.7842,-4.7842,-4.7842,-4.7842,-4.7842,-4.7393,-4.6928,-4.6944,-4.6495,-4.6253,-4.6253,-4.6028,-4.6253,-4.6253,-4.6479,-4.6928,-4.6928,-4.7279,-4.7544,-4.728,-4.6921,-4.6108,10.3584,10.3794,10.3388,10.3278,10.3359,10.3267,10.3173,10.3077,10.2775,10.1712,10.0169,9.972,9.9057,9.818,9.6557,9.528,9.3957,9.1795,8.9181,8.6178,8.2771,7.9155,7.5129,7.0039,6.5052,6.0177,5.3693,4.701,3.9973,3.2924,2.4705,1.5357,0.4106,-0.4374,-0.9772,-1.3628,-1.7483,-2.1583,-2.3622,-2.4872,-2.5389,-2.6403,-2.7808,-2.9569,-3.121,-3.2972,-3.5004,-3.6887,-3.8574,-4.0193,-4.2204,-4.4101,-4.5397,-4.719,-4.8818,-5.0034,-5.093,-5.1816,-5.2752,-5.2817,-5.2916,-5.2936,-5.3227,-5.3061,-5.2647,-5.1891,-5.048,-4.8646,-4.8686,-4.8769,-4.8331,-4.8205,-4.8089,-4.8015,-4.8064,-4.7965,-4.7618,-4.765,-4.7913,-4.8422,-4.8455,-4.8685,-4.9063,-4.9276,-4.9305,-4.9081,-4.9161,-4.9608,-5.0493,-5.0714,-5.0051,-4.9163,-4.8495,-4.8718,-4.8718,-4.8718,-4.8718,-4.8718,-4.8495,-4.8495,-4.8495,-4.8272,-4.8272,-4.8049,-4.8049,-4.8049,-4.8272,-4.8272,-4.8495,-4.8495,-4.8685,-4.855,-4.8282,-4.8043,-4.7235,10.4553,10.4812,10.438,10.3956,10.3569,10.3569,10.3397,10.324,10.3655,10.3428,10.2576,10.1583,10.0367,9.8937,9.7943,9.6624,9.5006,9.2413,8.9857,8.7187,8.3622,7.9493,7.5129,6.9889,6.481,5.9696,5.3138,4.665,3.996,3.271,2.2709,1.078,0.3086,-0.3087,-0.8229,-1.3107,-1.7518,-2.1754,-2.5033,-2.6877,-2.7027,-2.8284,-2.9754,-3.2157,-3.4003,-3.5982,-3.8193,-4.025,-4.2186,-4.3611,-4.5476,-4.7289,-4.8612,-4.9828,-5.15,-5.3324,-5.3398,-5.3427,-5.4103,-5.4984,-5.5447,-5.5326,-5.5658,-5.576,-5.578,-5.5488,-5.4242,-5.2105,-5.0865,-5.0802,-5.0619,-4.9863,-4.9357,-4.9677,-4.9389,-4.9047,-4.9327,-4.9393,-4.9525,-4.9856,-4.9806,-4.9773,-4.9922,-5.0035,-5.0453,-5.0759,-5.0737,-5.1138,-5.1375,-5.1375,-5.1595,-5.1155,-5.1138,-5.0917,-5.0935,-5.0935,-5.0714,-5.0697,-5.0476,-5.0255,-5.0034,-4.9591,-4.9386,-4.9386,-4.9386,-4.9386,-4.9608,-4.9812,-5.0255,-5.0017,-5.0406,-5.0689,-5.0038,-4.9919,-4.9156,10.4723,10.511,10.5178,10.525,10.5287,10.5287,10.5204,10.507,10.5065,10.4786,10.4211,10.3377,10.2018,10.036,9.9021,9.7525,9.589,9.3557,9.0798,8.7877,8.4215,8.011,7.5584,7.0058,6.4855,5.9747,5.3191,4.6552,3.8922,2.8617,1.7904,0.8987,0.2571,-0.36,-0.9262,-1.3935,-1.8369,-2.3048,-2.6211,-2.8739,-3.0846,-3.1641,-3.288,-3.4832,-3.7077,-3.9242,-4.1553,-4.3695,-4.5765,-4.723,-4.8857,-5.0219,-5.1539,-5.2586,-5.3916,-5.5552,-5.6639,-5.7065,-5.7303,-5.8037,-5.8426,-5.8426,-5.8785,-5.8953,-5.8562,-5.8744,-5.7962,-5.625,-5.4326,-5.2999,-5.247,-5.1996,-5.1677,-5.1418,-5.1326,-5.121,-5.0884,-5.0918,-5.0985,-5.1585,-5.1602,-5.18,-5.1808,-5.1675,-5.1766,-5.1796,-5.1987,-5.2034,-5.2235,-5.2673,-5.3109,-5.3345,-5.3563,-5.2909,-5.1797,-5.1375,-5.1375,-5.1375,-5.1138,-5.1138,-5.1138,-5.0917,-5.0697,-5.0697,-5.0697,-5.0714,-5.0697,-5.0697,-5.1138,-5.1085,-5.1092,-5.126,-5.0724,-5.1077,-5.0679,10.4874,10.5306,10.5754,10.6203,10.6565,10.6526,10.6526,10.6367,10.6112,10.5706,10.5216,10.4571,10.338,10.177,9.9998,9.822,9.6433,9.4328,9.1461,8.8089,8.4763,8.0612,7.5905,7.0422,6.5152,5.967,5.3197,4.5226,3.6152,2.4516,1.4828,0.7959,0.2057,-0.4114,-1.0035,-1.4748,-1.9722,-2.4397,-2.7647,-3.1096,-3.4437,-3.6068,-3.707,-3.7975,-4.0199,-4.2629,-4.4801,-4.7178,-4.903,-5.0374,-5.1925,-5.3274,-5.4496,-5.5379,-5.6314,-5.7965,-5.9586,-6.0336,-6.0431,-6.0921,-6.1166,-6.141,-6.18,-6.1856,-6.1512,-6.1563,-6.1341,-6.0302,-5.8414,-5.6504,-5.4637,-5.4228,-5.395,-5.3552,-5.3675,-5.3309,-5.2955,-5.2759,-5.2973,-5.3451,-5.3451,-5.3681,-5.405,-5.3722,-5.3202,-5.3335,-5.3164,-5.3109,-5.3544,-5.3997,-5.4431,-5.4882,-5.4882,-5.4214,-5.2691,-5.2454,-5.2253,-5.2253,-5.2472,-5.2472,-5.2454,-5.2472,-5.2454,-5.2673,-5.2472,-5.2472,-5.2691,-5.2472,-5.2363,-5.2255,-5.2254,-5.2087,-5.1788,-5.2128,-5.2021,10.504,10.546,10.6112,10.6487,10.6678,10.6678,10.6641,10.6565,10.6407,10.6074,10.5495,10.5072,10.4199,10.2893,10.0838,9.8727,9.6694,9.4447,9.1594,8.8436,8.4993,8.0726,7.5649,7.0675,6.5289,5.9475,5.3106,4.2657,2.9451,2.1756,1.4511,0.7192,0.1799,-0.4114,-1.0292,-1.6029,-2.1298,-2.6066,-3.0407,-3.448,-3.8497,-4.1301,-4.2014,-4.1791,-4.3677,-4.6299,-4.8648,-5.0705,-5.2193,-5.3574,-5.5097,-5.6439,-5.7676,-5.8344,-5.942,-6.0606,-6.1908,-6.2521,-6.257,-6.3057,-6.3479,-6.3902,-6.446,-6.4572,-6.4505,-6.4572,-6.4211,-6.3193,-6.2784,-6.1261,-5.8473,-5.6932,-5.6229,-5.6416,-5.5954,-5.5522,-5.5438,-5.521,-5.5283,-5.5511,-5.5511,-5.5475,-5.5456,-5.5264,-5.5042,-5.5041,-5.4938,-5.4863,-5.4863,-5.4882,-5.5098,-5.5098,-5.5098,-5.4882,-5.4666,-5.4431,-5.4449,-5.4449,-5.4214,-5.4647,-5.4666,-5.4666,-5.4666,-5.4647,-5.4431,-5.4431,-5.4666,-5.4553,-5.4383,-5.3998,-5.3987,-5.359,-5.3062,-5.3083,-5.2987,10.5918,10.6074,10.6526,10.6747,10.6817,10.6989,10.6989,10.689,10.6714,10.6449,10.5997,10.5495,10.4685,10.3663,10.2277,10.0312,9.7739,9.5453,9.2781,8.9521,8.5934,8.1846,7.7284,7.2276,6.6499,6.0484,5.4109,4.3695,2.9916,2.2159,1.4705,0.7394,0.1283,-0.5141,-1.1835,-1.7639,-2.3192,-2.868,-3.2847,-3.6942,-4.1619,-4.4403,-4.6517,-4.8263,-4.8551,-4.9784,-5.2218,-5.4064,-5.5443,-5.6354,-5.8256,-5.9598,-6.0565,-6.2233,-6.3391,-6.3865,-6.4975,-6.5529,-6.5767,-6.6453,-6.6964,-6.7161,-6.7498,-6.7592,-6.7417,-6.7417,-6.7021,-6.6401,-6.6002,-6.4886,-6.339,-6.0761,-5.8988,-5.8858,-5.809,-5.7763,-5.7687,-5.7579,-5.7451,-5.768,-5.7756,-5.7661,-5.7356,-5.71,-5.6879,-5.6571,-5.6503,-5.6426,-5.6582,-5.6796,-5.7009,-5.7009,-5.7009,-5.7009,-5.7009,-5.5939,-5.551,-5.551,-5.551,-5.5725,-5.5939,-5.5959,-5.5939,-5.592,-5.592,-5.5823,-5.5765,-5.5553,-5.5379,-5.5012,-5.48,-5.4778,-5.45,-5.4286,-5.4258,10.6575,10.6526,10.6778,10.6944,10.7045,10.7192,10.7259,10.7174,10.6982,10.6744,10.6411,10.5959,10.5155,10.4078,10.3045,10.1202,9.865,9.652,9.3858,9.0683,8.7213,8.3199,7.8485,7.3582,6.7917,6.1123,5.2916,4.2532,3.1057,2.3212,1.5608,0.7618,0.1277,-0.5637,-1.2595,-1.8711,-2.4532,-3.0251,-3.497,-3.9323,-4.4138,-4.7381,-5.0357,-5.3491,-5.3752,-5.4229,-5.566,-5.7408,-5.8862,-5.9682,-6.1402,-6.2555,-6.3655,-6.5632,-6.678,-6.6801,-6.772,-6.845,-6.8646,-6.9404,-6.9962,-7.0325,-7.0371,-7.0465,-7.0273,-7.0127,-6.9646,-6.9238,-6.8826,-6.8486,-6.7405,-6.5133,-6.3054,-6.1789,-6.0837,-6.0353,-6.0348,-5.9994,-5.9777,-5.9896,-6.0135,-5.9996,-5.9618,-5.92,-5.8762,-5.8324,-5.8332,-5.8284,-5.8264,-5.8475,-5.8897,-5.8897,-5.8686,-5.8686,-5.8686,-5.8032,-5.7202,-5.7222,-5.7009,-5.7222,-5.7202,-5.7202,-5.7183,-5.7183,-5.7084,-5.6965,-5.6768,-5.632,-5.6195,-5.578,-5.5602,-5.5631,-5.5498,-5.5443,-5.5506,10.7014,10.683,10.6912,10.7202,10.7391,10.7416,10.7377,10.7352,10.7209,10.7028,10.684,10.6449,10.5492,10.41,10.3226,10.148,9.9379,9.7502,9.479,9.1581,8.8475,8.4508,7.9467,7.5008,6.9004,6.1864,4.9186,3.938,3.2207,2.4628,1.6952,0.9102,0.2285,-0.4846,-1.2319,-1.8687,-2.5304,-3.1016,-3.65,-4.1593,-4.687,-5.0341,-5.3767,-5.7401,-5.924,-5.9908,-5.9222,-6.096,-6.2125,-6.2897,-6.4221,-6.5737,-6.7006,-6.8624,-6.9373,-6.9102,-6.9935,-7.0615,-7.1167,-7.1716,-7.2451,-7.2891,-7.2885,-7.2817,-7.2874,-7.2517,-7.2054,-7.1763,-7.1696,-7.1387,-7.0948,-6.9984,-6.793,-6.4583,-6.387,-6.3444,-6.2993,-6.2338,-6.208,-6.2109,-6.2265,-6.241,-6.1996,-6.1479,-6.1003,-6.0568,-6.0175,-6.0115,-6.0115,-6.0135,-5.9926,-6.0135,-6.0135,-6.0344,-6.0344,-6.0344,-5.9528,-5.8917,-5.8686,-5.8686,-5.8646,-5.8625,-5.8714,-5.8463,-5.8159,-5.7997,-5.7612,-5.7369,-5.7166,-5.6822,-5.666,-5.6518,-5.6497,-5.6495,-5.6273,10.8607,10.8614,10.8295,10.8217,10.8272,10.7811,10.7578,10.7617,10.7459,10.7371,10.7223,10.6898,10.6022,10.4816,10.3907,10.2431,10.0345,9.8723,9.6127,9.2604,8.9709,8.6168,8.1961,7.7666,7.019,6.0012,5.0509,4.2051,3.4523,2.7072,1.9091,1.1041,0.3289,-0.4329,-1.154,-1.8938,-2.5809,-3.2003,-3.8011,-4.3608,-4.8371,-5.2538,-5.6411,-5.9749,-6.2318,-6.4164,-6.5059,-6.4956,-6.5204,-6.6016,-6.7211,-6.8605,-6.994,-7.1089,-7.1756,-7.1686,-7.2428,-7.3067,-7.3469,-7.4351,-7.491,-7.4964,-7.4859,-7.4932,-7.4591,-7.4533,-7.4197,-7.4018,-7.4049,-7.4078,-7.3923,-7.358,-7.1484,-6.8127,-6.6831,-6.6032,-6.567,-6.5247,-6.4678,-6.4411,-6.4395,-6.4266,-6.35,-6.3199,-6.3005,-6.2554,-6.2296,-6.221,-6.221,-6.221,-6.221,-6.221,-6.221,-6.2004,-6.2004,-6.2004,-6.1798,-6.099,-6.0574,-6.0052,-6.0219,-6.0136,-6.0011,-5.9719,-5.9427,-5.9094,-5.8697,-5.8447,-5.8281,-5.8072,-5.8085,-5.7959,-5.7854,-5.7634,-5.7235,10.9703,10.9674,10.9392,10.929,10.931,10.8563,10.8259,10.8181,10.7839,10.7611,10.75,10.7246,10.6447,10.528,10.4366,10.2887,10.0952,9.9382,9.71,9.4075,9.124,8.7851,8.3581,7.769,7.0426,6.0987,5.3083,4.543,3.8116,3.0111,2.2062,1.3672,0.5529,-0.2533,-1.0468,-1.8327,-2.5445,-3.2225,-3.8659,-4.4498,-4.9311,-5.3991,-5.784,-6.1174,-6.4435,-6.6713,-6.8535,-6.8736,-6.9029,-6.9516,-7.0694,-7.1775,-7.2438,-7.3552,-7.416,-7.4197,-7.4848,-7.5536,-7.5538,-7.6555,-7.7217,-7.6886,-7.7093,-7.7036,-7.6666,-7.6566,-7.6375,-7.6546,-7.6422,-7.6521,-7.6498,-7.613,-7.4833,-7.2911,-7.0563,-6.9062,-6.8281,-6.7925,-6.7415,-6.6871,-6.6642,-6.6256,-6.5759,-6.5193,-6.4993,-6.4592,-6.4458,-6.4256,-6.4256,-6.4052,-6.4052,-6.3871,-6.3667,-6.3667,-6.3667,-6.3871,-6.3871,-6.3259,-6.2643,-6.2038,-6.1683,-6.1533,-6.1383,-6.0826,-6.0441,-5.9962,-5.9599,-5.9691,-5.952,-5.9524,-5.922,-5.9001,-5.8804,-5.8627,-5.8231,11.0507,11.0121,11.0225,11.0338,11.0364,10.9602,10.9249,10.9093,10.8312,10.7933,10.7833,10.7572,10.6849,10.5707,10.4474,10.306,10.1349,9.9557,9.7993,9.5881,9.3228,8.973,8.4536,7.6792,7.0055,6.399,5.6594,4.9177,4.2347,3.4197,2.5342,1.6988,0.8958,0.0251,-0.8365,-1.6662,-2.4278,-3.1372,-3.8234,-4.4299,-4.9755,-5.4697,-5.8787,-6.259,-6.5578,-6.8311,-7.0093,-7.2463,-7.3284,-7.2882,-7.4117,-7.4858,-7.4936,-7.6014,-7.6586,-7.6073,-7.735,-7.7684,-7.7618,-7.8679,-7.9229,-7.8942,-7.8956,-7.9016,-7.906,-7.8579,-7.8488,-7.8812,-7.8692,-7.8674,-7.8624,-7.8425,-7.8003,-7.7431,-7.4467,-7.2022,-7.0373,-7.0398,-7.0051,-6.9183,-6.8914,-6.8699,-6.8163,-6.7515,-6.7107,-6.6831,-6.667,-6.647,-6.627,-6.607,-6.5692,-6.5491,-6.5491,-6.5491,-6.5491,-6.5491,-6.5446,-6.4996,-6.4415,-6.3676,-6.2806,-6.2586,-6.2013,-6.1467,-6.1337,-6.1031,-6.0659,-6.0594,-6.0528,-6.0441,-6.018,-5.9788,-5.9788,-5.9613,-5.9506,11.1932,11.1909,11.1489,11.137,11.1299,11.0564,11.0186,11.0068,10.9287,10.8815,10.8646,10.808,10.7249,10.6191,10.4983,10.3685,10.221,10.0589,9.9211,9.7834,9.5899,9.0988,8.4987,7.8804,7.3076,6.779,6.0976,5.373,4.6717,3.8637,3.0113,2.1196,1.2802,0.3992,-0.4804,-1.3511,-2.1548,-2.9132,-3.7061,-4.3606,-4.8935,-5.5021,-5.973,-6.3264,-6.7144,-7.0071,-7.2463,-7.6298,-7.719,-7.5418,-7.6975,-7.7709,-7.7064,-7.8163,-7.8748,-7.8327,-7.9235,-7.992,-7.9779,-8.0803,-8.1322,-8.0528,-8.107,-8.1279,-8.0368,-8.0609,-8.0649,-8.0678,-8.0667,-8.0772,-8.102,-8.0784,-8.0348,-7.9714,-7.7456,-7.5146,-7.4114,-7.3631,-7.3168,-7.1889,-7.1679,-7.0907,-7.0301,-6.9668,-6.9424,-6.8866,-6.8818,-6.8623,-6.8426,-6.8057,-6.7685,-6.7685,-6.7685,-6.7511,-6.7312,-6.7312,-6.715,-6.6778,-6.6268,-6.5431,-6.4252,-6.31,-6.2544,-6.192,-6.2137,-6.213,-6.1869,-6.1631,-6.1586,-6.1757,-6.1564,-6.1348,-6.137,-6.137,-6.0911,11.258,11.2772,11.2436,11.233,11.2224,11.1443,11.1077,11.0854,11.0105,10.9499,10.9092,10.8633,10.7835,10.6918,10.5884,10.4737,10.3457,10.2002,10.0607,9.9119,9.6936,9.2318,8.6389,8.1262,7.6636,7.153,6.5367,5.8471,5.1351,4.3704,3.527,2.6387,1.7519,0.8398,-0.0754,-0.962,-1.811,-2.6191,-3.4277,-4.1269,-4.7284,-5.3803,-5.8836,-6.2933,-6.7144,-7.0711,-7.4621,-7.8416,-7.9379,-7.8317,-7.9188,-8.0101,-7.9224,-8.0509,-8.1004,-8.0401,-8.1605,-8.2302,-8.2029,-8.3013,-8.3265,-8.2575,-8.3184,-8.3133,-8.255,-8.2497,-8.2649,-8.2951,-8.28,-8.2828,-8.2975,-8.2503,-8.2514,-8.257,-8.0927,-7.9,-7.7682,-7.6657,-7.593,-7.5014,-7.43,-7.3554,-7.264,-7.2072,-7.1525,-7.1334,-7.0951,-7.0734,-7.0542,-7.0228,-6.9865,-6.9647,-6.9233,-6.8842,-6.8504,-6.8433,-6.8219,-6.8057,-6.7318,-6.6764,-6.5732,-6.4325,-6.3697,-6.3432,-6.3363,-6.3317,-6.3126,-6.3126,-6.3294,-6.3294,-6.3103,-6.2912,-6.2889,-6.2347,-6.2099,11.3088,11.3171,11.329,11.3319,11.3103,11.2383,11.2002,11.1658,11.0878,11.0106,10.951,10.9242,10.8651,10.7851,10.6898,10.5943,10.4814,10.3352,10.177,9.9937,9.7488,9.3725,8.9471,8.4569,7.991,7.5342,6.9683,6.3195,5.6242,4.906,4.0811,3.2035,2.3261,1.3672,0.4215,-0.4761,-1.3687,-2.2495,-3.0214,-3.7693,-4.4483,-5.0779,-5.6312,-6.1618,-6.6854,-7.1348,-7.5851,-7.9143,-8.029,-7.9688,-8.143,-8.1786,-8.1393,-8.2849,-8.3308,-8.3102,-8.3758,-8.4643,-8.4408,-8.4964,-8.5267,-8.4641,-8.5087,-8.5092,-8.4359,-8.4466,-8.4904,-8.505,-8.4935,-8.4789,-8.4619,-8.4304,-8.4545,-8.5103,-8.4862,-8.3255,-8.1322,-7.9679,-7.8828,-7.8297,-7.6864,-7.632,-7.5617,-7.4881,-7.3979,-7.3605,-7.323,-7.3017,-7.2665,-7.2122,-7.155,-7.1167,-7.0759,-6.9962,-6.9745,-6.9527,-6.9188,-6.9016,-6.8216,-6.755,-6.6937,-6.6038,-6.5424,-6.5024,-6.4812,-6.4812,-6.4812,-6.5001,-6.5001,-6.4624,-6.4245,-6.4176,-6.4106,-6.3284,-6.2631,11.4909,11.5028,11.5116,11.4732,11.4087,11.3762,11.3233,11.2426,11.1569,11.1102,11.0749,11.0199,10.9444,10.8617,10.7814,10.6953,10.5846,10.4214,10.2409,10.039,9.8781,9.661,9.3068,8.8361,8.3579,7.922,7.4316,6.833,6.1646,5.4803,4.7159,3.8087,2.9522,2.0217,1.0502,0.1736,-0.7276,-1.6692,-2.5198,-3.2905,-4.0544,-4.7175,-5.3506,-5.9375,-6.6536,-7.2348,-7.6202,-7.9455,-8.093,-8.1978,-8.3033,-8.368,-8.3464,-8.4849,-8.5146,-8.4905,-8.5728,-8.6373,-8.5936,-8.6539,-8.6998,-8.6245,-8.684,-8.7083,-8.5956,-8.6338,-8.662,-8.676,-8.676,-8.662,-8.64,-8.6646,-8.6751,-8.705,-8.7096,-8.7004,-8.6299,-8.4223,-8.2255,-8.092,-8.0229,-7.9531,-7.8146,-7.7762,-7.689,-7.6009,-7.5669,-7.5302,-7.4748,-7.4165,-7.3605,-7.323,-7.2489,-7.1823,-7.136,-7.0987,-7.0465,-7.0142,-6.9422,-6.8999,-6.8401,-6.7616,-6.71,-6.6682,-6.6124,-6.6124,-6.631,-6.5938,-6.5751,-6.5564,-6.5329,-6.4953,-6.4764,-6.3969,-6.3409,11.5505,11.5611,11.5611,11.5308,11.4819,11.4684,11.429,11.3591,11.275,11.2103,11.1573,11.09,11.0108,10.9291,10.8563,10.7788,10.6562,10.4646,10.2966,10.1567,10.0122,9.8421,9.661,9.2513,8.8108,8.3065,7.8499,7.2981,6.6916,6.0517,5.3021,4.4793,3.6499,2.7309,1.7649,0.9081,0.0,-0.9513,-1.8424,-2.6841,-3.4901,-4.2086,-5.0411,-5.7844,-6.5252,-7.0773,-7.4169,-7.7552,-7.9938,-8.1887,-8.3816,-8.4761,-8.5073,-8.642,-8.686,-8.6554,-8.7593,-8.8106,-8.7936,-8.8256,-8.8709,-8.7679,-8.8689,-8.8299,-8.7866,-8.7867,-8.8275,-8.8275,-8.8275,-8.8275,-8.8035,-8.809,-8.8278,-8.8661,-8.8783,-8.9035,-8.8855,-8.6928,-8.4934,-8.3787,-8.3122,-8.2283,-8.1434,-8.0575,-7.9706,-7.8828,-7.7789,-7.761,-7.7251,-7.6528,-7.6009,-7.5381,-7.457,-7.3786,-7.332,-7.2624,-7.1857,-7.1474,-7.0988,-7.0605,-7.0221,-6.9451,-6.8883,-6.8312,-6.758,-6.758,-6.758,-6.7027,-6.6794,-6.6794,-6.6489,-6.6039,-6.5495,-6.4881,-6.4134,11.6248,11.617,11.6196,11.5916,11.5513,11.5412,11.5069,11.4577,11.3932,11.3086,11.2362,11.1615,11.0915,11.0108,10.9462,10.8608,10.7173,10.5462,10.3893,10.2816,10.1504,9.9992,9.8266,9.5699,9.2219,8.6545,8.244,7.7446,7.1745,6.5734,5.9168,5.1572,4.3515,3.4732,2.5482,1.676,0.785,-0.1236,-1.048,-1.9319,-2.7375,-3.5007,-4.4519,-5.5229,-6.1945,-6.6732,-7.0665,-7.4533,-7.7959,-8.0648,-8.3217,-8.4908,-8.6124,-8.7466,-8.859,-8.8011,-8.9098,-8.9508,-8.9573,-9.0103,-9.0193,-8.9339,-9.0245,-9.0092,-8.92,-8.9346,-8.9773,-8.9773,-8.9773,-8.9773,-8.9773,-8.9674,-8.9734,-9.0048,-9.0285,-9.0309,-9.0098,-8.8555,-8.7644,-8.6697,-8.5581,-8.4608,-8.3787,-8.2955,-8.2311,-8.1633,-8.0575,-7.9679,-7.9301,-7.8868,-7.808,-7.7029,-7.6173,-7.5159,-7.4638,-7.4013,-7.3277,-7.2865,-7.2568,-7.2245,-7.2096,-7.1542,-7.0834,-6.9761,-6.922,-6.9039,-6.8758,-6.8296,-6.809,-6.8139,-6.7455,-6.6421,-6.5982,-6.5746,-6.5048,11.9517,11.8857,11.8808,11.7839,11.6407,11.6144,11.5577,11.4505,11.4317,11.3891,11.35,11.2812,11.2037,11.1409,11.0742,10.9488,10.7767,10.6315,10.5087,10.3829,10.2628,10.1434,9.9927,9.8079,9.5395,9.2082,8.7438,8.1901,7.6457,7.1302,6.499,5.7785,5.0512,4.2219,3.3722,2.4952,1.6438,0.7553,-0.1478,-1.0412,-1.8644,-2.7963,-3.753,-4.9503,-5.6015,-6.1279,-6.6299,-7.0867,-7.4898,-7.8018,-8.0881,-8.3306,-8.5384,-8.7511,-8.8605,-8.9118,-9.0,-9.0647,-9.0798,-9.1601,-9.1617,-9.1215,-9.175,-9.1599,-9.0685,-9.0773,-9.1186,-9.1186,-9.1186,-9.1186,-9.1186,-9.1153,-9.1389,-9.1531,-9.1469,-9.1432,-9.1545,-9.1087,-9.0088,-8.8891,-8.7889,-8.6915,-8.6221,-8.539,-8.4491,-8.3778,-8.2726,-8.1802,-8.1209,-8.0502,-7.9623,-7.8714,-7.7775,-7.6711,-7.5823,-7.5192,-7.4653,-7.4364,-7.3951,-7.3806,-7.3462,-7.3316,-7.2769,-7.1563,-7.0731,-7.0452,-7.0146,-6.9561,-6.9002,-6.8544,-6.7737,-6.6884,-6.6562,-6.6215,-6.5566,12.0546,12.0127,11.9994,11.9287,11.8398,11.7988,11.725,11.6165,11.5489,11.4849,11.4188,11.3433,11.2945,11.2449,11.1491,10.993,10.8336,10.734,10.6273,10.5048,10.3785,10.2695,10.1402,9.9632,9.7766,9.5199,9.1486,8.6475,8.0756,7.5813,7.0365,6.4259,5.7309,5.0083,4.2342,3.4245,2.5588,1.6977,0.8242,-0.0491,-0.963,-2.0114,-3.2124,-4.0351,-4.8106,-5.3985,-5.9657,-6.4828,-6.9497,-7.3725,-7.7531,-8.0862,-8.3862,-8.6182,-8.8232,-8.9499,-9.0864,-9.1627,-9.1904,-9.2852,-9.3209,-9.2278,-9.3071,-9.2987,-9.2118,-9.2148,-9.2547,-9.2547,-9.2547,-9.2547,-9.2547,-9.2547,-9.2714,-9.2771,-9.2733,-9.2722,-9.277,-9.2613,-9.1861,-9.081,-9.0131,-8.9376,-8.8625,-8.7732,-8.6832,-8.5923,-8.5006,-8.4023,-8.3005,-8.203,-8.1191,-8.0106,-7.9129,-7.8011,-7.7204,-7.6677,-7.6151,-7.5817,-7.5481,-7.5339,-7.4974,-7.4777,-7.4052,-7.2957,-7.24,-7.1984,-7.1128,-7.0467,-6.9684,-6.9053,-6.8369,-6.759,-6.7164,-6.6714,-6.6265,12.144,12.1166,12.0799,12.0406,11.9944,11.9606,11.8825,11.7854,11.6962,11.606,11.51,11.4171,11.3725,11.3354,11.2022,11.042,10.8943,10.8216,10.7274,10.6322,10.4709,10.3525,10.2455,10.0939,9.9038,9.7367,9.4948,9.0867,8.4809,8.0029,7.5198,6.9915,6.3991,5.7804,5.055,4.3415,3.5387,2.7478,1.9047,1.0119,-0.1222,-1.3593,-2.457,-3.1418,-3.8244,-4.4843,-5.1138,-5.7166,-6.3177,-6.8381,-7.3199,-7.7613,-8.1522,-8.4441,-8.6955,-8.9544,-9.1393,-9.2398,-9.3218,-9.4235,-9.4452,-9.3366,-9.4382,-9.4043,-9.3466,-9.347,-9.3821,-9.3855,-9.3855,-9.3821,-9.3821,-9.3821,-9.3855,-9.3757,-9.3773,-9.3662,-9.3552,-9.3457,-9.3257,-9.2512,-9.224,-9.138,-9.0202,-8.906,-8.7854,-8.7249,-8.6456,-8.5749,-8.4731,-8.3746,-8.2761,-8.1543,-8.0421,-7.9401,-7.8763,-7.8488,-7.7801,-7.731,-7.7146,-7.7009,-7.6429,-7.6041,-7.5211,-7.4355,-7.377,-7.3291,-7.2137,-7.1069,-7.0334,-6.9575,-6.8964,-6.8314,-6.7767,-6.7469,-6.7094,12.3714,12.2822,12.1948,12.0925,12.0075,11.9686,11.9075,11.8574,11.8074,11.7651,11.6827,11.5516,11.4869,11.4333,11.232,11.1291,11.0453,10.9198,10.8065,10.7241,10.5625,10.4304,10.3276,10.1639,10.0257,9.8874,9.6894,9.305,8.8463,8.4592,8.023,7.5182,7.0497,6.5184,5.8927,5.2367,4.5656,3.8631,3.0384,1.9104,0.6014,-0.3664,-1.2016,-1.9576,-2.7301,-3.4687,-4.1876,-4.8445,-5.5269,-6.2187,-6.7901,-7.3161,-7.779,-8.2222,-8.5701,-8.8593,-9.0905,-9.2666,-9.3995,-9.5343,-9.5722,-9.4867,-9.5427,-9.5247,-9.4761,-9.4703,-9.5074,-9.5108,-9.5074,-9.5074,-9.5074,-9.5074,-9.4962,-9.4772,-9.4568,-9.4325,-9.4194,-9.4214,-9.4018,-9.373,-9.3228,-9.2151,-9.1032,-8.9953,-8.8989,-8.8525,-8.7911,-8.7199,-8.624,-8.5062,-8.4002,-8.2783,-8.1919,-8.0912,-8.051,-8.0049,-7.9545,-7.8935,-7.8774,-7.8423,-7.771,-7.7026,-7.6392,-7.5759,-7.5075,-7.4252,-7.2991,-7.1891,-7.0956,-7.0189,-6.9705,-6.8941,-6.8203,-6.8125,-6.8125,12.6011,12.4656,12.4009,12.336,12.261,12.1728,12.0737,11.9825,11.8929,11.8098,11.7358,11.6409,11.5576,11.4602,11.3193,11.2079,11.1094,10.995,10.8982,10.7965,10.6575,10.5269,10.4246,10.2933,10.1572,10.0046,9.8517,9.661,9.2478,8.8388,8.4183,8.0339,7.6003,7.1336,6.6292,6.0906,5.4694,4.6959,3.7743,2.7057,1.7031,0.8841,0.1203,-0.6462,-1.457,-2.2627,-3.0627,-3.8665,-4.6404,-5.3717,-6.0506,-6.7324,-7.319,-7.8488,-8.3001,-8.6941,-9.012,-9.2682,-9.4945,-9.6244,-9.6193,-9.6112,-9.6242,-9.6288,-9.5903,-9.5916,-9.6238,-9.6238,-9.6238,-9.6272,-9.6166,-9.6166,-9.5951,-9.5735,-9.5406,-9.522,-9.5031,-9.483,-9.4795,-9.4549,-9.4248,-9.3148,-9.2216,-9.163,-9.0693,-8.9745,-8.8956,-8.8126,-8.7132,-8.5895,-8.4919,-8.4177,-8.3371,-8.2557,-8.2223,-8.1887,-8.1271,-8.062,-8.0463,-8.0033,-7.8897,-7.8293,-7.7548,-7.6748,-7.5978,-7.5035,-7.3799,-7.2803,-7.196,-7.1145,-7.0469,-6.9869,-6.9459,-6.9293,-6.932,12.8315,12.6975,12.5855,12.517,12.4671,12.3523,12.2473,12.1386,12.0334,11.9179,11.8059,11.7262,11.6,11.4741,11.4061,11.2984,11.1351,11.0748,10.9862,10.8698,10.741,10.6096,10.4901,10.3723,10.2473,10.1157,9.9861,9.8245,9.6067,9.2729,8.8897,8.5225,8.1288,7.7299,7.3134,6.8551,6.2965,5.4801,4.5859,3.7323,2.9737,2.2784,1.5414,0.7474,-0.0934,-0.9356,-1.798,-2.6683,-3.5143,-4.4221,-5.2295,-5.9761,-6.7247,-7.3923,-7.9745,-8.4395,-8.8484,-9.2224,-9.4646,-9.6193,-9.6742,-9.6876,-9.6941,-9.7078,-9.6974,-9.7212,-9.738,-9.738,-9.7314,-9.7314,-9.7212,-9.7041,-9.6834,-9.673,-9.6414,-9.6307,-9.6128,-9.5873,-9.5579,-9.5349,-9.4967,-9.4522,-9.3807,-9.3248,-9.2402,-9.1109,-9.0125,-8.9328,-8.8153,-8.7039,-8.6338,-8.5707,-8.5133,-8.4405,-8.4142,-8.3698,-8.2921,-8.2348,-8.2015,-8.1231,-8.0241,-7.9342,-7.8598,-7.7769,-7.6818,-7.6128,-7.5158,-7.4018,-7.2826,-7.223,-7.1689,-7.1177,-7.0798,-7.0635,-7.0308,13.0767,13.0169,12.6867,12.5296,12.4828,12.4178,12.3574,12.288,12.2367,12.1287,11.9684,11.8236,11.6513,11.5189,11.4515,11.3706,11.2527,11.1526,11.0419,10.9245,10.7922,10.6521,10.5308,10.4077,10.298,10.1724,10.075,9.9803,9.8551,9.6528,9.2924,8.932,8.6125,8.319,7.9638,7.5221,6.9338,6.2146,5.4924,4.9412,4.314,3.6543,2.9679,2.1896,1.3689,0.49,-0.4442,-1.3497,-2.3453,-3.3147,-4.2651,-5.2345,-6.0505,-6.8807,-7.5315,-8.1615,-8.703,-9.0918,-9.3804,-9.5823,-9.6692,-9.6982,-9.743,-9.7894,-9.7917,-9.8212,-9.8406,-9.8406,-9.8212,-9.8149,-9.8086,-9.8023,-9.7688,-9.7552,-9.7349,-9.7144,-9.6938,-9.673,-9.6414,-9.6093,-9.5843,-9.5516,-9.5074,-9.4563,-9.3668,-9.2391,-9.1389,-9.0456,-8.9771,-8.875,-8.8243,-8.7698,-8.7008,-8.6448,-8.6023,-8.5359,-8.4505,-8.3648,-8.3057,-8.2309,-8.1326,-8.0434,-7.9693,-7.8804,-7.7946,-7.7207,-7.6433,-7.5392,-7.4366,-7.347,-7.2885,-7.2409,-7.1929,-7.1608,-7.1285,13.147,13.0696,12.9164,12.7976,12.6955,12.545,12.4495,12.3815,12.2813,12.1396,11.9891,11.858,11.7259,11.6104,11.5013,11.4364,11.3578,11.2083,11.0955,10.9799,10.8528,10.6935,10.5591,10.4608,10.3758,10.2363,10.1497,10.0557,9.9212,9.8269,9.6285,9.3162,9.0535,8.7756,8.4361,8.0387,7.4821,7.0352,6.515,6.0362,5.4979,4.9161,4.2962,3.6013,2.7695,1.905,0.9895,0.0228,-1.0257,-2.0996,-3.1729,-4.2507,-5.3343,-6.2516,-7.1063,-7.8381,-8.442,-8.9258,-9.2971,-9.5307,-9.6988,-9.798,-9.8451,-9.8789,-9.8942,-9.9165,-9.9293,-9.9293,-9.9071,-9.8812,-9.8919,-9.873,-9.8538,-9.8442,-9.8212,-9.798,-9.7853,-9.7617,-9.7451,-9.7006,-9.6938,-9.673,-9.6272,-9.5878,-9.4772,-9.3704,-9.2601,-9.1745,-9.1087,-9.0452,-8.9838,-8.9445,-8.875,-8.8108,-8.7667,-8.6831,-8.6038,-8.5104,-8.4201,-8.319,-8.2243,-8.1695,-8.0932,-8.0018,-7.9143,-7.8704,-7.7887,-7.6853,-7.5801,-7.4885,-7.4113,-7.3673,-7.3201,-7.2568,-7.2249,13.2331,13.1631,13.1149,13.0151,12.8812,12.7146,12.5953,12.5076,12.3966,12.2127,12.0195,11.9131,11.8097,11.6936,11.5769,11.4813,11.4022,11.2699,11.1504,11.0336,10.9078,10.7518,10.6217,10.512,10.4288,10.2983,10.2129,10.1204,9.9817,9.9155,9.7655,9.5882,9.419,9.1568,8.8384,8.4341,8.0459,7.7534,7.4463,7.0656,6.5553,6.0851,5.5549,4.9125,4.1569,3.3394,2.4466,1.4793,0.3799,-0.7831,-1.9515,-3.1915,-4.3943,-5.5385,-6.5428,-7.3865,-8.1302,-8.7246,-9.1347,-9.5158,-9.7634,-9.8706,-9.9477,-9.9804,-10.007,-10.0158,-10.0158,-10.0158,-9.9748,-9.9389,-9.9299,-9.883,-9.8647,-9.8447,-9.844,-9.8324,-9.8587,-9.8538,-9.8247,-9.8051,-9.7853,-9.7653,-9.7247,-9.6799,-9.5808,-9.4816,-9.3787,-9.3081,-9.2688,-9.2081,-9.1496,-9.0994,-9.058,-8.9936,-8.9281,-8.8368,-8.7456,-8.6347,-8.5398,-8.4226,-8.3349,-8.2815,-8.211,-8.1186,-8.0523,-8.0182,-7.9445,-7.8585,-7.7417,-7.6225,-7.5497,-7.4732,-7.4423,-7.3957,-7.3673,13.3535,13.3346,13.2278,13.1113,12.9934,12.9273,12.814,12.6815,12.5904,12.402,12.1508,12.0033,11.8737,11.7643,11.64,11.5466,11.4334,11.3222,11.2038,11.0955,10.9533,10.8354,10.7027,10.578,10.4554,10.3792,10.2776,10.1621,10.0313,9.9847,9.8788,9.7648,9.6128,9.4793,9.2274,8.9429,8.6813,8.451,8.1846,7.8534,7.4984,7.1322,6.6629,6.1144,5.4881,4.7301,3.872,2.948,1.8395,0.6556,-0.6382,-1.9715,-3.3561,-4.6843,-5.8329,-6.9485,-7.7942,-8.4644,-9.0103,-9.554,-9.8432,-9.9731,-10.0469,-10.0772,-10.0939,-10.1021,-10.0719,-10.0463,-9.9875,-9.9329,-9.8953,-9.8613,-9.8585,-9.8607,-9.8612,-9.8614,-9.8758,-9.9134,-9.8749,-9.8633,-9.8623,-9.8538,-9.8149,-9.7653,-9.6799,-9.5843,-9.4816,-9.4363,-9.4134,-9.367,-9.2962,-9.248,-9.2081,-9.1389,-9.0631,-8.9792,-8.8855,-8.7726,-8.6533,-8.5342,-8.4439,-8.3888,-8.3203,-8.2213,-8.1943,-8.1672,-8.1124,-8.0322,-7.9129,-7.7974,-7.6704,-7.5801,-7.5497,-7.5192,-7.4885,13.3629,13.3518,13.2948,13.2338,13.159,13.0036,12.886,12.7964,12.6436,12.4363,12.2183,12.108,11.9818,11.8507,11.7475,11.6444,11.5122,11.3617,11.2471,11.1354,10.9694,10.8254,10.7015,10.5768,10.4567,10.3822,10.2957,10.17,10.0046,9.9946,9.8672,9.7372,9.6938,9.5779,9.3846,9.1835,9.0247,8.8572,8.671,8.4589,8.19,7.9227,7.6001,7.1316,6.6259,5.9991,5.2533,4.3156,3.2956,2.0684,0.7464,-0.7318,-2.2943,-3.7025,-5.2135,-6.4602,-7.4878,-8.5181,-9.1847,-9.7498,-9.9474,-10.0635,-10.1244,-10.1452,-10.1423,-10.116,-10.0826,-10.0303,-9.9774,-9.9279,-9.8972,-9.8855,-9.8846,-9.8682,-9.8625,-9.853,-9.8613,-9.8984,-9.9062,-9.9064,-9.9064,-9.9057,-9.8825,-9.8634,-9.7881,-9.7314,-9.6415,-9.5808,-9.5482,-9.5074,-9.4397,-9.4019,-9.3486,-9.2744,-9.1931,-9.0914,-8.9851,-8.8758,-8.7488,-8.6307,-8.5518,-8.5077,-8.4443,-8.3767,-8.3539,-8.3277,-8.2481,-8.1672,-8.0986,-7.987,-7.8555,-7.7417,-7.6973,-7.6675,-7.6254,13.3629,13.3518,13.3259,13.2989,13.2585,13.1051,12.9833,12.8576,12.6645,12.4591,12.3124,12.209,12.0758,11.9252,11.8178,11.715,11.5695,11.4167,11.2962,11.1728,10.976,10.8639,10.7387,10.5709,10.4639,10.3931,10.305,10.1797,10.0492,9.9944,9.8656,9.7333,9.6893,9.6289,9.512,9.4293,9.3684,9.2315,9.0972,8.9606,8.7526,8.5513,8.323,7.9681,7.5577,7.0785,6.4003,5.5993,4.6985,3.4409,2.0977,0.5682,-1.1055,-2.8514,-4.5147,-5.9382,-7.613,-8.6696,-9.4856,-9.8309,-10.0198,-10.1657,-10.1928,-10.1709,-10.1369,-10.1188,-10.0752,-10.0165,-9.9575,-9.9205,-9.9018,-9.8943,-9.8683,-9.8529,-9.8552,-9.843,-9.8709,-9.9093,-9.9109,-9.9075,-9.9375,-9.9423,-9.9497,-9.9441,-9.9165,-9.8598,-9.798,-9.7517,-9.6799,-9.6272,-9.5735,-9.5262,-9.4825,-9.4179,-9.31,-9.1961,-9.0871,-8.9682,-8.858,-8.7427,-8.6918,-8.6524,-8.5792,-8.5328,-8.4951,-8.4571,-8.3669,-8.3013,-8.2481,-8.1672,-8.071,-7.9557,-7.8585,-7.8004,-7.7564,13.3596,13.3482,13.3275,13.3028,13.2706,13.2014,13.0742,12.8864,12.6707,12.5381,12.4628,12.2582,12.1138,12.0011,11.8588,11.7064,11.5769,11.4484,11.3298,11.2008,11.0161,10.9236,10.7795,10.5962,10.4854,10.4149,10.327,10.2036,10.1087,9.9861,9.8507,9.7461,9.6942,9.6557,9.6308,9.6112,9.5741,9.4806,9.4086,9.2928,9.1502,9.0761,8.8684,8.5994,8.311,7.9312,7.3779,6.7446,5.9047,4.8003,3.5637,1.889,0.0995,-1.8655,-3.747,-5.8297,-7.9563,-8.9757,-9.6358,-9.8712,-10.0215,-10.1296,-10.1362,-10.1208,-10.1207,-10.1132,-10.0713,-10.0179,-9.9605,-9.9252,-9.9002,-9.8635,-9.8305,-9.8314,-9.8503,-9.8614,-9.8867,-9.9044,-9.8882,-9.9089,-9.9668,-9.9813,-10.0056,-10.0064,-9.9998,-9.9714,-9.9221,-9.8884,-9.8176,-9.738,-9.6868,-9.659,-9.6098,-9.5607,-9.441,-9.3038,-9.1851,-9.0666,-8.9702,-8.8779,-8.8324,-8.7862,-8.736,-8.6885,-8.6436,-8.5825,-8.4825,-8.4315,-8.3929,-8.3114,-8.2316,-8.1262,-8.0261,-7.9445,-7.8783,13.3483,13.3385,13.3227,13.2999,13.2706,13.2039,13.0788,12.9154,12.7509,12.6128,12.4858,12.3373,12.1742,12.0198,11.9669,11.7805,11.6101,11.4645,11.3308,11.1852,11.0338,10.9223,10.7848,10.6292,10.5125,10.4079,10.3093,10.1944,10.0579,9.9366,9.8528,9.7694,9.6858,9.6577,9.6422,9.6422,9.6188,9.5972,9.5438,9.4983,9.454,9.3719,9.2409,9.0889,8.9487,8.6046,8.2205,7.7905,7.0341,6.1887,5.0391,3.4772,1.4854,-0.8349,-3.2045,-6.8565,-8.4008,-9.2733,-9.6119,-9.8348,-9.9763,-10.053,-10.0696,-10.1103,-10.1172,-10.1031,-10.0671,-10.0172,-9.9704,-9.943,-9.9167,-9.8814,-9.8535,-9.8524,-9.8545,-9.8593,-9.8828,-9.8835,-9.8799,-9.9055,-9.9566,-10.0105,-10.0371,-10.0683,-10.0626,-10.0603,-10.0456,-9.9982,-9.9441,-9.8658,-9.8078,-9.7682,-9.7239,-9.6719,-9.5433,-9.4008,-9.2826,-9.1715,-9.0807,-9.0104,-8.9669,-8.9194,-8.8779,-8.8324,-8.7712,-8.6885,-8.5825,-8.5577,-8.5296,-8.4698,-8.3929,-8.2881,-8.1808,-8.0986,-8.0017,13.2897,13.2831,13.3006,13.2877,13.2489,13.1848,13.0772,12.9353,12.7946,12.6681,12.5535,12.3906,12.2122,12.0503,11.9922,11.835,11.5493,11.5018,11.3745,11.1434,11.0327,10.8871,10.7523,10.6193,10.4719,10.359,10.2597,10.1555,10.0161,9.8931,9.7973,9.6968,9.6365,9.5895,9.5563,9.5303,9.518,9.5338,9.5427,9.5576,9.5496,9.5359,9.481,9.409,9.3236,9.135,8.913,8.5249,8.0306,7.4056,6.3482,5.0094,2.5632,-0.2835,-4.0549,-7.4561,-8.7949,-9.3798,-9.6948,-9.8363,-9.9106,-9.959,-10.0093,-10.0476,-10.0812,-10.0841,-10.0544,-10.0109,-9.9834,-9.9593,-9.9386,-9.9213,-9.8975,-9.8767,-9.8642,-9.8578,-9.8647,-9.871,-9.8811,-9.9047,-9.9464,-10.0055,-10.0454,-10.085,-10.1207,-10.1266,-10.1213,-10.0965,-10.0419,-9.9804,-9.9257,-9.8789,-9.8324,-9.7846,-9.6428,-9.4948,-9.3876,-9.294,-9.2085,-9.147,-9.0953,-9.0426,-9.007,-8.9415,-8.8858,-8.806,-8.7242,-8.7038,-8.6798,-8.6193,-8.5577,-8.4666,-8.3767,-8.2748,-8.1476,13.1897,13.1814,13.2503,13.229,13.1928,13.1333,13.047,12.9277,12.7859,12.7086,12.6174,12.4288,12.224,12.0615,12.0026,11.8185,11.6073,11.5154,11.3744,11.1016,11.033,10.8915,10.7069,10.5458,10.4325,10.2912,10.1648,10.0697,9.9744,9.83,9.6907,9.5855,9.511,9.4438,9.3743,9.3312,9.3086,9.3008,9.3894,9.4543,9.5366,9.5625,9.5664,9.5246,9.4598,9.3633,9.2397,9.0231,8.7668,8.2349,7.5024,6.3243,2.7885,-0.6129,-4.8006,-7.4588,-8.907,-9.4159,-9.6742,-9.8198,-9.8878,-9.9267,-9.9521,-10.0012,-10.0384,-10.0634,-10.0386,-10.0497,-10.0319,-10.0113,-9.9961,-9.9843,-9.9683,-9.95,-9.9329,-9.9154,-9.9088,-9.903,-9.8964,-9.9113,-9.9364,-9.9935,-10.0423,-10.0796,-10.1462,-10.1677,-10.1776,-10.1697,-10.1376,-10.0761,-10.0246,-9.984,-9.9425,-9.8754,-9.733,-9.5993,-9.5036,-9.4113,-9.3297,-9.2665,-9.204,-9.1638,-9.1264,-9.0638,-8.9962,-8.9449,-8.8858,-8.8519,-8.806,-8.7629,-8.7123,-8.6557,-8.5545,-8.4539,-8.2872,13.0828,13.0755,13.0659,13.0355,13.0006,12.9667,12.9111,12.8277,12.7098,12.6328,12.557,12.4025,12.2282,12.0578,11.9811,11.8119,11.6078,11.4891,11.3518,11.1828,11.0532,10.8746,10.7105,10.5455,10.4129,10.2609,10.1189,9.9262,9.7769,9.6593,9.5619,9.4642,9.3444,9.202,9.1216,9.074,9.0228,8.9898,9.0254,9.1733,9.3054,9.4309,9.4751,9.4666,9.4288,9.4068,9.322,9.2573,9.0732,8.7655,8.257,5.7009,1.6015,-1.621,-4.7404,-7.4515,-8.7915,-9.2613,-9.5547,-9.7105,-9.7968,-9.8699,-9.9094,-9.9668,-10.0085,-10.0335,-10.0547,-10.0788,-10.0822,-10.0612,-10.0428,-10.0336,-10.0185,-9.9987,-9.9896,-9.9683,-9.9518,-9.9347,-9.9186,-9.928,-9.9477,-9.9806,-10.0307,-10.0842,-10.1489,-10.1906,-10.2092,-10.2163,-10.2163,-10.1739,-10.1258,-10.0845,-10.0369,-9.9563,-9.823,-9.7063,-9.6185,-9.5163,-9.4248,-9.374,-9.3239,-9.2726,-9.2273,-9.1708,-9.1057,-9.0638,-9.0177,-8.9744,-8.9305,-8.897,-8.8438,-8.7712,-8.7275,-8.6403,-8.4328,12.9421,12.9642,12.9623,12.9518,12.92,12.8831,12.8213,12.7414,12.6512,12.5659,12.4744,12.3647,12.2202,12.0496,11.9725,11.7996,11.5765,11.4644,11.2995,11.1568,10.9898,10.8082,10.6534,10.4905,10.2911,10.1286,9.8782,9.6786,9.5259,9.412,9.312,9.1957,9.0268,8.9017,8.8029,8.7024,8.6193,8.5759,8.5645,8.6486,8.8728,9.0249,9.2016,9.2375,9.2509,9.2487,9.2242,9.1732,9.0485,8.4935,7.7217,4.9348,1.3668,-1.513,-4.3782,-6.8834,-8.4164,-9.0312,-9.2843,-9.4901,-9.635,-9.7084,-9.8007,-9.8318,-9.9277,-9.9488,-9.9785,-9.9979,-9.9983,-9.982,-9.9712,-9.9594,-9.9385,-9.9159,-9.9517,-9.9678,-9.9771,-9.985,-9.9613,-9.9477,-9.9638,-9.9817,-10.0156,-10.0376,-10.1077,-10.1993,-10.2305,-10.2608,-10.2573,-10.2575,-10.2163,-10.1817,-10.1376,-10.0646,-9.9448,-9.8323,-9.7343,-9.6376,-9.5288,-9.4675,-9.416,-9.3705,-9.3239,-9.2665,-9.2174,-9.1975,-9.1435,-9.0918,-9.0743,-9.0426,-8.9779,-8.8892,-8.8552,-8.806,-8.631,12.7678,12.8309,12.8586,12.8728,12.8732,12.8212,12.7383,12.6566,12.5933,12.5069,12.3879,12.3227,12.1817,12.0547,11.9479,11.7414,11.5584,11.4011,11.2399,11.0791,10.8875,10.7126,10.5253,10.3294,10.1085,9.8462,9.5913,9.4014,9.2344,9.1015,8.9502,8.822,8.6854,8.5426,8.3898,8.2491,8.1459,8.0475,7.9918,7.9555,8.1906,8.5038,8.7276,8.8522,8.8872,8.8798,8.8538,8.7942,8.7153,7.9323,6.7834,4.0352,1.351,-1.3561,-4.0364,-6.4769,-7.9888,-8.5446,-8.9362,-9.1964,-9.3515,-9.4857,-9.5982,-9.7032,-9.7971,-9.8554,-9.8807,-9.907,-9.9091,-9.9289,-9.9181,-9.9068,-9.8823,-9.8709,-9.9243,-9.9687,-9.9878,-10.0049,-9.9872,-9.9628,-9.982,-9.9972,-10.0005,-10.0165,-10.0882,-10.1855,-10.2407,-10.2789,-10.2989,-10.3037,-10.2829,-10.2611,-10.2314,-10.1456,-10.0519,-9.9653,-9.8562,-9.7451,-9.6441,-9.57,-9.5022,-9.4639,-9.416,-9.3612,-9.3239,-9.3049,-9.2665,-9.2174,-9.1875,-9.1774,-9.0848,-9.0104,-8.9779,-8.9237,-8.8262,12.552,12.6118,12.5947,12.6158,12.6467,12.6358,12.5865,12.5174,12.4649,12.4103,12.3274,12.2047,12.0807,11.9773,11.9202,11.7463,11.5181,11.3452,11.2121,11.0757,10.7755,10.6035,10.3931,10.1115,9.8446,9.5496,9.2638,9.064,8.8446,8.7071,8.5523,8.3632,8.1698,8.0224,7.8729,7.716,7.5395,7.4436,7.3252,7.2548,7.4223,7.7581,8.1866,8.2786,8.2579,8.2761,8.2587,8.1747,8.0192,7.3671,6.0422,3.6104,1.2242,-1.1449,-3.6109,-5.7853,-7.2897,-8.0438,-8.4492,-8.8281,-9.026,-9.2847,-9.4051,-9.5415,-9.6288,-9.7184,-9.7526,-9.8046,-9.8346,-9.9146,-9.9168,-9.9099,-9.8951,-9.883,-9.9124,-9.9365,-9.9543,-9.9797,-9.9847,-9.9956,-10.0126,-10.0123,-10.0078,-10.035,-10.0935,-10.1717,-10.2361,-10.2787,-10.3346,-10.3335,-10.3388,-10.3251,-10.3042,-10.2201,-10.1241,-10.0678,-9.9747,-9.8676,-9.7562,-9.6801,-9.6149,-9.5649,-9.5157,-9.4515,-9.4249,-9.4124,-9.3705,-9.3239,-9.2954,-9.2762,-9.1875,-9.1264,-9.0953,-9.0463,-8.9546]},{"header":{"parameterUnit":"m.s-1","parameterCategory":1,"la1":31.0,"la2":29.5877,"lo1":-88.7671,"lo2":-86.6584,"dy":0.0162,"dx":0.0185,"nx":115,"ny":88,"refTime":"2023-04-13T06:00:00:Z","depth":0,"parameterNumber":3,"parameterNumberName":"V-component_of_WINDS"},"data":[0.0,0.0,0.0,0.0,0.0,0.0,0.0,0.0,0.0,0.0,0.0,0.0,0.0,0.0,0.0,0.0,0.0,0.0,0.0,0.0,0.0,0.0,0.0,0.0,0.0,0.0,0.0,0.0,0.0,0.0,0.0,0.0,0.0,0.0,0.0,0.0,0.0,0.0,0.0,0.0,0.0,0.0,0.0,0.0,0.0,0.0,0.0,0.0,0.0,0.0,0.0,0.0,0.0,0.0,0.0,0.0,0.0,0.0,0.0,0.0,0.0,0.0,0.0,0.0,0.0,0.0,0.0,0.0,0.0,0.0,0.0,0.0,0.0,0.0,0.0,0.0,0.0,0.0,0.0,0.0,0.0,0.0,0.0,0.0,0.0,0.0,0.0,0.0,0.0,0.0,0.0,0.0,0.0,0.0,0.0,0.0,0.0,0.0,0.0,0.0,0.0,0.0,0.0,0.0,0.0,0.0,0.0,0.0,0.0,0.0,0.0,0.0,0.0,0.0,0.0,0.0,0.0,0.0,0.0,0.0,0.0,0.0,0.0,0.0,0.0,0.0,0.0,0.0,0.0,0.0,0.0,0.0,0.0,0.0,0.0,0.0,0.0,0.0,0.0,0.0,0.0,0.0,0.0,0.0,0.0,0.0,0.0,0.0,0.0,0.0,0.0,0.0,0.0,0.0,0.0,0.0,0.0,0.0,0.0,0.0,0.0,0.0,0.0,0.0,0.0,0.0,0.0,0.0,0.0,0.0,0.0,0.0,0.0,0.0,0.0,0.0,0.0,0.0,0.0,0.0,0.0,0.0,0.0,0.0,0.0,0.0,0.0,0.0,0.0,0.0,0.0,0.0,0.0,0.0,0.0,0.0,0.0,0.0,0.0,0.0,0.0,0.0,0.0,0.0,0.0,0.0,0.0,0.0,0.0,0.0,0.0,0.0,0.0,0.0,0.0,0.0,0.0,0.0,0.0,0.0,0.0,0.0,0.0,0.0,0.0,0.0,0.0,0.0,0.0,0.0,0.0,0.0,0.0,0.0,0.0,0.0,0.0,0.0,0.0,0.0,0.0,0.0,0.0,0.0,0.0,0.0,0.0,0.0,0.0,0.0,0.0,0.0,0.0,0.0,0.0,0.0,0.0,0.0,0.0,0.0,0.0,0.0,0.0,0.0,0.0,0.0,0.0,0.0,0.0,0.0,0.0,0.0,0.0,0.0,0.0,0.0,0.0,0.0,0.0,0.0,0.0,0.0,0.0,0.0,0.0,0.0,0.0,0.0,0.0,0.0,0.0,0.0,0.0,0.0,0.0,0.0,0.0,0.0,0.0,0.0,0.0,0.0,0.0,0.0,0.0,0.0,0.0,0.0,0.0,0.0,0.0,0.0,0.0,0.0,0.0,0.0,0.0,0.0,0.0,0.0,0.0,0.0,0.0,0.0,0.0,0.0,0.0,0.0,0.0,0.0,0.0,0.0,0.0,0.0,0.0,0.0,0.0,0.0,0.0,0.0,0.0,0.0,0.0,0.0,0.0,0.0,0.0,0.0,0.0,0.0,0.0,0.0,0.0,0.0,0.0,0.0,0.0,0.0,0.0,0.0,0.0,0.0,0.0,0.0,0.0,0.0,0.0,0.0,0.0,0.0,0.0,0.0,0.0,0.0,0.0,0.0,0.0,0.0,0.0,0.0,0.0,0.0,0.0,0.0,0.0,0.0,0.0,0.0,0.0,0.0,0.0,0.0,0.0,0.0,0.0,0.0,0.0,0.0,0.0,0.0,0.0,0.0,0.0,0.0,0.0,0.0,0.0,0.0,0.0,0.0,0.0,0.0,0.0,0.0,0.0,0.0,0.0,0.0,0.0,0.0,0.0,0.0,0.0,0.0,0.0,0.0,0.0,0.0,0.0,0.0,0.0,0.0,0.0,0.0,0.0,0.0,0.0,0.0,0.0,0.0,0.0,0.0,0.0,0.0,0.0,0.0,0.0,0.0,0.0,0.0,0.0,0.0,0.0,0.0,0.0,0.0,0.0,0.0,0.0,0.0,0.0,0.0,0.0,0.0,0.0,0.0,0.0,0.0,0.0,0.0,0.0,0.0,0.0,0.0,0.0,0.0,0.0,0.0,0.0,0.0,0.0,0.0,0.0,0.0,0.0,0.0,0.0,0.0,0.0,0.0,0.0,0.0,0.0,0.0,0.0,0.0,0.0,0.0,0.0,0.0,0.0,0.0,0.0,0.0,0.0,0.0,0.0,0.0,0.0,0.0,0.0,0.0,0.0,0.0,0.0,0.0,0.0,0.0,0.0,0.0,0.0,0.0,0.0,0.0,0.0,0.0,0.0,0.0,0.0,0.0,0.0,0.0,0.0,0.0,0.0,0.0,0.0,0.0,0.0,0.0,0.0,0.0,0.0,0.0,0.0,0.0,0.0,0.0,0.0,0.0,0.0,0.0,0.0,0.0,0.0,0.0,0.0,0.0,0.0,0.0,0.0,0.0,0.0,0.0,0.0,0.0,0.0,0.0,0.0,0.0,0.0,0.0,0.0,0.0,0.0,0.0,0.0,0.0,0.0,0.0,0.0,0.0,0.0,0.0,0.0,0.0,0.0,0.0,0.0,0.0,0.0,0.0,0.0,0.0,0.0,0.0,0.0,0.0,0.0,0.0,0.0,0.0,0.0,0.0,0.0,0.0,0.0,0.0,0.0,0.0,0.0,0.0,0.0,0.0,0.0,0.0,0.0,0.0,0.0,0.0,0.0,0.0,0.0,0.0,0.0,0.0,0.0,0.0,0.0,0.0,0.0,0.0,0.0,0.0,0.0,0.0,0.0,0.0,0.0,0.0,0.0,0.0,0.0,0.0,0.0,0.0,0.0,0.0,0.0,0.0,0.0,0.0,0.0,0.0,0.0,0.0,0.0,0.0,0.0,0.0,0.0,0.0,0.0,0.0,0.0,0.0,0.0,0.0,0.0,0.0,0.0,0.0,0.0,0.0,0.0,0.0,0.0,0.0,0.0,0.0,0.0,0.0,0.0,0.0,0.0,0.0,0.0,0.0,0.0,0.0,0.0,0.0,0.0,0.0,0.0,0.0,0.0,0.0,0.0,0.0,0.0,0.0,0.0,0.0,0.0,0.0,0.0,0.0,0.0,0.0,0.0,0.0,0.0,0.0,0.0,0.0,0.0,0.0,0.0,0.0,0.0,0.0,0.0,0.0,0.0,0.0,0.0,0.0,0.0,0.0,0.0,0.0,0.0,0.0,0.0,0.0,0.0,0.0,0.0,0.0,0.0,0.0,0.0,0.0,0.0,0.0,0.0,0.0,0.0,0.0,0.0,0.0,0.0,0.0,0.0,0.0,0.0,0.0,0.0,0.0,0.0,0.0,0.0,0.0,0.0,0.0,0.0,0.0,0.0,0.0,0.0,0.0,0.0,0.0,0.0,0.0,0.0,0.0,0.0,0.0,0.0,0.0,0.0,0.0,0.0,0.0,0.0,0.0,0.0,0.0,0.0,0.0,0.0,0.0,0.0,0.0,0.0,0.0,0.0,0.0,0.0,0.0,0.0,0.0,0.0,0.0,0.0,0.0,0.0,0.0,0.0,0.0,0.0,0.0,0.0,0.0,0.0,0.0,0.0,0.0,0.0,0.0,0.0,0.0,0.0,0.0,0.0,0.0,0.0,0.0,0.0,0.0,0.0,0.0,0.0,0.0,0.0,0.0,0.0,0.0,0.0,0.0,0.0,0.0,0.0,0.0,0.0,0.0,0.0,0.0,0.0,0.0,0.0,0.0,0.0,0.0,0.0,0.0,0.0,0.0,0.0,0.0,0.0,0.0,0.0,0.0,0.0,0.0,0.0,0.0,0.0,0.0,0.0,0.0,0.0,0.0,0.0,0.0,0.0,0.0,0.0,0.0,0.0,0.0,0.0,0.0,0.0,0.0,0.0,0.0,0.0,0.0,0.0,0.0,0.0,0.0,0.0,0.0,0.0,0.0,0.0,0.0,0.0,0.0,0.0,0.0,0.0,0.0,0.0,0.0,0.0,0.0,0.0,0.0,0.0,0.0,0.0,0.0,0.0,0.0,0.0,0.0,0.0,0.0,0.0,0.0,0.0,0.0,0.0,0.0,0.0,0.0,0.0,0.0,0.0,0.0,0.0,0.0,0.0,0.0,0.0,0.0,0.0,0.0,0.0,0.0,0.0,0.0,0.0,0.0,0.0,0.0,0.0,0.0,0.0,0.0,0.0,0.0,0.0,0.0,0.0,0.0,0.0,0.0,0.0,0.0,5.6654,0.0,0.0,0.0,0.0,0.0,0.0,0.0,0.0,0.0,0.0,0.0,0.0,0.0,0.0,0.0,0.0,0.0,0.0,0.0,0.0,0.0,0.0,0.0,0.0,0.0,0.0,0.0,0.0,0.0,0.0,0.0,0.0,0.0,0.0,0.0,0.0,0.0,0.0,0.0,0.0,0.0,0.0,0.0,0.0,0.0,0.0,0.0,0.0,0.0,0.0,0.0,0.0,0.0,0.0,0.0,0.0,0.0,0.0,0.0,0.0,0.0,0.0,0.0,0.0,0.0,0.0,0.0,0.0,0.0,0.0,0.0,0.0,0.0,0.0,0.0,0.0,0.0,0.0,0.0,0.0,0.0,0.0,0.0,0.0,0.0,0.0,0.0,0.0,0.0,0.0,0.0,0.0,0.0,0.0,0.0,0.0,0.0,0.0,0.0,0.0,0.0,0.0,0.0,0.0,0.0,0.0,0.0,0.0,0.0,0.0,5.651,5.6984,5.711,5.7134,5.7014,0.0,0.0,0.0,0.0,0.0,0.0,0.0,0.0,0.0,0.0,0.0,0.0,0.0,0.0,0.0,0.0,0.0,0.0,0.0,0.0,0.0,0.0,0.0,0.0,0.0,0.0,0.0,0.0,0.0,0.0,0.0,0.0,0.0,0.0,0.0,0.0,0.0,0.0,0.0,0.0,0.0,0.0,0.0,0.0,0.0,0.0,0.0,0.0,0.0,0.0,0.0,0.0,0.0,0.0,0.0,0.0,0.0,0.0,0.0,0.0,0.0,0.0,0.0,0.0,0.0,0.0,0.0,0.0,0.0,0.0,0.0,0.0,0.0,0.0,0.0,0.0,0.0,0.0,0.0,0.0,0.0,0.0,0.0,0.0,0.0,0.0,0.0,0.0,0.0,0.0,0.0,0.0,0.0,0.0,0.0,0.0,0.0,0.0,0.0,0.0,0.0,0.0,0.0,0.0,0.0,0.0,0.0,0.0,0.0,0.0,0.0,0.0,5.7631,5.761,5.7052,0.0,0.0,0.0,0.0,0.0,0.0,0.0,0.0,0.0,0.0,0.0,0.0,0.0,0.0,0.0,0.0,0.0,0.0,0.0,0.0,0.0,0.0,0.0,0.0,0.0,0.0,0.0,0.0,0.0,0.0,0.0,0.0,0.0,0.0,0.0,0.0,0.0,0.0,0.0,0.0,0.0,0.0,0.0,0.0,0.0,0.0,0.0,0.0,0.0,0.0,0.0,0.0,0.0,0.0,0.0,0.0,0.0,0.0,0.0,0.0,0.0,0.0,0.0,0.0,0.0,0.0,0.0,0.0,0.0,0.0,0.0,0.0,0.0,0.0,0.0,0.0,0.0,0.0,0.0,0.0,0.0,0.0,0.0,0.0,0.0,0.0,0.0,0.0,0.0,0.0,0.0,0.0,0.0,0.0,0.0,0.0,0.0,0.0,0.0,0.0,0.0,0.0,0.0,0.0,0.0,0.0,0.0,0.0,0.0,0.0,5.6845,5.7389,5.7784,0.0,5.693,0.0,0.0,0.0,0.0,0.0,0.0,0.0,0.0,0.0,0.0,0.0,0.0,0.0,0.0,0.0,0.0,0.0,0.0,0.0,0.0,0.0,0.0,0.0,0.0,0.0,0.0,0.0,0.0,0.0,0.0,0.0,0.0,0.0,0.0,0.0,0.0,0.0,0.0,0.0,0.0,0.0,0.0,0.0,0.0,0.0,0.0,0.0,0.0,0.0,0.0,0.0,0.0,0.0,0.0,0.0,0.0,0.0,0.0,0.0,0.0,0.0,0.0,0.0,0.0,0.0,0.0,0.0,0.0,0.0,0.0,0.0,0.0,0.0,0.0,0.0,0.0,0.0,0.0,0.0,0.0,0.0,0.0,0.0,0.0,0.0,0.0,0.0,0.0,0.0,0.0,0.0,0.0,0.0,0.0,0.0,0.0,0.0,0.0,0.0,0.0,0.0,0.0,0.0,0.0,0.0,0.0,0.0,0.0,0.0,0.0,5.6933,5.7569,5.8289,5.8124,0.0,0.0,0.0,0.0,0.0,0.0,0.0,0.0,0.0,0.0,0.0,0.0,0.0,0.0,0.0,0.0,0.0,0.0,0.0,0.0,0.0,0.0,0.0,0.0,0.0,0.0,0.0,0.0,0.0,0.0,0.0,0.0,0.0,0.0,0.0,0.0,0.0,0.0,0.0,0.0,0.0,0.0,0.0,0.0,0.0,0.0,0.0,0.0,0.0,0.0,0.0,0.0,0.0,0.0,0.0,0.0,0.0,0.0,0.0,0.0,0.0,0.0,0.0,0.0,0.0,0.0,0.0,0.0,0.0,0.0,0.0,0.0,0.0,0.0,0.0,0.0,0.0,0.0,0.0,0.0,0.0,0.0,0.0,0.0,0.0,0.0,0.0,0.0,0.0,0.0,0.0,0.0,0.0,0.0,0.0,0.0,0.0,0.0,0.0,0.0,0.0,0.0,0.0,0.0,0.0,0.0,0.0,0.0,0.0,0.0,5.6492,5.7152,5.7932,5.875,5.8574,5.7234,0.0,0.0,0.0,0.0,0.0,0.0,0.0,0.0,0.0,0.0,0.0,0.0,0.0,0.0,0.0,0.0,0.0,0.0,0.0,0.0,0.0,0.0,0.0,0.0,0.0,0.0,0.0,0.0,0.0,0.0,0.0,0.0,0.0,0.0,0.0,0.0,0.0,0.0,0.0,0.0,0.0,0.0,0.0,0.0,0.0,0.0,0.0,0.0,0.0,0.0,0.0,0.0,0.0,0.0,0.0,0.0,0.0,0.0,0.0,0.0,0.0,0.0,0.0,0.0,0.0,0.0,0.0,0.0,0.0,0.0,0.0,0.0,0.0,0.0,0.0,0.0,0.0,0.0,0.0,0.0,0.0,0.0,0.0,0.0,0.0,0.0,0.0,0.0,0.0,0.0,0.0,0.0,0.0,0.0,0.0,0.0,0.0,0.0,0.0,0.0,0.0,0.0,0.0,0.0,0.0,0.0,0.0,0.0,5.5936,5.6737,5.7642,5.8503,5.9102,5.8751,0.0,0.0,0.0,0.0,0.0,0.0,0.0,0.0,0.0,0.0,0.0,0.0,0.0,0.0,0.0,0.0,0.0,0.0,0.0,0.0,0.0,0.0,0.0,0.0,0.0,0.0,0.0,0.0,0.0,0.0,0.0,0.0,0.0,0.0,0.0,0.0,0.0,0.0,0.0,0.0,0.0,0.0,0.0,0.0,0.0,0.0,0.0,0.0,0.0,0.0,0.0,0.0,0.0,0.0,0.0,0.0,0.0,0.0,0.0,0.0,0.0,0.0,0.0,0.0,0.0,0.0,0.0,0.0,0.0,0.0,0.0,0.0,0.0,0.0,0.0,0.0,0.0,0.0,0.0,0.0,0.0,0.0,0.0,0.0,0.0,0.0,0.0,0.0,0.0,0.0,0.0,0.0,0.0,0.0,0.0,0.0,0.0,0.0,0.0,0.0,0.0,0.0,0.0,0.0,0.0,0.0,0.0,0.0,0.0,5.6241,5.7486,5.8342,5.8747,5.929,5.9181,0.0,0.0,0.0,0.0,0.0,0.0,0.0,0.0,0.0,0.0,0.0,0.0,0.0,0.0,0.0,0.0,0.0,0.0,0.0,0.0,0.0,0.0,0.0,0.0,0.0,0.0,0.0,0.0,0.0,0.0,0.0,0.0,0.0,0.0,0.0,0.0,0.0,0.0,0.0,0.0,0.0,0.0,0.0,0.0,0.0,0.0,0.0,0.0,0.0,0.0,0.0,0.0,0.0,0.0,0.0,0.0,0.0,0.0,0.0,0.0,0.0,0.0,0.0,0.0,0.0,0.0,0.0,0.0,0.0,0.0,0.0,0.0,0.0,0.0,0.0,0.0,0.0,0.0,0.0,0.0,0.0,0.0,0.0,0.0,0.0,0.0,0.0,0.0,0.0,0.0,0.0,0.0,0.0,0.0,0.0,0.0,0.0,0.0,0.0,0.0,0.0,0.0,0.0,0.0,0.0,0.0,0.0,0.0,0.0,5.7007,0.0,5.8842,0.0,5.9434,5.943,0.0,0.0,0.0,0.0,0.0,0.0,0.0,0.0,0.0,0.0,0.0,0.0,0.0,0.0,0.0,0.0,0.0,0.0,0.0,0.0,0.0,0.0,0.0,0.0,0.0,0.0,0.0,0.0,0.0,0.0,0.0,0.0,0.0,0.0,0.0,0.0,0.0,0.0,0.0,0.0,0.0,0.0,0.0,0.0,0.0,0.0,0.0,0.0,0.0,0.0,0.0,0.0,0.0,0.0,0.0,0.0,0.0,0.0,0.0,0.0,0.0,0.0,0.0,0.0,0.0,0.0,0.0,0.0,0.0,0.0,0.0,0.0,0.0,0.0,0.0,0.0,0.0,0.0,0.0,0.0,0.0,0.0,0.0,0.0,0.0,0.0,0.0,0.0,0.0,0.0,0.0,0.0,0.0,0.0,0.0,0.0,0.0,0.0,0.0,0.0,0.0,0.0,0.0,0.0,0.0,0.0,0.0,0.0,5.7361,5.8207,5.8905,5.9316,5.9365,5.9688,5.957,0.0,0.0,0.0,0.0,0.0,0.0,0.0,0.0,0.0,0.0,0.0,0.0,0.0,0.0,0.0,0.0,0.0,0.0,0.0,0.0,0.0,0.0,0.0,0.0,0.0,0.0,0.0,0.0,0.0,0.0,0.0,0.0,0.0,0.0,0.0,0.0,0.0,0.0,0.0,0.0,0.0,0.0,0.0,0.0,0.0,0.0,0.0,0.0,0.0,0.0,0.0,0.0,0.0,0.0,0.0,0.0,0.0,0.0,0.0,0.0,0.0,0.0,0.0,0.0,0.0,0.0,0.0,0.0,0.0,0.0,0.0,0.0,0.0,0.0,0.0,0.0,0.0,0.0,0.0,0.0,0.0,0.0,0.0,0.0,0.0,0.0,0.0,0.0,0.0,0.0,0.0,0.0,0.0,0.0,0.0,0.0,0.0,0.0,0.0,0.0,0.0,0.0,0.0,0.0,0.0,0.0,0.0,0.0,0.0,6.037,6.1384,6.1733,6.1349,6.1652,6.1522,0.0,0.0,0.0,0.0,0.0,0.0,0.0,0.0,0.0,0.0,0.0,0.0,0.0,0.0,0.0,0.0,0.0,0.0,0.0,0.0,0.0,0.0,0.0,0.0,0.0,0.0,0.0,0.0,0.0,0.0,0.0,0.0,0.0,0.0,0.0,0.0,0.0,0.0,0.0,0.0,0.0,0.0,0.0,0.0,0.0,0.0,0.0,0.0,0.0,0.0,0.0,0.0,0.0,0.0,0.0,0.0,0.0,0.0,0.0,0.0,0.0,0.0,0.0,0.0,0.0,0.0,0.0,0.0,0.0,0.0,0.0,0.0,0.0,0.0,0.0,0.0,0.0,0.0,0.0,0.0,0.0,0.0,0.0,0.0,0.0,0.0,0.0,0.0,0.0,0.0,0.0,0.0,0.0,0.0,0.0,0.0,0.0,0.0,0.0,0.0,0.0,0.0,0.0,0.0,0.0,0.0,0.0,0.0,0.0,6.5041,6.5464,6.5387,6.4696,6.4692,6.3915,6.2322,0.0,0.0,0.0,0.0,0.0,0.0,0.0,0.0,0.0,0.0,0.0,0.0,0.0,0.0,0.0,0.0,0.0,0.0,0.0,0.0,0.0,0.0,0.0,0.0,0.0,0.0,0.0,0.0,0.0,0.0,0.0,0.0,0.0,0.0,0.0,0.0,0.0,0.0,0.0,0.0,0.0,0.0,0.0,0.0,0.0,0.0,0.0,0.0,0.0,0.0,0.0,0.0,0.0,0.0,0.0,0.0,0.0,0.0,0.0,0.0,0.0,0.0,0.0,0.0,0.0,0.0,0.0,0.0,0.0,0.0,0.0,0.0,0.0,0.0,0.0,0.0,0.0,0.0,0.0,0.0,0.0,0.0,0.0,0.0,0.0,0.0,0.0,0.0,0.0,0.0,0.0,0.0,0.0,0.0,0.0,0.0,0.0,0.0,0.0,0.0,0.0,0.0,0.0,0.0,0.0,0.0,0.0,0.0,7.1711,7.0914,7.0039,6.9112,6.8438,6.6634,0.0,0.0,0.0,0.0,0.0,0.0,0.0,0.0,0.0,0.0,0.0,0.0,0.0,0.0,0.0,0.0,0.0,0.0,0.0,0.0,0.0,0.0,0.0,0.0,0.0,0.0,0.0,0.0,0.0,0.0,0.0,0.0,0.0,0.0,0.0,0.0,0.0,0.0,0.0,0.0,0.0,0.0,0.0,0.0,0.0,0.0,0.0,0.0,0.0,0.0,0.0,0.0,0.0,0.0,0.0,0.0,0.0,0.0,0.0,0.0,0.0,0.0,0.0,0.0,0.0,0.0,0.0,0.0,0.0,0.0,0.0,0.0,0.0,0.0,0.0,0.0,0.0,0.0,0.0,0.0,0.0,0.0,0.0,0.0,0.0,0.0,0.0,0.0,0.0,0.0,0.0,0.0,0.0,0.0,0.0,0.0,0.0,0.0,0.0,0.0,0.0,0.0,0.0,0.0,0.0,0.0,0.0,0.0,0.0,7.7033,7.7531,7.5852,7.2105,7.1329,6.9432,0.0,0.0,0.0,0.0,0.0,0.0,0.0,0.0,0.0,0.0,0.0,0.0,0.0,0.0,0.0,0.0,0.0,0.0,0.0,0.0,0.0,0.0,0.0,0.0,0.0,0.0,0.0,0.0,0.0,0.0,0.0,0.0,0.0,0.0,0.0,0.0,0.0,0.0,0.0,0.0,0.0,0.0,0.0,0.0,0.0,0.0,0.0,0.0,0.0,0.0,0.0,0.0,0.0,0.0,0.0,0.0,0.0,0.0,0.0,0.0,0.0,0.0,0.0,0.0,0.0,0.0,0.0,0.0,0.0,0.0,0.0,0.0,0.0,0.0,0.0,0.0,0.0,0.0,0.0,0.0,0.0,0.0,0.0,0.0,0.0,0.0,0.0,0.0,0.0,0.0,0.0,0.0,0.0,0.0,0.0,0.0,0.0,0.0,0.0,0.0,0.0,0.0,0.0,0.0,0.0,0.0,0.0,0.0,7.5583,8.0308,8.0773,7.9627,7.6863,7.5165,7.2223,0.0,0.0,0.0,0.0,0.0,0.0,0.0,0.0,0.0,0.0,0.0,0.0,0.0,0.0,0.0,0.0,0.0,0.0,0.0,0.0,0.0,0.0,0.0,0.0,0.0,0.0,0.0,0.0,0.0,0.0,0.0,0.0,0.0,0.0,0.0,0.0,0.0,0.0,0.0,0.0,0.0,0.0,0.0,0.0,0.0,0.0,0.0,0.0,0.0,0.0,0.0,0.0,0.0,0.0,0.0,0.0,0.0,0.0,0.0,0.0,0.0,0.0,0.0,0.0,0.0,0.0,0.0,0.0,0.0,0.0,0.0,0.0,0.0,0.0,0.0,0.0,0.0,0.0,0.0,0.0,0.0,0.0,0.0,0.0,0.0,0.0,0.0,0.0,0.0,0.0,0.0,0.0,0.0,0.0,0.0,0.0,0.0,0.0,0.0,0.0,0.0,0.0,0.0,0.0,0.0,0.0,0.0,0.0,7.6835,8.1831,8.1729,8.1729,8.1904,7.9138,7.4923,0.0,0.0,0.0,0.0,0.0,0.0,0.0,0.0,0.0,0.0,0.0,0.0,0.0,0.0,0.0,0.0,0.0,0.0,0.0,0.0,0.0,0.0,0.0,0.0,0.0,0.0,0.0,0.0,0.0,0.0,0.0,0.0,0.0,0.0,0.0,0.0,0.0,0.0,0.0,0.0,0.0,0.0,0.0,0.0,0.0,0.0,0.0,0.0,0.0,0.0,0.0,0.0,0.0,0.0,0.0,0.0,0.0,0.0,0.0,0.0,0.0,0.0,0.0,0.0,0.0,0.0,0.0,0.0,0.0,0.0,0.0,0.0,0.0,0.0,0.0,0.0,0.0,0.0,0.0,0.0,0.0,0.0,0.0,0.0,0.0,0.0,0.0,0.0,0.0,0.0,0.0,0.0,0.0,0.0,0.0,0.0,0.0,0.0,0.0,0.0,0.0,0.0,0.0,0.0,0.0,0.0,0.0,0.0,7.8091,8.1798,8.1805,8.1842,8.2019,8.0277,7.7213,0.0,0.0,0.0,0.0,0.0,0.0,0.0,0.0,0.0,0.0,0.0,0.0,0.0,0.0,0.0,0.0,0.0,0.0,0.0,0.0,0.0,0.0,0.0,0.0,0.0,0.0,0.0,0.0,0.0,0.0,0.0,0.0,0.0,0.0,0.0,0.0,0.0,0.0,0.0,0.0,0.0,0.0,0.0,0.0,0.0,0.0,0.0,0.0,6.7741,0.0,0.0,0.0,0.0,0.0,0.0,0.0,0.0,0.0,0.0,0.0,0.0,0.0,0.0,0.0,0.0,0.0,0.0,0.0,0.0,0.0,0.0,0.0,0.0,0.0,0.0,0.0,0.0,0.0,0.0,0.0,0.0,0.0,0.0,0.0,0.0,0.0,0.0,0.0,0.0,0.0,0.0,0.0,0.0,0.0,0.0,0.0,0.0,0.0,0.0,0.0,0.0,0.0,0.0,0.0,0.0,0.0,0.0,0.0,7.9765,8.3022,8.2645,8.2453,8.2556,8.1208,7.8332,0.0,0.0,0.0,0.0,0.0,0.0,0.0,0.0,0.0,0.0,0.0,0.0,0.0,0.0,0.0,0.0,0.0,0.0,0.0,0.0,0.0,0.0,0.0,0.0,0.0,0.0,0.0,0.0,0.0,0.0,0.0,0.0,0.0,0.0,0.0,0.0,0.0,0.0,0.0,0.0,0.0,0.0,0.0,0.0,0.0,0.0,0.0,0.0,0.0,0.0,0.0,0.0,0.0,0.0,0.0,0.0,0.0,0.0,0.0,0.0,0.0,0.0,0.0,0.0,0.0,0.0,0.0,0.0,0.0,0.0,0.0,0.0,0.0,0.0,0.0,0.0,0.0,0.0,0.0,0.0,0.0,0.0,0.0,0.0,0.0,0.0,0.0,0.0,0.0,0.0,0.0,0.0,0.0,0.0,0.0,0.0,0.0,0.0,0.0,0.0,0.0,0.0,0.0,0.0,0.0,0.0,0.0,7.842,8.1409,8.4016,8.3409,8.3103,8.3285,8.19,7.8949,7.4378,0.0,0.0,0.0,0.0,0.0,0.0,0.0,0.0,0.0,0.0,0.0,0.0,0.0,0.0,0.0,0.0,0.0,0.0,0.0,0.0,0.0,0.0,0.0,0.0,0.0,0.0,0.0,0.0,0.0,0.0,0.0,0.0,0.0,0.0,0.0,0.0,0.0,0.0,6.4284,6.711,0.0,0.0,0.0,0.0,0.0,0.0,0.0,0.0,6.9341,0.0,0.0,0.0,0.0,0.0,0.0,0.0,0.0,0.0,0.0,0.0,0.0,0.0,0.0,0.0,0.0,0.0,0.0,0.0,0.0,0.0,0.0,0.0,0.0,0.0,0.0,0.0,0.0,0.0,0.0,0.0,0.0,0.0,0.0,0.0,0.0,0.0,0.0,0.0,0.0,0.0,0.0,0.0,0.0,0.0,0.0,0.0,0.0,0.0,0.0,0.0,0.0,0.0,0.0,0.0,0.0,7.3505,7.9468,8.2491,8.2263,8.2874,8.3215,8.3246,8.1932,7.9505,7.6064,0.0,0.0,0.0,0.0,0.0,0.0,0.0,0.0,0.0,0.0,0.0,0.0,0.0,0.0,0.0,0.0,0.0,0.0,0.0,0.0,0.0,0.0,0.0,0.0,0.0,0.0,0.0,0.0,0.0,0.0,0.0,0.0,0.0,0.0,0.0,0.0,0.0,0.0,0.0,6.8809,7.0413,0.0,0.0,0.0,0.0,0.0,0.0,0.0,0.0,7.1781,0.0,0.0,0.0,0.0,0.0,0.0,0.0,0.0,0.0,0.0,0.0,0.0,0.0,0.0,0.0,0.0,0.0,0.0,0.0,0.0,0.0,0.0,0.0,0.0,0.0,0.0,0.0,0.0,0.0,0.0,0.0,0.0,0.0,0.0,0.0,0.0,0.0,0.0,0.0,0.0,0.0,0.0,0.0,0.0,0.0,0.0,0.0,0.0,0.0,0.0,0.0,0.0,0.0,0.0,0.0,7.5042,7.9966,8.2529,8.253,8.3371,8.3709,8.3461,8.1993,7.9686,0.0,0.0,0.0,0.0,0.0,0.0,0.0,0.0,0.0,0.0,0.0,0.0,0.0,0.0,0.0,0.0,0.0,0.0,0.0,0.0,0.0,0.0,0.0,0.0,0.0,0.0,0.0,0.0,0.0,0.0,0.0,0.0,0.0,0.0,0.0,0.0,0.0,0.0,0.0,0.0,7.0233,7.1707,7.1835,0.0,0.0,0.0,0.0,0.0,0.0,7.2502,7.2716,0.0,0.0,0.0,0.0,0.0,0.0,0.0,0.0,0.0,0.0,0.0,0.0,0.0,0.0,0.0,0.0,0.0,0.0,0.0,0.0,0.0,0.0,0.0,0.0,0.0,0.0,0.0,0.0,0.0,0.0,0.0,0.0,0.0,0.0,0.0,0.0,0.0,0.0,0.0,0.0,0.0,0.0,0.0,0.0,0.0,0.0,0.0,0.0,0.0,0.0,0.0,0.0,0.0,0.0,0.0,7.6649,8.0618,8.2797,8.3217,8.3829,8.3975,8.3632,8.2082,7.9778,0.0,0.0,0.0,0.0,0.0,0.0,0.0,0.0,0.0,0.0,0.0,0.0,0.0,0.0,0.0,0.0,0.0,0.0,0.0,0.0,0.0,0.0,0.0,0.0,0.0,0.0,0.0,0.0,0.0,0.0,0.0,0.0,0.0,0.0,0.0,0.0,0.0,0.0,0.0,0.0,0.0,7.3118,7.3535,7.327,0.0,0.0,0.0,0.0,7.403,7.3762,0.0,0.0,0.0,0.0,0.0,0.0,0.0,0.0,0.0,0.0,0.0,0.0,0.0,0.0,0.0,0.0,0.0,0.0,0.0,0.0,0.0,0.0,0.0,0.0,0.0,0.0,0.0,0.0,0.0,0.0,0.0,0.0,0.0,0.0,0.0,0.0,0.0,0.0,0.0,0.0,0.0,0.0,0.0,0.0,0.0,0.0,0.0,0.0,0.0,0.0,0.0,0.0,0.0,0.0,0.0,0.0,7.6731,8.2187,8.4481,8.3293,8.3367,8.347,8.3593,8.2235,7.9903,0.0,0.0,0.0,0.0,0.0,0.0,0.0,0.0,0.0,0.0,0.0,0.0,0.0,0.0,0.0,0.0,0.0,0.0,0.0,0.0,0.0,0.0,0.0,0.0,0.0,0.0,0.0,0.0,0.0,0.0,0.0,0.0,0.0,0.0,0.0,0.0,0.0,0.0,0.0,0.0,0.0,7.4833,7.623,7.5463,7.4873,0.0,0.0,7.4899,7.5253,7.5399,0.0,0.0,0.0,0.0,0.0,0.0,0.0,0.0,0.0,0.0,0.0,0.0,0.0,0.0,0.0,0.0,0.0,0.0,0.0,0.0,0.0,0.0,0.0,0.0,0.0,0.0,0.0,0.0,0.0,0.0,0.0,0.0,0.0,0.0,0.0,0.0,0.0,0.0,0.0,0.0,0.0,0.0,0.0,0.0,0.0,0.0,0.0,0.0,0.0,0.0,0.0,0.0,0.0,0.0,0.0,7.4903,7.8637,8.1805,8.3601,8.398,8.4049,8.3956,8.368,8.3205,8.0957,0.0,0.0,0.0,0.0,0.0,0.0,0.0,0.0,0.0,0.0,0.0,0.0,0.0,0.0,0.0,0.0,0.0,0.0,0.0,0.0,0.0,0.0,0.0,0.0,0.0,0.0,0.0,0.0,0.0,0.0,0.0,0.0,0.0,0.0,0.0,0.0,0.0,0.0,0.0,0.0,0.0,0.0,7.6643,7.6476,0.0,0.0,0.0,7.6453,7.7054,0.0,0.0,0.0,0.0,0.0,0.0,0.0,0.0,0.0,0.0,0.0,0.0,0.0,0.0,0.0,0.0,0.0,0.0,0.0,0.0,0.0,0.0,0.0,0.0,0.0,0.0,0.0,0.0,0.0,0.0,0.0,0.0,0.0,0.0,0.0,0.0,0.0,0.0,0.0,0.0,0.0,0.0,0.0,0.0,0.0,0.0,0.0,0.0,0.0,0.0,0.0,0.0,0.0,0.0,0.0,0.0,0.0,8.0201,8.1729,8.3141,8.455,8.4656,8.4516,8.4146,8.3902,0.0,0.0,0.0,0.0,0.0,0.0,0.0,0.0,0.0,0.0,0.0,0.0,0.0,0.0,0.0,0.0,0.0,0.0,0.0,0.0,0.0,0.0,0.0,0.0,0.0,0.0,0.0,5.9415,0.0,0.0,0.0,0.0,0.0,0.0,0.0,0.0,0.0,0.0,0.0,0.0,0.0,0.0,7.419,7.7126,7.7849,7.8199,0.0,0.0,7.8145,7.8499,7.7659,7.7185,0.0,0.0,0.0,0.0,0.0,0.0,0.0,0.0,0.0,0.0,0.0,0.0,0.0,0.0,0.0,0.0,0.0,0.0,0.0,0.0,0.0,0.0,0.0,0.0,0.0,0.0,0.0,0.0,0.0,0.0,0.0,0.0,0.0,0.0,0.0,0.0,0.0,0.0,0.0,0.0,0.0,0.0,0.0,0.0,0.0,0.0,0.0,0.0,0.0,0.0,0.0,0.0,0.0,0.0,0.0,8.0277,8.2913,8.4364,8.4588,8.4724,8.485,8.4995,8.3631,8.1701,0.0,0.0,0.0,0.0,0.0,0.0,0.0,0.0,0.0,0.0,0.0,0.0,0.0,0.0,0.0,0.0,0.0,0.0,0.0,0.0,0.0,0.0,0.0,0.0,0.0,0.0,0.0,0.0,0.0,0.0,0.0,0.0,0.0,0.0,0.0,0.0,0.0,0.0,0.0,0.0,0.0,7.6217,7.8581,8.0026,8.0702,0.0,0.0,8.0444,7.915,7.9146,7.9019,7.8369,0.0,0.0,0.0,0.0,0.0,0.0,0.0,0.0,0.0,0.0,0.0,0.0,0.0,0.0,0.0,0.0,0.0,0.0,0.0,0.0,0.0,0.0,0.0,0.0,0.0,0.0,0.0,0.0,0.0,0.0,0.0,0.0,0.0,0.0,0.0,0.0,0.0,0.0,0.0,0.0,0.0,0.0,0.0,0.0,0.0,0.0,0.0,0.0,0.0,0.0,0.0,0.0,0.0,7.7492,8.2722,8.4403,8.5852,8.6991,8.7204,8.7133,8.6837,8.6339,8.4932,0.0,0.0,0.0,0.0,0.0,0.0,0.0,0.0,0.0,0.0,0.0,0.0,0.0,0.0,0.0,0.0,0.0,0.0,0.0,0.0,0.0,0.0,0.0,0.0,0.0,0.0,0.0,0.0,6.7203,6.8412,6.9013,0.0,0.0,0.0,0.0,0.0,0.0,0.0,0.0,0.0,0.0,7.6891,7.9142,8.0404,0.0,0.0,8.102,8.0755,8.022,7.9449,7.8832,7.8771,7.6699,0.0,0.0,0.0,0.0,0.0,0.0,0.0,0.0,0.0,0.0,0.0,0.0,0.0,0.0,0.0,0.0,0.0,0.0,0.0,0.0,0.0,0.0,0.0,0.0,0.0,0.0,0.0,0.0,0.0,0.0,0.0,0.0,0.0,0.0,0.0,0.0,0.0,0.0,0.0,0.0,0.0,0.0,0.0,0.0,0.0,0.0,0.0,0.0,0.0,0.0,0.0,0.0,7.8979,8.4672,8.6237,8.7683,8.8979,8.942,8.9338,8.866,8.8544,8.7325,0.0,0.0,0.0,0.0,0.0,0.0,0.0,0.0,0.0,0.0,0.0,0.0,0.0,0.0,0.0,0.0,0.0,0.0,0.0,0.0,0.0,0.0,0.0,0.0,0.0,0.0,0.0,0.0,6.886,6.9528,6.8728,0.0,0.0,0.0,0.0,0.0,0.0,0.0,0.0,0.0,0.0,7.7708,8.0003,8.1285,8.2055,8.2147,8.1928,8.138,8.0458,7.9425,7.871,7.8676,0.0,0.0,0.0,0.0,0.0,0.0,0.0,0.0,0.0,0.0,0.0,0.0,0.0,0.0,0.0,0.0,0.0,0.0,0.0,0.0,0.0,0.0,0.0,0.0,0.0,0.0,0.0,0.0,0.0,0.0,4.6281,0.0,0.0,0.0,0.0,0.0,0.0,0.0,0.0,0.0,0.0,0.0,0.0,0.0,0.0,0.0,0.0,0.0,0.0,0.0,0.0,0.0,0.0,8.0467,8.57,8.8448,8.9825,8.9936,9.0975,9.1195,9.04,8.9755,8.8183,8.5736,0.0,0.0,0.0,0.0,0.0,0.0,0.0,0.0,0.0,0.0,0.0,0.0,0.0,0.0,0.0,0.0,0.0,0.0,0.0,0.0,0.0,0.0,0.0,0.0,0.0,0.0,6.8171,6.999,7.0076,0.0,0.0,0.0,0.0,0.0,0.0,0.0,0.0,0.0,0.0,7.6276,7.9077,8.1178,8.303,8.372,8.2819,8.3329,8.2713,7.959,7.9075,7.8917,0.0,0.0,0.0,0.0,0.0,0.0,0.0,0.0,0.0,0.0,0.0,0.0,0.0,0.0,0.0,0.0,0.0,0.0,0.0,0.0,0.0,0.0,0.0,0.0,0.0,0.0,0.0,4.2134,4.442,0.0,0.0,0.0,0.0,0.0,0.0,0.0,0.0,0.0,0.0,0.0,7.3944,7.522,0.0,0.0,0.0,0.0,0.0,0.0,0.0,0.0,0.0,0.0,0.0,0.0,8.2438,8.7564,8.9915,9.1354,9.211,9.2925,9.3478,9.3628,9.2044,8.9508,8.6014,0.0,0.0,0.0,0.0,0.0,0.0,0.0,0.0,0.0,0.0,0.0,0.0,0.0,0.0,0.0,0.0,0.0,0.0,0.0,0.0,0.0,0.0,0.0,0.0,0.0,6.8015,0.0,0.0,0.0,0.0,0.0,0.0,0.0,0.0,0.0,0.0,0.0,7.4079,7.5505,7.8062,7.9901,8.0499,8.155,8.21,0.0,0.0,0.0,0.0,0.0,0.0,0.0,0.0,0.0,0.0,0.0,0.0,0.0,0.0,7.6236,7.4853,7.4133,7.3964,7.4794,0.0,0.0,0.0,0.0,0.0,0.0,0.0,0.0,0.0,0.0,0.0,0.0,0.0,0.0,0.0,0.0,4.7687,0.0,0.0,0.0,0.0,0.0,0.0,0.0,0.0,7.5469,7.7281,7.826,7.929,7.9954,0.0,7.9822,7.8635,0.0,0.0,0.0,0.0,0.0,0.0,0.0,0.0,8.4824,8.9986,9.2325,9.3629,9.3916,9.508,9.5786,9.5903,9.3531,9.0677,8.7464,8.6272,8.3356,0.0,0.0,0.0,0.0,0.0,0.0,0.0,0.0,0.0,0.0,0.0,0.0,0.0,0.0,0.0,0.0,0.0,0.0,0.0,0.0,0.0,0.0,0.0,6.9887,0.0,0.0,0.0,0.0,0.0,0.0,0.0,0.0,0.0,7.1669,7.3763,7.558,7.6796,7.8831,8.011,8.0152,0.0,0.0,0.0,0.0,0.0,0.0,0.0,7.916,8.0103,8.0171,8.0238,8.0904,8.0623,8.0475,8.0975,0.0,0.0,7.8233,7.7378,7.7268,7.8075,7.7756,7.7327,7.7202,7.7578,7.7879,0.0,0.0,0.0,0.0,0.0,0.0,0.0,0.0,4.1274,4.6276,0.0,5.0882,0.0,0.0,0.0,0.0,0.0,7.0517,0.0,0.0,7.829,8.0147,8.1615,8.2628,8.347,8.3975,8.5431,8.6333,8.6271,7.9589,0.0,0.0,0.0,0.0,0.0,0.0,8.7657,9.2855,9.5623,9.65,9.5499,9.7354,9.8023,9.7147,9.4133,9.1702,9.0025,8.8241,8.526,8.0896,7.8837,0.0,0.0,0.0,0.0,0.0,0.0,0.0,0.0,0.0,0.0,0.0,0.0,0.0,0.0,0.0,0.0,0.0,0.0,0.0,0.0,7.0227,0.0,0.0,0.0,0.0,0.0,0.0,0.0,0.0,0.0,0.0,7.2943,7.4935,7.6538,7.716,0.0,0.0,0.0,0.0,8.1543,8.1084,8.1648,8.1453,7.9595,8.0136,8.0998,8.1744,0.0,0.0,8.3825,8.3714,8.3766,8.4678,8.5191,8.4494,8.1835,8.1277,8.1415,8.215,8.2092,8.1995,8.2032,8.1824,8.1829,1.7297,0.0,0.0,0.0,0.0,2.6969,3.1363,3.5959,4.075,4.5442,4.995,5.4296,0.0,0.0,0.0,0.0,0.0,0.0,7.6048,7.8459,8.0551,8.207,8.2976,8.4277,8.5631,8.6878,8.8051,8.9167,9.0245,8.8863,8.6624,8.3751,0.0,0.0,0.0,0.0,9.1486,9.491,9.7147,9.8267,9.84,9.9133,9.8839,9.7455,9.5385,9.3432,9.1756,8.9366,8.6545,8.323,8.1174,0.0,0.0,0.0,0.0,0.0,0.0,0.0,0.0,0.0,0.0,0.0,0.0,0.0,0.0,0.0,0.0,0.0,0.0,0.0,7.1375,7.1943,7.1977,0.0,0.0,0.0,0.0,0.0,0.0,0.0,0.0,0.0,7.5803,7.7076,7.7947,0.0,0.0,8.1234,8.0677,8.1319,8.1738,8.1495,8.1509,0.0,8.0717,8.1365,8.2439,8.3918,8.6025,8.7658,8.8157,8.8257,8.8468,8.8999,8.9341,8.9238,8.8618,8.6742,8.5527,8.56,8.5568,8.5463,8.5325,8.5255,8.5292,1.9361,1.8727,1.8588,2.0154,2.3052,2.6594,3.0856,3.5531,3.9917,4.4671,4.9878,5.4565,5.8874,6.3173,7.0261,0.0,0.0,0.0,7.7587,7.974,8.1539,8.3117,8.4439,8.574,8.7285,8.9162,9.0679,9.2318,9.4122,9.5417,9.4945,9.2695,0.0,0.0,9.2088,9.3276,9.5367,9.8363,9.997,10.0485,9.9939,10.072,10.0148,9.8106,9.6718,9.5028,9.2873,9.0534,8.7932,8.5033,8.2524,7.9619,0.0,0.0,0.0,0.0,0.0,0.0,0.0,0.0,0.0,0.0,0.0,6.322,6.5431,0.0,0.0,0.0,7.0978,7.2398,7.4252,7.3799,0.0,0.0,0.0,0.0,0.0,0.0,0.0,7.3527,7.5078,7.6654,7.8202,7.9845,8.0587,7.9711,8.1176,8.2134,8.1473,0.0,8.2713,8.2864,8.3061,8.3293,8.3489,8.4282,8.5481,8.739,8.9672,9.1439,9.1968,9.2171,9.2501,9.2787,9.3024,9.3217,9.356,9.206,9.0372,8.9197,8.8904,8.8833,8.8761,8.8725,8.869,2.1253,2.1196,2.0055,2.0791,2.2769,2.6355,3.0303,3.4604,3.8566,4.3877,4.9623,5.2544,5.7779,6.4875,6.9829,0.0,7.3674,7.5939,7.8152,8.0326,8.169,8.3464,8.572,8.695,8.8729,9.1004,9.3363,9.5573,9.7778,9.9793,10.1094,10.1453,9.656,9.519,9.7329,9.755,9.9179,10.2332,10.335,10.2806,10.0584,10.2031,10.164,9.906,9.7984,9.6206,9.3679,9.1606,8.9227,8.6354,8.3328,8.0946,7.9378,0.0,0.0,0.0,0.0,0.0,0.0,0.0,0.0,0.0,0.0,0.0,0.0,0.0,0.0,0.0,7.4517,0.0,7.6604,7.5881,0.0,0.0,0.0,7.4659,7.4738,7.5442,7.6257,7.7143,0.0,0.0,8.0393,8.2796,8.3929,8.2475,8.2687,8.3005,8.2784,8.3662,8.4455,8.511,8.5976,8.6843,8.7266,8.8275,8.9733,9.1533,9.3273,9.4373,9.5072,9.5338,9.5711,9.5967,9.6122,9.6246,9.6714,9.6535,9.5875,9.2867,9.2207,9.217,9.2134,9.2134,9.2097,2.2481,2.2085,2.2078,2.2713,2.3835,2.6544,2.9731,3.3203,3.7233,4.1846,4.6531,4.9495,5.5704,6.4047,6.75,7.0459,7.3137,7.5498,7.7868,8.0438,8.1848,8.3827,8.6147,8.7871,9.0088,9.2611,9.4669,9.7426,10.0648,10.2487,10.3598,10.4126,10.332,10.2275,10.1085,10.1594,10.234,10.3228,10.4266,10.417,10.3006,10.2763,10.17,9.9707,9.7486,9.5608,9.4108,9.1554,8.9054,8.677,8.4729,8.2416,7.9583,7.6013,0.0,0.0,0.0,0.0,0.0,0.0,0.0,0.0,0.0,6.7043,7.0132,0.0,7.3112,0.0,7.6076,7.7205,7.7811,7.8112,0.0,0.0,7.8637,7.9021,7.8901,7.9686,8.0404,8.0845,8.1874,8.2952,8.4367,8.531,8.6579,8.8072,8.7034,8.6081,8.5992,8.6895,8.7515,8.7834,8.8896,8.9816,9.017,9.2133,9.3852,9.4697,9.5858,9.6697,9.7087,9.7209,9.7295,9.7548,9.7632,9.7715,9.7962,9.8006,9.7824,9.6947,9.5967,9.5204,9.5047,9.5011,9.5011,2.361,2.3202,2.3115,2.3375,2.4059,2.6291,2.9136,3.2239,3.5428,3.9372,4.3538,4.8733,5.4667,6.1043,6.4466,6.7825,7.1078,7.3448,7.6335,7.9529,8.1526,8.3863,8.6401,8.8921,9.167,9.46,9.6684,9.9568,10.2893,10.4797,10.6099,10.69,10.7332,10.6819,10.5436,10.5138,10.4982,10.502,10.5666,10.5447,10.4211,10.2997,10.15,9.9775,9.7906,9.598,9.4114,9.1611,8.9457,8.7642,8.5534,8.3468,8.1333,7.7834,7.5019,0.0,0.0,0.0,0.0,0.0,0.0,0.0,0.0,0.0,0.0,0.0,7.5309,7.8154,7.9311,8.0298,8.1419,8.1506,8.1646,8.212,8.2998,8.3454,8.3489,8.4562,8.537,8.5426,8.6441,8.755,8.8426,8.9131,9.0129,9.2035,9.1245,9.0418,9.0008,9.0383,9.0921,9.1311,9.2184,9.3093,9.3697,9.5315,9.692,9.7875,9.8614,9.9315,9.9853,9.9926,10.0013,10.0151,10.0238,10.0215,10.002,10.0031,9.9922,9.9364,9.8709,9.7989,9.726,9.7078,9.7078,2.4899,2.4265,2.345,2.3374,2.3952,2.574,2.8209,3.1133,3.3568,3.6915,4.1179,4.8662,5.3792,5.7089,6.0899,6.4691,6.8252,7.0639,7.406,7.7963,8.0788,8.3622,8.6632,8.974,9.297,9.6106,9.8779,10.1697,10.4876,10.6936,10.8548,10.9589,10.9902,10.9858,10.9504,10.822,10.7333,10.6978,10.6995,10.6353,10.4946,10.2995,10.1223,9.9656,9.8452,9.6482,9.3705,9.1566,8.9811,8.8473,8.5974,8.4164,8.3317,7.9756,7.6934,0.0,7.1979,0.0,0.0,0.0,0.0,0.0,0.0,0.0,0.0,7.509,7.7907,8.2451,8.3155,8.4117,8.5933,8.5455,8.542,8.6646,8.7478,8.7972,8.8259,8.9553,9.0347,9.0176,9.1635,9.2684,9.2576,9.3367,9.4231,9.4975,9.5273,9.5084,9.4468,9.4137,9.4324,9.5178,9.5615,9.6256,9.7492,9.8297,9.9114,10.0428,10.1013,10.1719,10.2189,10.2425,10.2587,10.273,10.2621,10.2527,10.212,10.1975,10.167,10.0841,10.0427,9.9933,9.8953,9.8589,9.8636,2.5561,2.493,2.3831,2.3601,2.4223,2.4555,2.6155,2.8611,3.1127,3.5131,4.0668,4.6169,5.0598,5.3974,5.7825,6.1352,6.4922,6.8409,7.2449,7.6639,7.9569,8.289,8.6428,8.9819,9.2832,9.5705,9.9324,10.2838,10.6201,10.9106,11.0984,11.1885,11.2569,11.2367,11.1259,0.0,0.0,0.0,10.6547,10.6257,10.6227,10.3133,10.1013,10.006,9.7588,0.0,9.3043,9.0836,8.91,8.7694,8.6264,0.0,0.0,0.0,0.0,0.0,0.0,0.0,0.0,0.0,0.0,0.0,7.473,7.4796,7.5288,7.8632,8.2042,8.4916,8.5652,8.6833,8.8841,8.9406,9.0008,9.0878,9.1657,9.2153,9.2188,9.3026,9.3746,9.4383,9.5268,9.6083,9.6614,9.7129,9.7581,9.8318,9.8798,9.9109,9.9332,9.7861,9.7076,9.7789,9.842,9.9276,10.0204,10.0601,10.0793,10.1259,10.1673,10.206,10.2332,10.2551,10.2606,10.2732,10.2696,10.266,10.2442,10.2316,10.2062,10.1954,10.1193,10.0472,9.9926,9.9796,9.9832,2.6082,0.0,2.3917,2.3399,0.0,2.3408,2.4423,2.6077,2.9104,3.3614,3.9221,4.3173,4.7167,5.1375,5.4863,5.8551,6.2585,6.6632,7.0862,7.5102,7.9004,8.2849,8.6823,9.0683,9.4186,9.7507,10.1024,10.4312,10.7435,11.0226,11.2194,11.3288,11.3938,11.3823,11.2996,11.2396,11.0848,10.8314,10.7935,10.7289,10.641,10.4635,10.2595,10.0399,9.8423,0.0,0.0,0.0,0.0,0.0,0.0,0.0,0.0,8.2797,0.0,7.9977,7.7961,7.6692,7.6537,7.6251,7.6893,7.8774,8.019,8.0577,7.9534,8.2984,8.6019,8.7981,8.9143,9.0634,9.2623,9.3155,9.3959,9.5155,9.5688,9.5937,9.6008,9.6648,9.7252,9.7678,9.8389,9.9029,9.9385,9.9519,9.9795,10.0151,10.0258,10.0543,10.1113,10.0178,9.9419,9.9776,10.0133,10.074,10.1418,10.1792,10.2166,10.255,10.2886,10.3171,10.3171,10.3265,10.3395,10.3395,10.3395,10.3287,10.2854,10.2688,10.2451,10.209,10.1601,10.1025,10.058,10.0075,9.9822,2.6533,2.584,2.4149,2.3135,2.2491,2.2457,2.3081,2.4575,0.0,0.0,0.0,3.9952,4.4026,4.8742,5.2169,5.605,6.0549,6.4859,6.9132,7.3592,7.8362,8.287,8.7169,9.1376,9.5473,9.939,10.2629,10.5777,10.8588,11.1157,11.3112,11.4447,11.5024,11.5018,11.4493,11.3681,11.2229,11.0303,10.9807,10.878,10.7071,10.6549,10.461,10.1168,9.9896,9.7855,9.4933,9.3626,9.2318,9.0868,8.9532,8.8389,8.7597,8.548,8.3727,8.2604,8.1043,8.014,8.0073,7.9871,8.0614,8.2582,8.5276,8.6228,8.4535,8.7124,8.9633,9.1316,9.2752,9.4393,9.6434,9.6708,9.7373,9.8955,9.9098,9.9134,9.9312,10.0026,10.0561,10.0775,10.1418,10.181,10.1703,10.1604,10.1497,10.1354,10.1227,10.1132,10.1766,10.1511,10.1184,10.1255,10.1326,10.1505,10.2103,10.2417,10.2901,10.323,10.3706,10.4071,10.4107,10.4107,10.4168,10.4156,10.4168,10.388,10.3341,10.3101,10.2886,10.2179,10.1832,10.1546,10.0864,9.9968,9.9452,2.6763,2.6068,2.4284,2.3092,2.2413,2.2472,2.3266,2.4995,2.8218,3.0586,3.2187,3.7192,4.1531,4.5448,4.9478,5.3664,5.7978,6.2902,6.7834,7.2884,7.7214,8.1995,8.6877,9.1056,9.4928,9.9067,10.3381,10.6773,10.9375,11.2336,11.4579,11.6074,11.6802,11.6584,11.5551,11.4971,11.4094,11.2858,11.0969,11.006,11.0137,10.8048,10.5839,10.3464,10.1464,9.9326,9.6955,9.5455,9.392,9.2353,9.1241,8.9964,8.8437,8.7235,8.6269,8.5339,8.4831,8.4385,8.3862,8.3723,8.4611,8.6457,8.9107,9.0087,8.8758,9.0179,9.2185,9.4285,9.5498,9.696,9.878,9.919,9.9679,10.0561,10.0704,10.0954,10.1632,10.2381,10.3095,10.3701,10.4594,10.4665,10.3957,10.3784,10.3397,10.2797,10.2237,10.2346,10.2278,10.2417,10.2382,10.2346,10.2346,10.2417,10.2521,10.2627,10.273,10.2769,10.3178,10.348,10.348,10.3778,10.4071,10.4168,10.4071,10.3999,10.3856,10.3635,10.3294,10.2945,10.2217,10.1452,10.1203,10.0138,9.9163,2.7032,2.5872,2.3887,2.2469,2.179,2.1932,2.2557,2.3435,2.6196,2.8166,3.0113,3.5085,3.9531,4.3592,4.7374,5.1723,5.6436,6.1447,6.6509,7.1822,7.653,8.1661,8.6957,9.1229,9.5566,10.0078,10.4055,10.7462,11.0097,11.2764,11.4863,11.6475,11.7325,11.7413,11.6753,11.6349,11.5776,11.4968,11.2856,11.1634,11.125,10.9595,10.7653,10.55,10.3714,10.1753,9.9475,9.8355,9.6832,9.4722,9.3769,9.2442,9.0905,8.9815,8.905,8.8328,8.7906,8.7369,8.6822,8.7304,8.7955,8.8922,9.1519,9.2962,9.2471,9.3309,9.453,9.609,9.7384,9.8787,10.0326,10.1026,10.1695,10.268,10.3107,10.3499,10.4023,10.4379,10.467,10.4959,10.528,10.5283,10.4859,10.4614,10.433,10.3549,10.288,10.2246,10.1926,10.1926,10.2069,10.2492,10.2597,10.2597,10.2597,10.2597,10.2597,10.2597,10.2804,10.2975,10.301,10.3214,10.328,10.328,10.338,10.328,10.328,10.3178,10.2975,10.2975,10.2556,10.1959,10.1393,10.0052,9.8879,2.6789,2.5638,2.3632,2.1953,2.0794,2.1245,2.1695,2.2145,2.42,2.6068,2.8487,3.3124,3.7776,4.1928,4.5539,4.9864,5.5069,6.0184,6.539,7.0725,7.5845,8.1255,8.6808,9.0866,9.5542,10.0648,10.4251,10.7473,11.0575,11.2956,11.4993,11.6649,11.7584,11.7887,11.7602,11.7336,11.6982,11.6454,11.4822,11.3358,11.2202,11.1045,10.9493,10.7532,10.6212,10.4573,10.2384,10.1347,9.9838,9.7636,9.6486,9.5117,9.3595,9.2616,9.1813,9.12,9.0479,8.9748,8.9111,9.0115,9.0736,9.077,9.3128,9.4747,9.4978,9.5571,9.6456,9.7569,9.8726,9.9991,10.1329,10.221,10.3128,10.4152,10.4861,10.525,10.5707,10.5778,10.5745,10.5642,10.5713,10.5607,10.5216,10.5074,10.4542,10.3481,10.2491,10.1711,10.1274,10.1164,10.1494,10.1926,10.2246,10.214,10.214,10.214,10.214,10.214,10.2246,10.2246,10.2246,10.2352,10.2352,10.2457,10.2457,10.2457,10.2352,10.2352,10.2246,10.2246,10.2069,10.1787,10.066,9.9604,9.8476,2.631,2.4921,2.314,2.1386,2.0132,2.0132,2.0802,2.1944,2.298,2.4831,2.7245,3.1542,3.6036,4.0728,4.412,4.8439,5.3478,5.9158,6.4391,6.9352,7.4964,8.0541,8.5668,8.9053,9.3861,9.9843,10.3174,10.665,11.0538,11.314,11.5483,11.7318,11.785,11.7889,11.7681,11.7317,11.7214,11.7376,11.6521,11.5267,11.3667,11.2394,11.1043,10.9436,10.8671,10.7538,10.5652,10.4174,10.2477,10.09,9.9215,9.7496,9.5924,9.521,9.436,9.3297,9.2489,9.1614,9.0489,9.1509,9.2279,9.2534,9.4018,9.5136,9.517,9.6108,9.7354,9.8514,9.9292,10.0245,10.2084,10.2803,10.348,10.415,10.4719,10.5181,10.5783,10.5924,10.6208,10.6916,10.681,10.6739,10.5849,10.5493,10.46,10.293,10.1764,10.0907,10.083,10.083,10.0717,10.0942,10.0907,10.1018,10.1053,10.1053,10.1164,10.1129,10.1239,10.1349,10.1458,10.1676,10.1819,10.1819,10.1819,10.1819,10.1711,10.1567,10.1349,10.1423,10.1099,10.0565,9.9274,9.8502,9.8056,2.611,2.4508,2.2596,2.0697,1.8802,1.8802,1.9261,2.0186,2.1615,2.3471,2.5741,2.8912,3.3641,3.928,4.2543,4.6779,5.1794,5.7332,6.2989,6.8349,7.418,7.9761,8.5058,8.9268,9.3925,9.8946,10.2179,10.5797,10.9913,11.372,11.6325,11.7469,11.7823,11.7835,11.7683,11.7733,11.7637,11.7208,11.7022,11.6347,11.5118,11.4092,11.2806,11.1318,11.0014,10.8554,10.6853,10.5488,10.4009,10.245,10.0729,9.9095,9.7444,9.6349,9.5297,9.4308,9.3339,9.2667,9.2151,9.243,9.26,9.26,9.3621,9.4345,9.4635,9.5394,9.6465,9.7428,9.8513,9.9676,10.0793,10.2048,10.3084,10.3694,10.4654,10.558,10.6084,10.6154,10.6295,10.6353,10.6388,10.6205,10.5636,10.4787,10.3826,10.2762,10.1482,10.0491,10.0343,10.0114,9.9883,9.9802,9.9685,10.0033,10.057,10.083,10.083,10.083,10.0907,10.0907,10.0907,10.1018,10.1129,10.1129,10.1129,10.1164,10.1129,10.1129,10.0907,10.0802,10.0273,9.9528,9.8486,9.7598,9.6837,2.5663,2.3828,2.1756,1.9444,1.7594,1.7588,1.7826,1.8755,2.0146,2.1987,2.4049,2.6558,3.0868,3.6289,4.0402,4.5021,4.9933,5.5286,6.1113,6.6984,7.2715,7.8529,8.3932,8.8931,9.3481,9.7851,10.1648,10.5903,11.0444,11.4115,11.656,11.7504,11.7833,11.7819,11.7658,11.7988,11.7853,11.7294,11.7414,11.7073,11.6257,11.527,11.4089,11.2679,11.1199,10.962,10.8159,10.6588,10.5146,10.3857,10.1909,10.0194,9.8821,9.7386,9.608,9.459,9.3531,9.2909,9.2613,9.2479,9.2411,9.2343,9.2928,9.3454,9.3821,9.4347,9.491,9.5574,9.6739,9.7867,9.959,10.0924,10.2002,10.2872,10.4216,10.5192,10.5634,10.5819,10.5668,10.5471,10.5471,10.5354,10.4945,10.3752,10.2746,10.2456,10.1047,9.9883,9.9651,9.945,9.9214,9.9009,9.9009,9.9332,10.0149,10.0229,10.0378,10.0378,10.0263,10.0263,10.0229,10.0263,10.0229,10.0114,10.0263,10.0263,10.0149,10.0263,10.0056,9.9848,9.9319,9.848,9.74,9.6509,9.5811,2.4976,2.3139,2.0146,1.8059,1.6896,1.6896,1.7129,1.7594,1.8523,2.0139,2.2424,2.4499,2.7677,3.2195,3.7702,4.2928,4.7684,5.3436,5.8915,6.3958,7.0688,7.6606,8.1837,8.7277,9.2382,9.7054,10.1475,10.6922,11.2861,11.4593,11.6088,11.7592,11.7798,11.7819,11.7636,11.7781,11.7777,11.7575,11.7577,11.7343,11.6746,11.5825,11.4654,11.3279,11.2314,11.1089,10.991,10.751,10.5838,10.5145,10.2541,10.078,9.9897,9.8556,9.6492,9.4222,9.3091,9.2256,9.1466,9.1748,9.1932,9.1686,9.2058,9.2647,9.2551,9.2647,9.2993,9.3688,9.3962,9.5241,9.7798,9.9108,10.0405,10.1777,10.2521,10.3332,10.4263,10.4384,10.4522,10.4401,10.4401,10.4332,10.4298,10.2851,10.1905,10.1373,10.0138,9.8975,9.8975,9.9009,9.8889,9.8889,9.8889,9.9009,9.9129,9.9214,9.9248,9.9248,9.9332,9.9095,9.9129,9.9129,9.9129,9.9095,9.9214,9.9214,9.9129,9.8924,9.8616,9.8426,9.7898,9.7179,9.6221,9.5764,9.5102,2.3239,2.0139,1.7588,1.6192,1.5726,1.4798,1.4798,1.5498,1.6663,1.8052,2.0124,2.2424,2.5616,2.948,3.3479,3.8757,4.5317,5.1289,5.6578,6.1814,6.8355,7.4018,7.8988,8.4625,8.9868,9.4486,9.9656,10.5488,11.1647,11.3999,11.5592,11.6719,11.7571,11.7739,11.753,11.8025,11.7936,11.7206,11.7446,11.7165,11.5919,11.4923,11.3704,11.2336,11.1659,11.0515,10.8866,10.7262,10.5939,10.4881,10.2446,10.0674,9.9318,9.6752,9.4872,9.3798,9.2365,9.1445,9.0937,9.063,9.0496,9.035,9.0391,9.0516,9.0695,9.0695,9.0988,9.1393,9.1682,9.2666,9.3979,9.63,9.8172,9.8932,10.0109,10.1064,10.1961,10.229,10.2586,10.2995,10.3132,10.2961,10.2416,10.1439,10.0533,9.9989,9.8859,9.8228,9.8003,9.7879,9.7755,9.7755,9.7755,9.7755,9.7755,9.8371,9.8614,9.8614,9.8614,9.8493,9.8371,9.8405,9.8371,9.8337,9.8337,9.8167,9.8065,9.7692,9.7386,9.6741,9.6368,9.5841,9.4874,9.4502,9.3977,2.1441,1.8065,1.572,1.4554,1.4093,1.2924,1.2695,1.3397,1.456,1.5953,1.7807,2.0117,2.3072,2.6433,2.9791,3.46,4.1115,4.786,5.3916,5.9172,6.5422,7.1059,7.6457,8.2081,8.7322,9.2346,9.8481,10.4614,11.0118,11.2832,11.4685,11.6235,11.7063,11.7364,11.7373,11.8137,11.7944,11.6972,11.7117,11.6677,11.4983,11.3685,11.2442,11.0898,11.0207,10.9363,10.8071,10.6842,10.5646,10.4421,10.219,10.0109,9.8019,9.505,9.3191,9.2792,9.1103,9.0016,8.9867,8.9234,8.8747,8.841,8.8073,8.7798,8.7951,8.7768,8.7951,8.8223,8.8891,8.9252,9.0266,9.2588,9.4815,9.6062,9.736,9.8486,9.945,9.9846,10.0476,10.1178,10.1581,10.1346,10.0707,10.0002,9.9262,9.8523,9.7563,9.7,9.6967,9.6839,9.6583,9.6583,9.6712,9.6712,9.6712,9.706,9.7597,9.763,9.7755,9.763,9.7597,9.7597,9.7563,9.7563,9.7394,9.7192,9.6855,9.6574,9.5878,9.517,9.4867,9.4442,9.3749,9.3192,9.2836,1.9351,1.6681,1.4788,1.3163,1.2236,1.129,1.1286,1.152,1.2452,1.3616,1.5015,1.7575,2.0267,2.3317,2.6456,3.0542,3.5436,4.2902,4.9872,5.5846,6.1951,6.7825,7.3781,7.9388,8.5213,9.086,9.8652,10.4631,10.8728,11.1092,11.3427,11.5658,11.6384,11.6852,11.7206,11.7982,11.7781,11.6771,11.6649,11.5845,11.3855,11.2406,11.0852,10.9102,10.7981,10.7523,10.7947,10.612,10.4943,10.4163,10.1784,9.8848,9.6141,9.3591,9.2061,9.1287,8.9513,8.8378,8.7884,8.7386,8.6727,8.6102,8.5338,8.4882,8.4575,8.4161,8.3992,8.4395,8.5066,8.5834,8.645,8.7982,9.0556,9.3969,9.4691,9.54,9.6539,9.7381,9.7916,9.8914,9.9645,9.9877,9.9215,9.8387,9.7625,9.6929,9.63,9.5738,9.5738,9.5771,9.5902,9.5771,9.5771,9.564,9.564,9.564,9.6196,9.6617,9.6712,9.6712,9.6645,9.6612,9.6283,9.6344,9.5843,9.5576,9.4942,9.4541,9.4207,9.3639,9.3372,9.3138,9.2648,9.2192,9.2281,1.7202,1.5023,1.2578,1.1135,1.0187,0.9195,0.8703,0.8706,0.9638,1.0575,1.198,1.4311,1.6792,1.9427,2.256,2.6252,3.0918,3.6666,4.3302,5.0804,5.7151,6.2893,6.8469,7.5001,8.2912,9.1534,9.8069,10.2785,10.6251,10.9596,11.2572,11.4665,11.593,11.6677,11.7167,11.7903,11.7631,11.6383,11.6124,11.5102,11.3268,11.1396,10.9529,10.779,10.6325,10.5221,10.4624,10.4458,10.3843,10.2633,10.0588,9.7978,9.4951,9.2227,9.0615,9.0122,8.7863,8.6311,8.6021,8.5155,8.4299,8.3622,8.3139,8.2494,8.2118,8.1695,8.1684,8.1846,8.2239,8.2633,8.3555,8.4273,8.6717,9.0408,9.1564,9.2574,9.3786,9.4935,9.589,9.6398,9.6831,9.6636,9.6394,9.5937,9.5643,9.4958,9.4567,9.4436,9.4436,9.4436,9.4436,9.4436,9.4436,9.4572,9.4572,9.4572,9.4707,9.5276,9.5541,9.5639,9.5441,9.5309,9.5111,9.4649,9.4186,9.3658,9.303,9.2633,9.2369,9.2039,9.1615,9.1417,9.1252,9.1345,9.1596,1.5418,1.3223,1.0774,0.9321,0.8603,0.7591,0.6859,0.6854,0.7304,0.7761,0.8696,1.1036,1.3542,1.5969,1.8403,2.2104,2.6814,3.0859,3.6546,4.4118,5.1884,5.8147,6.4134,7.2765,8.1373,8.9992,9.5764,10.0266,10.4017,10.7665,11.0913,11.3397,11.5101,11.6105,11.6719,11.7367,11.7191,11.62,11.554,11.4426,11.2734,11.0699,10.8782,10.7032,10.5148,10.3717,10.2569,10.2387,10.186,10.0675,9.8653,9.6119,9.3554,9.0829,8.9167,8.8424,8.6483,8.4631,8.4262,8.318,8.2084,8.1376,8.0532,7.9773,7.9044,7.8597,7.8401,7.8234,7.8792,7.924,7.9911,8.1283,8.311,8.5367,8.792,8.9597,9.1025,9.2215,9.3216,9.375,9.4296,9.4186,9.3914,9.3976,9.3687,9.3109,9.2917,9.3057,9.3057,9.3197,9.3197,9.3369,9.3508,9.3508,9.3508,9.3369,9.3369,9.3785,9.4197,9.4176,9.4082,9.3853,9.3625,9.2775,9.2187,9.1894,9.1337,9.1044,9.0783,9.0359,9.0325,9.0422,9.055,9.0711,9.0966,1.3813,1.1331,0.9401,0.7958,0.6992,0.5984,0.5248,0.524,0.5203,0.4948,0.5415,0.7758,1.0288,1.2511,1.445,1.7709,2.2005,2.5979,3.0193,3.6566,4.4718,5.2855,6.1419,7.161,7.9883,8.6477,9.1902,9.7039,10.1607,10.5248,10.8686,11.2,11.3827,11.5156,11.5988,11.6707,11.672,11.6069,11.5105,11.3916,11.241,11.0308,10.8273,10.6256,10.4438,10.2719,10.1511,9.9736,9.9037,9.8945,9.6156,9.3689,9.1717,8.9395,8.7715,8.7127,8.4783,8.3306,8.2511,8.1119,7.9923,7.8942,7.7929,7.6639,7.5354,7.4896,7.4482,7.4139,7.5003,7.5644,7.6258,7.7744,7.9377,8.0533,8.417,8.6982,8.8471,8.9299,9.0066,9.098,9.1869,9.2419,9.1698,9.2079,9.1942,9.1564,9.1343,9.1488,9.1633,9.1777,9.2097,9.224,9.224,9.224,9.224,9.224,9.2176,9.1968,9.2423,9.265,9.2676,9.2353,9.1939,9.1129,9.051,9.0057,8.9931,8.9834,8.9737,8.9607,8.9641,8.9903,8.9903,9.0066,8.9903,1.2753,1.1515,0.8285,0.5837,0.3887,0.2171,0.1442,0.1441,0.1431,0.1662,0.2371,0.4246,0.609,0.7891,1.0109,1.2961,1.6875,2.0694,2.4966,2.9911,3.5855,4.7618,5.9508,6.8202,7.5343,8.1509,8.7488,9.3064,9.7944,10.2657,10.6772,11.0326,11.2359,11.4305,11.5838,11.6327,11.6262,11.5766,11.4914,11.3598,11.1875,10.9754,10.7756,10.5811,10.3392,10.1479,9.9736,9.6784,9.5322,9.5239,9.3378,9.1389,8.9833,8.7574,8.5939,8.5106,8.3132,8.1327,8.0478,7.9059,7.751,7.6418,7.5269,7.3829,7.2682,7.1946,7.1666,7.1692,7.1998,7.2409,7.2951,7.4024,7.5584,7.7994,8.1266,8.4194,8.5258,8.5831,8.643,8.7598,8.8123,8.8745,8.9176,8.9573,8.9663,8.9748,8.9686,8.9836,8.9985,9.0314,9.0642,9.0642,9.0642,9.082,9.0967,9.0967,9.0748,9.0245,9.0378,9.089,9.0915,9.0959,9.0156,8.9258,8.9154,8.8731,8.877,8.884,8.8776,8.861,8.8744,8.8846,8.8878,8.8878,8.8626,1.1088,0.9866,0.6385,0.3432,0.0735,-0.0729,-0.1939,-0.3145,-0.3364,-0.2628,-0.1428,-0.0,0.1882,0.3967,0.6013,0.8933,1.2245,1.57,2.0012,2.5173,3.1965,4.354,5.6102,6.4062,7.0224,7.6706,8.2918,8.8761,9.4086,9.9325,10.3903,10.7834,11.0613,11.3008,11.5193,11.5773,11.5977,11.5745,11.4796,11.3387,11.2074,10.9704,10.7801,10.5781,10.3392,10.0986,9.8132,9.5127,9.3353,9.2512,9.1096,8.9352,8.7987,8.5958,8.425,8.3258,8.125,7.9479,7.8184,7.6736,7.5302,7.4025,7.263,7.1316,7.0194,6.9531,6.9351,6.8989,6.917,6.9501,6.9934,7.1089,7.2682,7.4673,7.7471,8.004,8.1859,8.2927,8.3592,8.4416,8.5097,8.5742,8.6569,8.7042,8.7542,8.7698,8.8009,8.8133,8.8287,8.8686,8.9022,8.9144,8.9416,8.9717,8.9681,8.9588,8.9308,8.8694,8.8129,8.8598,8.8832,8.8943,8.848,8.7708,8.7613,8.755,8.7688,8.7688,8.7518,8.7518,8.7656,8.7794,8.7762,8.7812,8.7462,0.89,0.717,0.3956,0.0494,-0.2221,-0.2943,-0.489,-0.7563,-0.751,-0.6734,-0.55,-0.4531,-0.2134,0.0235,0.1866,0.4857,0.8479,1.1091,1.5664,2.1698,2.9573,4.0025,4.985,5.8123,6.4999,7.1497,7.8074,8.4244,9.0006,9.5257,10.038,10.4782,10.8271,11.1351,11.3593,11.4784,11.5638,11.5724,11.4761,11.3474,11.2207,11.0148,10.8173,10.619,10.344,10.0489,9.7085,9.4319,9.2363,9.0867,8.9256,8.7705,8.6146,8.4308,8.2584,8.0954,7.9483,7.7561,7.5668,7.4511,7.3147,7.1654,7.0452,6.9214,6.8009,6.7188,6.6633,6.6448,6.6658,6.6843,6.7309,6.8573,7.0004,7.141,7.2479,7.4963,7.7849,8.0027,8.092,8.1434,8.2788,8.3289,8.3981,8.4638,8.5479,8.5801,8.6121,8.6251,8.6599,8.7103,8.7573,8.7884,8.8163,8.8747,8.8471,8.8195,8.7765,8.7155,8.6144,8.6072,8.6451,8.6452,8.6428,8.629,8.64,8.64,8.64,8.6259,8.6259,8.6541,8.6823,8.6728,8.6634,8.6705,8.66,0.7532,0.4519,0.0502,-0.2754,-0.548,-0.646,-0.7422,-0.8848,-0.8781,-0.8744,-0.823,-0.6499,-0.5257,-0.4505,-0.2823,0.0233,0.439,0.7059,1.1442,1.9287,2.5547,3.2325,4.0951,4.9992,5.8795,6.5594,7.2396,7.8951,8.5239,9.1208,9.669,10.1195,10.5559,10.908,11.1616,11.3697,11.4848,11.5124,11.4846,11.3815,11.2154,11.0466,10.85,10.6567,10.2948,9.9578,9.6661,9.3442,9.1073,8.9072,8.7498,8.59,8.4196,8.2296,8.0801,7.9176,7.7529,7.5747,7.4047,7.2615,7.108,6.9529,6.8153,6.6821,6.5659,6.4765,6.4388,6.4199,6.4199,6.4388,6.4812,6.5589,6.6868,6.8011,6.9279,7.0454,7.2414,7.5172,7.7377,7.8828,7.9531,8.0229,8.1633,8.1944,8.2816,8.3679,8.4039,8.4368,8.4859,8.5317,8.5801,8.6121,8.6389,8.6742,8.6566,8.6114,8.5481,8.5089,8.4215,8.3703,8.4092,8.4625,8.4735,8.4966,8.54,8.54,8.5256,8.5545,8.5688,8.5831,8.5912,8.5805,8.5556,8.5665,8.5303,0.6053,0.1766,-0.1766,-0.5287,-0.8281,-0.9026,-0.9999,-1.1188,-1.1353,-1.1535,-1.1727,-1.019,-0.9391,-0.8841,-0.7591,-0.4706,-0.0232,0.4112,0.9008,1.5179,2.0826,2.6602,3.2325,4.1432,5.0358,5.925,6.6455,7.3301,8.0102,8.6427,9.23,9.7723,10.2359,10.6556,10.988,11.225,11.375,11.4488,11.4701,11.3992,11.2401,11.1084,10.8725,10.5984,10.2426,9.922,9.6659,9.3662,9.0751,8.8198,8.604,8.4392,8.2513,8.0588,7.8898,7.7252,7.5475,7.3603,7.1846,7.0517,6.8996,6.7583,6.5926,6.4744,6.3546,6.2675,6.2099,6.2099,6.2099,6.2099,6.2506,6.2834,6.3844,6.4712,6.5996,6.7093,6.8489,7.1658,7.4485,7.5774,7.6502,7.7404,7.8297,7.9181,8.0055,8.092,8.1973,8.2142,8.248,8.3151,8.3679,8.4088,8.4287,8.4508,8.4344,8.3914,8.3027,8.2584,8.2023,8.1941,8.2219,8.2769,8.3191,8.361,8.4203,8.4203,8.4203,8.4643,8.4728,8.4728,8.472,8.4526,8.4208,8.3794,8.3581,0.4313,-0.0507,-0.355,-0.709,-1.036,-1.0605,-1.2094,-1.4322,-1.4747,-1.4888,-1.5292,-1.4694,-1.3373,-1.2545,-1.1988,-0.9502,-0.4445,0.115,0.6582,1.058,1.585,2.1254,2.7021,3.4124,4.227,5.2775,6.0447,6.762,7.4619,8.1175,8.7308,9.3519,9.8896,10.3054,10.7168,11.0494,11.2265,11.3274,11.4051,11.392,11.294,11.1877,10.9499,10.6095,10.3094,10.0344,9.771,9.4545,9.1278,8.8012,8.5424,8.3075,8.1017,7.9101,7.701,7.5168,7.3447,7.1517,6.9668,6.8206,6.7045,6.5506,6.3779,6.2499,6.1592,6.0548,5.9984,5.9984,5.9984,5.9984,5.9984,6.0202,6.0811,6.1599,6.2633,6.3824,6.546,6.8876,7.0657,7.2426,7.3741,7.4855,7.5774,7.6683,7.7431,7.8146,7.9181,8.0027,8.0346,8.0608,8.1208,8.1885,8.2044,8.2022,8.1811,8.1482,8.0672,8.0571,7.9891,8.0236,8.0423,8.0864,8.1485,8.2405,8.286,8.3011,8.3041,8.3219,8.3338,8.3398,8.33,8.3129,8.258,8.1918,8.1776,0.1825,-0.1556,-0.5707,-0.8757,-1.044,-1.1951,-1.4191,-1.6603,-1.734,-1.8293,-1.8993,-1.7616,-1.6744,-1.5905,-1.5318,-1.1749,-0.6591,-0.1624,0.2522,0.635,1.124,1.6292,2.1925,2.8124,3.5193,4.2939,5.2279,6.1437,6.9145,7.5796,8.2071,8.8137,9.4007,9.8862,10.3019,10.7012,10.9989,11.1502,11.2881,11.3311,11.2924,11.2152,11.0561,10.7381,10.4797,10.2492,9.9694,9.6209,9.2905,9.0146,8.6734,8.3306,8.0321,7.7764,7.5676,7.3791,7.1589,6.9556,6.7802,6.6247,6.4748,6.3278,6.1595,6.0341,5.9455,5.8387,5.7813,5.7813,5.7813,5.7813,5.7813,5.7792,5.8221,5.9157,5.9969,6.0805,6.2039,6.4076,6.6662,6.8826,7.0538,7.2286,7.2992,7.3902,7.4752,7.5434,7.6471,7.7288,7.7741,7.808,7.8588,7.9058,7.9491,7.9436,7.9206,7.889,7.8325,7.8707,7.8613,7.8802,7.9124,7.9312,7.9762,8.0532,8.1367,8.1764,8.1769,8.1806,8.187,8.205,8.1807,8.1498,8.1106,8.0683,8.0607,0.0263,-0.2621,-0.7602,-1.0699,-1.2183,-1.4748,-1.7,-1.8919,-2.0104,-2.1027,-2.1163,-2.0512,-1.9915,-1.9575,-1.9158,-1.5205,-0.9478,-0.586,-0.1855,0.2521,0.703,1.1701,1.6969,2.3231,2.9192,3.583,4.4374,5.4298,6.3378,7.0081,7.6454,8.2991,8.9097,9.4192,9.8554,10.3094,10.6581,10.8721,11.0905,11.246,11.291,11.2632,11.1113,10.8647,10.6172,10.3704,10.0775,9.7482,9.3919,9.0638,8.7248,8.3735,8.028,7.7259,7.4364,7.2152,6.9722,6.78,6.6162,6.4414,6.2575,6.1367,5.9579,5.8105,5.7283,5.6192,5.5608,5.5608,5.5608,5.5608,5.5608,5.5608,5.5708,5.6295,5.7106,5.7939,5.8817,6.0431,6.2546,6.5074,6.6998,6.8581,7.018,7.1044,7.1897,7.2739,7.357,7.4338,7.5066,7.5497,7.5712,7.6351,7.6748,7.6996,7.6868,7.6677,7.6484,7.6816,7.7146,7.7338,7.7638,7.7773,7.8034,7.858,7.9358,7.9946,8.0396,8.0353,8.0517,8.0494,8.005,7.9841,7.969,7.9507,7.9322,-0.106,-0.4496,-0.8977,-1.2124,-1.4196,-1.6809,-1.9352,-2.1311,-2.247,-2.3613,-2.4203,-2.3488,-2.3138,-2.2805,-2.1268,-1.7983,-1.2413,-0.9944,-0.5622,-0.116,0.3428,0.792,1.3034,1.848,2.4693,3.0233,3.6923,4.5801,5.6936,6.423,7.074,7.6971,8.3395,8.901,9.3588,9.8087,10.2046,10.5302,10.8021,11.0122,11.2024,11.2738,11.1984,10.9569,10.7253,10.5005,10.2568,9.9515,9.5904,9.2412,8.8797,8.5071,8.1167,7.7376,7.3939,7.0591,6.8246,6.6211,6.4367,6.2373,6.0754,5.9481,5.7555,5.6228,5.5056,5.3965,5.3352,5.3371,5.3371,5.3352,5.3352,5.3352,5.3371,5.3858,5.4687,5.5723,5.6211,5.7271,5.8557,6.0942,6.3099,6.488,6.6442,6.803,6.8949,6.9713,7.0323,7.1,7.173,7.216,7.2579,7.3421,7.4015,7.4367,7.4418,7.4482,7.4805,7.5312,7.5481,7.5676,7.6096,7.6373,7.6535,7.6661,7.7061,7.7571,7.838,7.893,7.8802,7.864,7.8293,7.8241,7.8302,7.8301,7.8211,-0.2969,-0.805,-0.933,-1.1644,-1.4743,-1.762,-2.0461,-2.278,-2.4291,-2.6083,-2.724,-2.6669,-2.5992,-2.5347,-2.2597,-1.9624,-1.6507,-1.2924,-0.8979,-0.4682,0.0,0.4782,0.949,1.4963,2.017,2.5341,3.1717,4.0701,5.005,5.7327,6.4104,7.0415,7.6598,8.2316,8.6953,9.2089,9.6805,9.9984,10.3402,10.6979,11.0148,11.1932,11.1974,11.1021,10.9499,10.7553,10.4962,10.214,9.9197,9.5759,9.2183,8.7966,8.342,7.9055,7.4498,7.047,6.7266,6.4886,6.2805,6.0448,5.8658,5.7284,5.5651,5.4163,5.2797,5.1688,5.1085,5.1104,5.1085,5.1085,5.1085,5.1085,5.1292,5.1725,5.242,5.3095,5.3564,5.4394,5.5658,5.6597,5.8823,6.0993,6.2857,6.4459,6.5849,6.6406,6.7152,6.7821,6.8598,6.919,6.9864,7.0703,7.1525,7.19,7.2174,7.2394,7.289,7.3608,7.378,7.4096,7.4392,7.4708,7.4743,7.4774,7.5075,7.5231,7.5915,7.6422,7.6759,7.6934,7.674,7.6903,7.709,7.7002,7.7002,-0.33,-0.8717,-1.0032,-1.2422,-1.587,-1.9008,-2.1833,-2.4107,-2.6094,-2.7808,-2.8717,-2.9294,-2.9084,-2.8308,-2.5613,-2.2803,-1.9839,-1.6432,-1.2417,-0.826,-0.3722,0.0919,0.592,1.0592,1.5407,2.081,2.6397,3.2325,4.1416,5.0262,5.7857,6.3905,6.9644,7.5172,8.0062,8.5387,9.0133,9.5222,10.0948,10.5572,10.7527,10.9291,11.0306,10.9575,10.8834,10.7607,10.5935,10.4106,10.1239,9.7912,9.4519,9.057,8.5694,8.0923,7.6057,7.0718,6.6685,6.3698,6.1071,5.8402,5.6662,5.4933,5.3348,5.1467,5.019,4.94,4.8771,4.8771,4.8771,4.8789,4.8999,4.8999,4.9418,4.9836,5.0462,5.0896,5.133,5.2026,5.2816,5.3493,5.4414,5.6802,5.9031,6.0648,6.204,6.3132,6.4039,6.4913,6.5659,6.6507,6.7246,6.7862,6.8726,6.9581,6.9915,7.0248,7.096,7.1641,7.1816,7.2062,7.2613,7.2691,7.2632,7.2513,7.2416,7.2777,7.3478,7.4409,7.5171,7.5299,7.5239,7.5583,7.5801,7.5953,7.5981,-0.336,-0.9157,-1.0458,-1.3156,-1.6967,-2.0394,-2.2975,-2.5248,-2.7505,-2.9163,-3.0257,-3.1146,-3.1625,-3.0745,-2.8703,-2.5825,-2.2655,-1.9777,-1.5685,-1.1425,-0.7275,-0.2778,0.206,0.6798,1.1223,1.5796,2.1682,2.7246,3.3313,4.1043,4.9276,5.6946,6.2374,6.7492,7.2816,7.7824,8.2803,8.9427,9.7788,10.1853,10.2858,10.4938,10.631,10.6887,10.7066,10.6935,10.6025,10.5063,10.2791,9.9908,9.6818,9.2908,8.8035,8.2824,7.7346,7.1763,6.698,6.2499,5.9429,5.6662,5.4456,5.2599,5.0733,4.8666,4.7822,4.6889,4.6448,4.6448,4.6677,4.6677,4.6889,4.733,4.7753,4.7964,4.8596,4.8807,4.9244,4.9908,5.0553,5.1233,5.2101,5.2664,5.4707,5.6863,5.8301,5.9734,6.079,6.1681,6.2879,6.382,6.4765,6.5469,6.6214,6.7139,6.7531,6.808,6.8964,6.9405,6.9738,6.9993,7.0061,7.0196,7.0152,7.0023,7.0083,7.0372,7.1011,7.2421,7.3785,7.3823,7.3913,7.4353,7.4606,7.476,7.5067,-0.371,-0.9388,-1.0542,-1.3446,-1.7543,-2.0502,-2.3461,-2.6119,-2.8251,-3.024,-3.2069,-3.3068,-3.3135,-3.2216,-3.0684,-2.835,-2.5721,-2.2184,-1.823,-1.414,-1.0154,-0.5816,-0.0919,0.3634,0.7879,1.2265,1.7312,2.2126,2.6868,3.183,4.0404,4.875,5.4341,5.9613,6.4777,7.0144,7.6335,8.3224,9.1409,9.5427,9.6328,9.8394,10.1003,10.4129,10.5758,10.688,10.7095,10.6098,10.471,10.2015,9.9272,9.5412,9.0552,8.497,7.9366,7.3165,6.7082,6.2195,5.8048,5.5045,5.2773,5.0486,4.8047,4.5909,4.5399,4.4758,4.4329,4.4329,4.4758,4.4988,4.5218,4.5449,4.6073,4.6269,4.6694,4.7118,4.7542,4.7964,4.8596,4.9226,4.9627,5.0254,5.1085,5.3229,5.5175,5.6617,5.8221,5.9305,6.0267,6.1281,6.2076,6.2844,6.3797,6.4553,6.5118,6.5795,6.632,6.6835,6.7258,6.7249,6.7338,6.7493,6.7764,6.7902,6.8057,6.8307,6.8821,7.0304,7.1502,7.2199,7.2568,7.3044,7.3516,7.3829,7.4141,-0.373,-0.9139,-1.0733,-1.3733,-1.8125,-2.0712,-2.3636,-2.66,-2.8919,-3.1395,-3.3531,-3.4844,-3.585,-3.522,-3.298,-3.0644,-2.8055,-2.4848,-2.0815,-1.6654,-1.2605,-0.8416,-0.3918,0.0456,0.4757,0.8731,1.3137,1.7279,2.1541,2.5185,2.9897,3.7404,4.4893,5.1435,5.6902,6.3088,6.9771,7.5774,8.2642,8.7011,8.7985,9.0074,9.3191,9.6966,9.9863,10.1549,10.2767,10.4453,10.4144,10.3198,10.1402,9.776,9.3331,8.7644,8.1389,7.4707,6.8058,6.192,5.6416,5.3101,5.022,4.6734,4.4608,4.3468,4.3021,4.2604,4.2403,4.2403,4.2821,4.3221,4.3268,4.3699,4.413,4.4345,4.4758,4.5169,4.5629,4.6039,4.6482,4.7313,4.7542,4.7964,4.8789,4.9645,5.1725,5.3556,5.5366,5.6773,5.775,5.874,5.9745,6.0332,6.1281,6.2268,6.2821,6.3376,6.3664,6.4131,6.4609,6.4703,6.4835,6.5275,6.5538,6.5669,6.6115,6.6334,6.7112,6.8293,6.9459,7.0445,7.1258,7.1769,7.2249,7.2885,7.3201,-0.491,-0.9205,-1.0898,-1.3967,-1.7817,-2.0992,-2.3913,-2.6871,-2.9476,-3.2153,-3.4465,-3.6138,-3.7236,-3.715,-3.4842,-3.211,-2.9488,-2.6537,-2.2686,-1.8959,-1.5087,-1.1063,-0.6962,-0.2753,0.1365,0.5397,0.8711,1.2651,1.6256,1.9498,2.3445,2.8401,3.405,4.0769,4.8992,5.6089,6.2298,6.7103,7.1908,7.677,7.7778,8.0386,8.4324,8.8623,9.228,9.5626,9.8129,10.0479,10.239,10.2357,10.158,9.9704,9.5319,8.9939,8.3368,7.6156,6.8827,6.166,5.5704,5.0596,4.7093,4.3947,4.197,4.1085,4.0431,4.0213,4.0213,4.0213,4.0808,4.1168,4.1385,4.1696,4.2127,4.2296,4.2803,4.3264,4.3636,4.413,4.4774,4.5202,4.5629,4.6056,4.6906,4.7736,4.9609,5.1481,5.3333,5.4556,5.5144,5.6151,5.7173,5.7969,5.8543,5.9527,6.0505,6.0734,6.0953,6.1307,6.1761,6.204,6.224,6.269,6.3291,6.3715,6.4051,6.4353,6.5199,6.6233,6.7594,6.8935,6.9789,7.0608,7.0934,7.1419,7.1769,-0.7583,-0.9324,-1.0991,-1.3781,-1.7395,-2.1053,-2.4328,-2.6955,-2.9936,-3.2941,-3.5129,-3.6126,-3.7153,-3.7375,-3.5587,-3.3382,-3.0903,-2.7705,-2.4326,-2.0815,-1.7593,-1.4025,-1.007,-0.5775,-0.1825,0.2718,0.5611,0.8221,1.1208,1.4255,1.7419,1.9867,2.4413,3.0343,3.9644,4.6554,5.1648,5.5407,5.9738,6.3596,6.722,6.9479,7.3676,7.9326,8.4108,8.7573,9.1775,9.5678,9.8055,10.002,10.0735,9.9113,9.6105,9.095,8.4474,7.6834,6.8654,6.0935,5.3606,4.7374,4.3311,4.1055,3.9323,3.8431,3.7991,3.777,3.7908,3.7812,3.8588,3.9127,3.9228,3.9343,3.9831,4.009,4.0594,4.1099,4.1666,4.208,4.2681,4.3143,4.3652,4.413,4.4988,4.6056,4.7736,4.9627,5.1481,5.2306,5.2718,5.3537,5.4759,5.5568,5.6151,5.6829,5.7739,5.8034,5.8256,5.8617,5.8919,5.9204,5.9676,6.0113,6.0728,6.1671,6.2029,6.2386,6.3097,6.4178,6.552,6.6891,6.8461,6.9459,6.9789,7.0118,7.0445,-0.7296,-0.7874,-1.0463,-1.3326,-1.6157,-1.9724,-2.3011,-2.6035,-3.0063,-3.3323,-3.5324,-3.6441,-3.7491,-3.7365,-3.6477,-3.4492,-3.2739,-2.9648,-2.6483,-2.3415,-2.0331,-1.642,-1.2429,-0.8789,-0.5023,-0.1133,0.1572,0.444,0.8313,0.9844,1.146,1.3901,1.6657,2.388,3.2085,3.8274,4.1604,4.4887,4.8064,5.133,5.5242,5.7826,6.182,6.8869,7.3589,7.8537,8.3663,8.7995,9.2425,9.6279,9.7566,9.8478,9.6489,9.222,8.634,7.8368,6.9825,5.8543,4.8836,4.1135,3.8434,3.7126,3.66,3.5429,3.4676,3.5079,3.521,3.5519,3.6069,3.6626,3.7004,3.7206,3.745,3.7881,3.8353,3.8812,3.9343,3.9992,4.0527,4.1034,4.1541,4.2558,4.3484,4.3915,4.5383,4.6677,4.8333,4.9609,5.0235,5.1085,5.2325,5.2923,5.3702,5.4358,5.4965,5.544,5.5602,5.5732,5.6274,5.6585,5.7141,5.7656,5.858,5.9475,5.9863,6.0227,6.1312,6.2386,6.3274,6.4677,6.6208,6.7594,6.81,6.8435,6.8961,-0.7296,-0.7874,-1.0488,-1.3098,-1.5399,-1.9002,-2.2893,-2.6744,-3.0697,-3.3676,-3.5305,-3.6745,-3.7496,-3.76,-3.6978,-3.5537,-3.427,-3.1661,-2.8427,-2.5538,-2.283,-1.8912,-1.5331,-1.181,-0.8695,-0.5219,-0.2698,-0.0,0.1754,0.4364,0.5818,0.7447,0.9757,1.3747,2.087,2.5707,3.1346,3.4286,3.6986,3.9895,4.34,4.643,5.0257,5.6053,6.1474,6.6879,7.2981,7.8862,8.4763,8.9638,9.3656,9.6356,9.518,9.2542,8.6726,7.8803,6.5021,5.3127,4.1738,3.5296,3.2798,3.1565,3.2138,3.2313,3.1962,3.2147,3.2736,3.3272,3.3559,3.4159,3.4579,3.4795,3.4945,3.5376,3.6114,3.6557,3.7151,3.779,3.8293,3.9027,3.9647,4.0675,4.1722,4.1955,4.2604,4.3899,4.5169,4.6252,4.7736,4.8789,4.9836,5.0651,5.1218,5.1669,5.2405,5.2827,5.2995,5.3091,5.3488,5.4101,5.4841,5.5388,5.6516,5.7284,5.7841,5.8396,5.9681,6.059,6.1312,6.2386,6.3626,6.5,6.6233,6.6916,6.7425,-0.7879,-0.8456,-1.0782,-1.3102,-1.5707,-1.9435,-2.4232,-2.9455,-3.1592,-3.3596,-3.5443,-3.6601,-3.7325,-3.7265,-3.7106,-3.6349,-3.4567,-3.2558,-3.0093,-2.7408,-2.4674,-2.1481,-1.8523,-1.5364,-1.241,-0.9799,-0.7674,-0.6241,-0.574,-0.3487,-0.129,0.0,0.1481,0.4005,0.8003,1.244,1.9044,2.2761,2.5871,2.8855,3.2403,3.5295,3.8791,4.358,4.8468,5.4255,6.028,6.6569,7.3571,7.989,8.6036,8.9832,9.1244,9.0679,8.4656,7.3619,5.649,4.4263,3.4833,2.9709,2.6852,2.5961,2.7397,2.8544,2.926,2.9238,2.9833,3.0389,3.0928,3.1532,3.1929,3.2048,3.2178,3.2895,3.3437,3.4196,3.5011,3.556,3.6235,3.6802,3.7264,3.8314,3.9413,3.9922,4.0402,4.1303,4.2373,4.3253,4.4741,4.6448,4.7507,4.8158,4.8701,4.8977,4.9671,5.0253,5.0391,5.0516,5.1269,5.1774,5.2547,5.3316,5.406,5.482,5.5598,5.6537,5.8026,5.8764,5.9315,6.0386,6.1468,6.292,6.4129,6.5199,6.5814,-0.9041,-0.9327,-1.1363,-1.3392,-1.5707,-2.0323,-2.4831,-2.8337,-3.0612,-3.2913,-3.4626,-3.6545,-3.722,-3.7322,-3.7445,-3.6861,-3.5496,-3.3687,-3.1689,-2.9448,-2.7,-2.4214,-2.1452,-1.8503,-1.5946,-1.4165,-1.2658,-1.139,-1.0571,-0.9349,-0.9487,-0.8762,-0.6985,-0.5907,-0.4421,-0.2104,0.441,1.0299,1.3625,1.7819,2.0959,2.3584,2.6498,2.9971,3.48,4.0812,4.7461,5.3543,6.061,6.8432,7.6495,8.2418,8.8765,8.6708,8.0833,6.2554,4.7771,3.5829,2.87,2.4066,2.1205,1.9997,2.0945,2.3109,2.4523,2.5893,2.6504,2.731,2.8119,2.8511,2.9139,2.9505,2.989,3.0592,3.1308,3.1797,3.2589,3.331,3.3778,3.4592,3.5258,3.6188,3.7278,3.7894,3.8375,3.887,3.9571,4.0649,4.1955,4.3668,4.4955,4.581,4.6381,4.6652,4.7062,4.7641,4.7808,4.7998,4.8792,4.9433,5.0217,5.0978,5.1774,5.2547,5.3487,5.482,5.6537,5.6911,5.7262,5.8211,5.9315,6.0771,6.2208,6.3274,6.3934,-0.9584,-1.0454,-1.2514,-1.4552,-1.7443,-2.1768,-2.5124,-2.779,-3.0127,-3.2173,-3.4225,-3.6115,-3.7045,-3.7129,-3.7811,-3.76,-3.6138,-3.5164,-3.3423,-3.1428,-2.9562,-2.7397,-2.4824,-2.233,-2.0355,-1.8966,-1.786,-1.6767,-1.6088,-1.6112,-1.6395,-1.601,-1.4832,-1.4546,-1.3856,-1.3182,-1.1055,-0.4996,0.0625,0.5636,0.8775,1.0865,1.3325,1.6168,2.0884,2.7059,3.3768,3.9752,4.5667,5.3313,6.1572,7.0882,7.6607,7.6393,6.6823,4.9351,3.643,2.6896,2.0165,1.6902,1.5254,1.4662,1.4736,1.6589,1.9368,2.1205,2.2751,2.4265,2.4891,2.5525,2.6166,2.6816,2.7681,2.8554,2.8985,2.92,2.9924,3.065,3.163,3.2421,3.3522,3.4452,3.5326,3.5961,3.6586,3.7108,3.7591,3.8252,3.9556,4.1085,4.2388,4.3468,4.4034,4.4334,4.4709,4.5288,4.5533,4.5581,4.6163,4.6858,4.7853,4.8842,4.9414,5.0589,5.1561,5.2912,5.4251,5.4652,5.5031,5.5974,5.6911,5.8189,5.9475,6.0951,6.1676,-1.038,-1.1822,-1.3634,-1.6536,-2.0011,-2.3158,-2.5656,-2.7773,-2.9813,-3.1686,-3.3808,-3.5639,-3.679,-3.7164,-3.8132,-3.8116,-3.7155,-3.6308,-3.5318,-3.3148,-3.2158,-3.0717,-2.919,-2.7028,-2.577,-2.447,-2.3701,-2.3479,-2.257,-2.292,-2.3042,-2.2571,-2.3493,-2.3765,-2.3808,-2.3915,-2.2563,-2.0832,-1.4452,-0.8895,-0.5207,-0.2713,-0.0209,0.2286,0.6822,1.2119,1.9219,2.3966,2.7222,3.4532,4.2231,5.2366,5.5323,5.4854,4.3415,3.4979,2.1384,1.5757,1.0809,0.8375,0.8216,0.8248,0.9364,1.0732,1.3216,1.7292,1.9513,2.1132,2.1781,2.2883,2.3538,2.4201,2.4854,2.5732,2.6383,2.7033,2.7713,2.863,2.9549,3.0538,3.1568,3.2471,3.3115,3.3726,3.4442,3.5259,3.6041,3.6263,3.7149,3.8678,3.9994,4.11,4.1692,4.2173,4.232,4.2739,4.306,4.3387,4.3753,4.4447,4.5639,4.6441,4.7256,4.8447,4.961,5.0608,5.1561,5.2142,5.2912,5.3699,5.4441,5.5409,5.689,5.8374,5.9385,-1.2309,-1.3455,-1.6043,-1.8901,-2.1173,-2.3156,-2.5682,-2.8145,-2.9635,-3.1497,-3.3646,-3.5564,-3.6512,-3.7152,-3.8929,-3.895,-3.8277,-3.7885,-3.7433,-3.6066,-3.5116,-3.4287,-3.3514,-3.2241,-3.1092,-3.1126,-3.0695,-3.0584,-3.0124,-3.0224,-3.0838,-3.1437,-3.2175,-3.2812,-3.32,-3.3251,-3.3511,-3.3612,-3.0637,-2.3937,-1.8932,-1.557,-1.2895,-1.1414,-0.8249,-0.3696,0.2034,0.5459,0.9336,1.4865,2.0014,2.4052,2.5506,2.0198,1.4493,0.8161,0.4031,0.0808,0.0,-0.0847,-0.0214,0.1507,0.3028,0.5223,0.8316,1.2987,1.615,1.7319,1.8686,1.9785,2.0889,2.1327,2.221,2.3084,2.3983,2.4854,2.5506,2.662,2.7507,2.8468,2.9467,3.0276,3.0906,3.1554,3.2487,3.3357,3.4407,3.4928,3.4928,3.6028,3.7356,3.8459,3.979,4.0226,4.0187,4.0453,4.0828,4.1131,4.147,4.2227,4.3231,4.4228,4.5254,4.6476,4.7654,4.8447,4.9217,5.0002,5.0784,5.1367,5.2354,5.3487,5.4271,5.5577,5.688,-1.4174,-1.5344,-1.8506,-2.0514,-2.2201,-2.4459,-2.6377,-2.8247,-3.0081,-3.1913,-3.4009,-3.5747,-3.6779,-3.7415,-3.919,-4.0054,-3.9579,-3.9475,-3.946,-3.8688,-3.8378,-3.8009,-3.7464,-3.7149,-3.6696,-3.6366,-3.7179,-3.7153,-3.7523,-3.8266,-3.9049,-3.9984,-4.09,-4.1746,-4.246,-4.2916,-4.3445,-4.3696,-4.3403,-3.9871,-3.3174,-2.9541,-2.5735,-2.4105,-2.1783,-1.7978,-1.585,-1.2484,-1.051,-0.6126,-0.1179,-0.1616,-0.1497,-0.4054,-0.7917,-1.1364,-1.3707,-1.4102,-1.2429,-1.0393,-0.843,-0.5938,-0.278,-0.0643,0.195,0.6303,1.0268,1.2055,1.4943,1.648,1.7582,1.8234,1.9544,2.0851,2.1607,2.2326,2.3493,2.4664,2.5762,2.6888,2.7632,2.8151,2.8956,2.9733,3.0661,3.167,3.2502,3.3092,3.3328,3.3824,3.4928,3.5806,3.7149,3.7881,3.8174,3.8483,3.8836,3.8939,3.9226,4.0187,4.1186,4.2211,4.3231,4.4447,4.5455,4.5857,4.684,4.7835,4.8249,4.8842,5.0021,5.1581,5.2161,5.2912,5.4195,-1.596,-1.7747,-2.0654,-2.2409,-2.3279,-2.5794,-2.7658,-2.8639,-3.0816,-3.2636,-3.4646,-3.6209,-3.7243,-3.8298,-3.9687,-4.0429,-4.093,-4.1497,-4.1466,-4.1975,-4.1521,-4.1928,-4.1992,-4.1733,-4.1871,-4.2557,-4.3206,-4.434,-4.5289,-4.6374,-4.7589,-4.8399,-4.9641,-5.1076,-5.1413,-5.2048,-5.2648,-5.3013,-5.3147,-5.3408,-4.8971,-4.3563,-3.8402,-3.5541,-3.4115,-3.2759,-3.0702,-2.9425,-2.895,-2.8871,-2.57,-2.8386,-2.9645,-3.1374,-3.0555,-3.318,-3.0267,-2.7763,-2.3736,-1.9757,-1.6279,-1.2699,-0.9031,-0.6147,-0.3849,-0.043,0.345,0.671,0.976,1.2851,1.3939,1.5248,1.6759,1.8295,1.8842,1.9829,2.123,2.2639,2.3747,2.5071,2.5583,2.6087,2.703,2.7778,2.869,2.9688,3.0578,3.0936,3.1487,3.1994,3.2916,3.3588,3.4482,3.5182,3.5843,3.6517,3.7096,3.7164,3.7504,3.8423,3.9359,4.0172,4.1186,4.2415,4.3231,4.3637,4.4447,4.5455,4.6058,4.6258,4.8051,4.9433,5.0021,5.0745,5.1731,-1.8759,-2.0257,-2.2208,-2.3667,-2.5156,-2.6282,-2.8192,-3.063,-3.2236,-3.3834,-3.5348,-3.7023,-3.838,-3.8917,-4.0754,-4.2173,-4.3064,-4.355,-4.5015,-4.5877,-4.5462,-4.6105,-4.709,-4.7689,-4.8281,-4.9448,-5.0823,-5.2068,-5.3407,-5.4672,-5.6071,-5.721,-5.8274,-5.9634,-6.0959,-6.1376,-6.1327,-6.1633,-6.2013,-6.2236,-6.0105,-5.4829,-4.919,-4.6838,-4.601,-4.4702,-4.3451,-4.2782,-4.3541,-4.6483,-5.1834,-5.5595,-5.6981,-5.6907,-5.587,-4.9849,-4.7114,-3.9668,-3.4566,-2.8897,-2.4608,-1.9735,-1.6161,-1.235,-0.9908,-0.6796,-0.3193,-0.0214,0.3219,0.7803,0.9767,1.151,1.3027,1.4991,1.6143,1.7744,1.9349,2.0077,2.0996,2.216,2.3346,2.4038,2.472,2.5719,2.6574,2.7731,2.8628,2.8989,2.9878,3.0609,3.1116,3.1567,3.2242,3.3207,3.412,3.5158,3.5567,3.5428,3.5751,3.6675,3.739,3.7918,3.893,4.0363,4.0981,4.1171,4.2211,4.3231,4.384,4.4245,4.6058,4.7256,4.7853,4.8608,4.9636]}]]